Wetterdaten: Samstag, 25.03.2017
Datum Zeit Temp. A. Feuchte A. Luftdruck Regen Wind Richtung Richtung Sonnenschein ET UV Solar Taupunkt Windchill Windben Empfang
25.03.2017 00:00 7,1 C 82 % 1028,2 hPa 0,0 l/m 11,4 km/h (2 Bft) NO 43 0 min 0,000 mm 0,0 UV-I 0 W/m 4,2 C 3,5 C 16,1 km/h (3 Bft) 100,00 %
25.03.2017 00:02 7,2 C 82 % 1028,2 hPa 0,0 l/m 9,4 km/h (2 Bft) NO 40 0 min 0,000 mm 0,0 UV-I 0 W/m 4,3 C 4,9 C 16,1 km/h (3 Bft) 100,00 %
25.03.2017 00:04 7,2 C 82 % 1028,2 hPa 0,0 l/m 10,9 km/h (2 Bft) NO 44 0 min 0,000 mm 0,0 UV-I 0 W/m 4,3 C 3,9 C 17,7 km/h (3 Bft) 100,00 %
25.03.2017 00:06 7,2 C 82 % 1028,2 hPa 0,0 l/m 9,4 km/h (2 Bft) NO 42 0 min 0,000 mm 0,0 UV-I 0 W/m 4,3 C 4,9 C 16,1 km/h (3 Bft) 100,00 %
25.03.2017 00:08 7,2 C 82 % 1028,1 hPa 0,0 l/m 14,4 km/h (3 Bft) NO 40 0 min 0,000 mm 0,0 UV-I 0 W/m 4,3 C 2,0 C 19,3 km/h (3 Bft) 100,00 %
25.03.2017 00:10 7,2 C 82 % 1028,1 hPa 0,0 l/m 11,6 km/h (2 Bft) NO 44 0 min 0,000 mm 0,0 UV-I 0 W/m 4,3 C 3,5 C 16,1 km/h (3 Bft) 98,21 %
25.03.2017 00:12 7,2 C 82 % 1028,1 hPa 0,0 l/m 12,1 km/h (2 Bft) NO 48 0 min 0,000 mm 0,0 UV-I 0 W/m 4,3 C 3,2 C 17,7 km/h (3 Bft) 97,37 %
25.03.2017 00:14 7,1 C 82 % 1028,2 hPa 0,0 l/m 9,1 km/h (2 Bft) NO 55 0 min 0,000 mm 0,0 UV-I 0 W/m 4,2 C 5,0 C 16,1 km/h (3 Bft) 98,00 %
25.03.2017 00:16 7,2 C 82 % 1028,1 hPa 0,0 l/m 11,9 km/h (2 Bft) NO 50 0 min 0,000 mm 0,0 UV-I 0 W/m 4,3 C 3,3 C 17,7 km/h (3 Bft) 100,00 %
25.03.2017 00:18 7,1 C 82 % 1028,1 hPa 0,0 l/m 8,8 km/h (2 Bft) NO 51 0 min 0,000 mm 0,0 UV-I 0 W/m 4,2 C 5,2 C 16,1 km/h (3 Bft) 100,00 %
25.03.2017 00:20 7,1 C 82 % 1028,1 hPa 0,0 l/m 10,2 km/h (2 Bft) O-NO 63 0 min 0,000 mm 0,0 UV-I 0 W/m 4,2 C 4,3 C 16,1 km/h (3 Bft) 100,00 %
25.03.2017 00:22 7,1 C 82 % 1028,1 hPa 0,0 l/m 10,0 km/h (2 Bft) NO 46 0 min 0,000 mm 0,0 UV-I 0 W/m 4,2 C 4,4 C 14,5 km/h (3 Bft) 100,00 %
25.03.2017 00:24 7,1 C 82 % 1028,1 hPa 0,0 l/m 12,0 km/h (2 Bft) N-NO 32 0 min 0,000 mm 0,0 UV-I 0 W/m 4,2 C 3,2 C 19,3 km/h (3 Bft) 100,00 %
25.03.2017 00:26 7,1 C 82 % 1028,1 hPa 0,0 l/m 12,5 km/h (3 Bft) N-NO 33 0 min 0,000 mm 0,0 UV-I 0 W/m 4,2 C 2,9 C 17,7 km/h (3 Bft) 100,00 %
25.03.2017 00:28 7,1 C 83 % 1028,1 hPa 0,0 l/m 13,5 km/h (3 Bft) NO 47 0 min 0,000 mm 0,0 UV-I 0 W/m 4,4 C 2,4 C 19,3 km/h (3 Bft) 100,00 %
25.03.2017 00:30 7,1 C 82 % 1028,1 hPa 0,0 l/m 16,0 km/h (3 Bft) NO 38 0 min 0,000 mm 0,0 UV-I 0 W/m 4,2 C 1,2 C 22,5 km/h (4 Bft) 100,00 %
25.03.2017 00:32 7,1 C 82 % 1028,1 hPa 0,0 l/m 13,5 km/h (3 Bft) N-NO 33 0 min 0,000 mm 0,0 UV-I 0 W/m 4,2 C 2,4 C 20,9 km/h (4 Bft) 100,00 %
25.03.2017 00:34 7,1 C 82 % 1028,1 hPa 0,0 l/m 16,0 km/h (3 Bft) O-NO 65 0 min 0,000 mm 0,0 UV-I 0 W/m 4,2 C 1,2 C 24,1 km/h (4 Bft) 100,00 %
25.03.2017 00:36 7,1 C 82 % 1028,1 hPa 0,0 l/m 15,8 km/h (3 Bft) O-NO 67 0 min 0,000 mm 0,0 UV-I 0 W/m 4,2 C 1,3 C 20,9 km/h (4 Bft) 98,00 %
25.03.2017 00:38 7,0 C 83 % 1028,1 hPa 0,0 l/m 11,0 km/h (2 Bft) NO 50 0 min 0,000 mm 0,0 UV-I 0 W/m 4,3 C 3,6 C 16,1 km/h (3 Bft) 100,00 %
25.03.2017 00:40 7,0 C 83 % 1028,0 hPa 0,0 l/m 9,8 km/h (2 Bft) N 5 0 min 0,000 mm 0,0 UV-I 0 W/m 4,3 C 4,4 C 17,7 km/h (3 Bft) 100,00 %
25.03.2017 00:42 7,0 C 83 % 1028,1 hPa 0,0 l/m 11,7 km/h (2 Bft) O-NO 66 0 min 0,000 mm 0,0 UV-I 0 W/m 4,3 C 3,2 C 17,7 km/h (3 Bft) 98,31 %
25.03.2017 00:44 7,0 C 83 % 1028,1 hPa 0,0 l/m 13,6 km/h (3 Bft) NO 36 0 min 0,000 mm 0,0 UV-I 0 W/m 4,3 C 2,2 C 20,9 km/h (4 Bft) 100,00 %
25.03.2017 00:46 7,0 C 83 % 1028,0 hPa 0,0 l/m 14,0 km/h (3 Bft) O-NO 58 0 min 0,000 mm 0,0 UV-I 0 W/m 4,3 C 2,0 C 17,7 km/h (3 Bft) 100,00 %
25.03.2017 00:48 7,0 C 83 % 1028,0 hPa 0,0 l/m 8,5 km/h (2 Bft) O-NO 57 0 min 0,000 mm 0,0 UV-I 0 W/m 4,3 C 5,3 C 16,1 km/h (3 Bft) 96,23 %
25.03.2017 00:50 6,9 C 83 % 1028,0 hPa 0,0 l/m 10,2 km/h (2 Bft) O-NO 60 0 min 0,000 mm 0,0 UV-I 0 W/m 4,2 C 4,0 C 14,5 km/h (3 Bft) 100,00 %
25.03.2017 00:52 6,9 C 83 % 1028,0 hPa 0,0 l/m 8,0 km/h (2 Bft) O-NO 67 0 min 0,000 mm 0,0 UV-I 0 W/m 4,2 C 5,6 C 11,3 km/h (2 Bft) 100,00 %
25.03.2017 00:54 6,9 C 83 % 1028,0 hPa 0,0 l/m 9,2 km/h (2 Bft) O 82 0 min 0,000 mm 0,0 UV-I 0 W/m 4,2 C 4,7 C 14,5 km/h (3 Bft) 100,00 %
25.03.2017 00:56 6,9 C 83 % 1028,0 hPa 0,0 l/m 12,9 km/h (3 Bft) O-NO 62 0 min 0,000 mm 0,0 UV-I 0 W/m 4,2 C 2,4 C 20,9 km/h (4 Bft) 100,00 %
25.03.2017 00:58 6,9 C 84 % 1028,0 hPa 0,0 l/m 13,4 km/h (3 Bft) NO 51 0 min 0,000 mm 0,0 UV-I 0 W/m 4,4 C 2,2 C 22,5 km/h (4 Bft) 94,74 %
25.03.2017 01:00 6,9 C 84 % 1028,0 hPa 0,0 l/m 11,6 km/h (2 Bft) O 79 0 min 0,025 mm 0,0 UV-I 0 W/m 4,4 C 3,2 C 16,1 km/h (3 Bft) 98,00 %
25.03.2017 01:02 6,9 C 84 % 1028,1 hPa 0,0 l/m 12,2 km/h (2 Bft) O-NO 59 0 min 0,000 mm 0,0 UV-I 0 W/m 4,4 C 2,8 C 17,7 km/h (3 Bft) 100,00 %
25.03.2017 01:04 6,9 C 84 % 1028,0 hPa 0,0 l/m 12,0 km/h (2 Bft) NO 49 0 min 0,000 mm 0,0 UV-I 0 W/m 4,4 C 2,9 C 16,1 km/h (3 Bft) 100,00 %
25.03.2017 01:06 6,9 C 84 % 1028,0 hPa 0,0 l/m 11,9 km/h (2 Bft) O-NO 59 0 min 0,000 mm 0,0 UV-I 0 W/m 4,4 C 3,0 C 16,1 km/h (3 Bft) 100,00 %
25.03.2017 01:08 6,9 C 84 % 1028,1 hPa 0,0 l/m 12,4 km/h (3 Bft) O-NO 62 0 min 0,000 mm 0,0 UV-I 0 W/m 4,4 C 2,7 C 17,7 km/h (3 Bft) 98,11 %
25.03.2017 01:10 6,9 C 84 % 1028,0 hPa 0,0 l/m 12,7 km/h (3 Bft) NO 46 0 min 0,000 mm 0,0 UV-I 0 W/m 4,4 C 2,6 C 19,3 km/h (3 Bft) 93,18 %
25.03.2017 01:12 6,8 C 85 % 1028,1 hPa 0,0 l/m 13,8 km/h (3 Bft) NO 53 0 min 0,000 mm 0,0 UV-I 0 W/m 4,5 C 1,9 C 17,7 km/h (3 Bft) 92,45 %
25.03.2017 01:14 6,8 C 85 % 1028,1 hPa 0,0 l/m 13,4 km/h (3 Bft) O-NO 63 0 min 0,000 mm 0,0 UV-I 0 W/m 4,5 C 2,1 C 17,7 km/h (3 Bft) 100,00 %
25.03.2017 01:16 6,8 C 85 % 1028,1 hPa 0,0 l/m 12,0 km/h (2 Bft) O-NO 58 0 min 0,000 mm 0,0 UV-I 0 W/m 4,5 C 2,8 C 16,1 km/h (3 Bft) 93,85 %
25.03.2017 01:18 6,8 C 85 % 1028,1 hPa 0,0 l/m 11,3 km/h (2 Bft) O-NO 66 0 min 0,000 mm 0,0 UV-I 0 W/m 4,5 C 3,2 C 16,1 km/h (3 Bft) 96,23 %
25.03.2017 01:20 6,8 C 85 % 1028,1 hPa 0,0 l/m 12,1 km/h (2 Bft) O-NO 70 0 min 0,000 mm 0,0 UV-I 0 W/m 4,5 C 2,8 C 19,3 km/h (3 Bft) 94,29 %
25.03.2017 01:22 6,8 C 85 % 1028,1 hPa 0,0 l/m 13,3 km/h (3 Bft) O-NO 63 0 min 0,000 mm 0,0 UV-I 0 W/m 4,5 C 2,1 C 19,3 km/h (3 Bft) 96,00 %
25.03.2017 01:24 6,8 C 85 % 1028,0 hPa 0,0 l/m 10,4 km/h (2 Bft) NO 56 0 min 0,000 mm 0,0 UV-I 0 W/m 4,5 C 3,8 C 17,7 km/h (3 Bft) 94,74 %
25.03.2017 01:26 6,8 C 85 % 1028,0 hPa 0,0 l/m 13,5 km/h (3 Bft) O-NO 65 0 min 0,000 mm 0,0 UV-I 0 W/m 4,5 C 2,0 C 19,3 km/h (3 Bft) 95,16 %
25.03.2017 01:28 6,8 C 85 % 1028,0 hPa 0,0 l/m 14,4 km/h (3 Bft) O 79 0 min 0,000 mm 0,0 UV-I 0 W/m 4,5 C 1,5 C 20,9 km/h (4 Bft) 97,37 %
25.03.2017 01:30 6,8 C 85 % 1028,0 hPa 0,0 l/m 16,2 km/h (3 Bft) O-NO 72 0 min 0,000 mm 0,0 UV-I 0 W/m 4,5 C 0,7 C 20,9 km/h (4 Bft) 96,00 %
25.03.2017 01:32 6,8 C 85 % 1028,0 hPa 0,0 l/m 13,4 km/h (3 Bft) O-NO 67 0 min 0,000 mm 0,0 UV-I 0 W/m 4,5 C 2,1 C 19,3 km/h (3 Bft) 95,45 %
25.03.2017 01:34 6,7 C 85 % 1028,0 hPa 0,0 l/m 15,8 km/h (3 Bft) O-NO 58 0 min 0,000 mm 0,0 UV-I 0 W/m 4,4 C 0,8 C 22,5 km/h (4 Bft) 92,45 %
25.03.2017 01:36 6,7 C 85 % 1028,1 hPa 0,0 l/m 16,5 km/h (3 Bft) O-NO 57 0 min 0,000 mm 0,0 UV-I 0 W/m 4,4 C 0,4 C 24,1 km/h (4 Bft) 96,00 %
25.03.2017 01:38 6,7 C 85 % 1028,0 hPa 0,0 l/m 14,7 km/h (3 Bft) O-NO 67 0 min 0,000 mm 0,0 UV-I 0 W/m 4,4 C 1,3 C 20,9 km/h (4 Bft) 95,12 %
25.03.2017 01:40 6,7 C 85 % 1028,0 hPa 0,0 l/m 15,0 km/h (3 Bft) O-NO 76 0 min 0,000 mm 0,0 UV-I 0 W/m 4,4 C 1,1 C 20,9 km/h (4 Bft) 95,45 %
25.03.2017 01:42 6,6 C 85 % 1028,0 hPa 0,0 l/m 14,9 km/h (3 Bft) O-NO 64 0 min 0,000 mm 0,0 UV-I 0 W/m 4,3 C 1,1 C 19,3 km/h (3 Bft) 96,43 %
25.03.2017 01:44 6,6 C 85 % 1027,9 hPa 0,0 l/m 13,9 km/h (3 Bft) NO 40 0 min 0,000 mm 0,0 UV-I 0 W/m 4,3 C 1,6 C 20,9 km/h (4 Bft) 97,22 %
25.03.2017 01:46 6,6 C 85 % 1028,0 hPa 0,0 l/m 18,6 km/h (3 Bft) NO 34 0 min 0,000 mm 0,0 UV-I 0 W/m 4,3 C -0,6 C 24,1 km/h (4 Bft) 97,92 %
25.03.2017 01:48 6,6 C 84 % 1028,0 hPa 0,0 l/m 12,9 km/h (3 Bft) O-NO 69 0 min 0,000 mm 0,0 UV-I 0 W/m 4,1 C 2,1 C 19,3 km/h (3 Bft) 94,34 %
25.03.2017 01:50 6,5 C 84 % 1028,0 hPa 0,0 l/m 16,1 km/h (3 Bft) NO 38 0 min 0,000 mm 0,0 UV-I 0 W/m 4,0 C 0,4 C 22,5 km/h (4 Bft) 97,56 %
25.03.2017 01:52 6,4 C 84 % 1027,8 hPa 0,0 l/m 14,9 km/h (3 Bft) O-NO 61 0 min 0,000 mm 0,0 UV-I 0 W/m 3,9 C 0,8 C 19,3 km/h (3 Bft) 97,73 %
25.03.2017 01:54 6,4 C 84 % 1027,8 hPa 0,0 l/m 16,3 km/h (3 Bft) O-NO 71 0 min 0,000 mm 0,0 UV-I 0 W/m 3,9 C 0,2 C 20,9 km/h (4 Bft) 98,00 %
25.03.2017 01:56 6,4 C 84 % 1027,8 hPa 0,0 l/m 14,2 km/h (3 Bft) O-NO 78 0 min 0,000 mm 0,0 UV-I 0 W/m 3,9 C 1,2 C 17,7 km/h (3 Bft) 96,43 %
25.03.2017 01:58 6,4 C 84 % 1027,8 hPa 0,0 l/m 12,9 km/h (3 Bft) O-NO 68 0 min 0,000 mm 0,0 UV-I 0 W/m 3,9 C 1,9 C 17,7 km/h (3 Bft) 100,00 %
25.03.2017 02:00 6,3 C 84 % 1027,7 hPa 0,0 l/m 14,0 km/h (3 Bft) O-NO 58 0 min 0,026 mm 0,0 UV-I 0 W/m 3,8 C 1,2 C 20,9 km/h (4 Bft) 94,34 %
25.03.2017 02:02 6,3 C 84 % 1027,7 hPa 0,0 l/m 13,1 km/h (3 Bft) NO 50 0 min 0,000 mm 0,0 UV-I 0 W/m 3,8 C 1,6 C 16,1 km/h (3 Bft) 98,11 %
25.03.2017 02:04 6,3 C 84 % 1027,7 hPa 0,0 l/m 15,6 km/h (3 Bft) NO 44 0 min 0,000 mm 0,0 UV-I 0 W/m 3,8 C 0,4 C 24,1 km/h (4 Bft) 97,73 %
25.03.2017 02:06 6,3 C 83 % 1027,8 hPa 0,0 l/m 16,6 km/h (3 Bft) NO 52 0 min 0,000 mm 0,0 UV-I 0 W/m 3,6 C -0,1 C 24,1 km/h (4 Bft) 92,68 %
25.03.2017 02:08 6,3 C 83 % 1027,8 hPa 0,0 l/m 14,1 km/h (3 Bft) NO 53 0 min 0,000 mm 0,0 UV-I 0 W/m 3,6 C 1,1 C 22,5 km/h (4 Bft) 96,30 %
25.03.2017 02:10 6,2 C 83 % 1027,7 hPa 0,0 l/m 14,5 km/h (3 Bft) O-NO 64 0 min 0,000 mm 0,0 UV-I 0 W/m 3,5 C 0,8 C 19,3 km/h (3 Bft) 98,57 %
25.03.2017 02:12 6,2 C 83 % 1027,8 hPa 0,0 l/m 14,4 km/h (3 Bft) O-NO 62 0 min 0,000 mm 0,0 UV-I 0 W/m 3,5 C 0,8 C 19,3 km/h (3 Bft) 97,37 %
25.03.2017 02:14 6,2 C 83 % 1027,7 hPa 0,0 l/m 15,0 km/h (3 Bft) NO 55 0 min 0,000 mm 0,0 UV-I 0 W/m 3,5 C 0,5 C 19,3 km/h (3 Bft) 94,34 %
25.03.2017 02:16 6,2 C 83 % 1027,8 hPa 0,0 l/m 12,6 km/h (3 Bft) O-NO 77 0 min 0,000 mm 0,0 UV-I 0 W/m 3,5 C 1,8 C 17,7 km/h (3 Bft) 98,00 %
25.03.2017 02:18 6,2 C 83 % 1027,8 hPa 0,0 l/m 15,2 km/h (3 Bft) NO 46 0 min 0,000 mm 0,0 UV-I 0 W/m 3,5 C 0,4 C 19,3 km/h (3 Bft) 92,68 %
25.03.2017 02:20 6,1 C 83 % 1027,7 hPa 0,0 l/m 15,9 km/h (3 Bft) NO 53 0 min 0,000 mm 0,0 UV-I 0 W/m 3,4 C -0,0 C 20,9 km/h (4 Bft) 97,78 %
25.03.2017 02:22 6,1 C 83 % 1027,7 hPa 0,0 l/m 15,9 km/h (3 Bft) O-NO 65 0 min 0,000 mm 0,0 UV-I 0 W/m 3,4 C -0,0 C 19,3 km/h (3 Bft) 96,15 %
25.03.2017 02:24 6,1 C 83 % 1027,7 hPa 0,0 l/m 12,8 km/h (3 Bft) NO 51 0 min 0,000 mm 0,0 UV-I 0 W/m 3,4 C 1,6 C 16,1 km/h (3 Bft) 100,00 %
25.03.2017 02:26 6,1 C 83 % 1027,7 hPa 0,0 l/m 12,9 km/h (3 Bft) O-NO 61 0 min 0,000 mm 0,0 UV-I 0 W/m 3,4 C 1,5 C 16,1 km/h (3 Bft) 100,00 %
25.03.2017 02:28 6,1 C 83 % 1027,7 hPa 0,0 l/m 12,5 km/h (3 Bft) NO 48 0 min 0,000 mm 0,0 UV-I 0 W/m 3,4 C 1,7 C 19,3 km/h (3 Bft) 100,00 %
25.03.2017 02:30 6,0 C 84 % 1027,7 hPa 0,0 l/m 10,5 km/h (2 Bft) NO 55 0 min 0,000 mm 0,0 UV-I 0 W/m 3,5 C 2,8 C 17,7 km/h (3 Bft) 100,00 %
25.03.2017 02:32 6,0 C 84 % 1027,7 hPa 0,0 l/m 12,9 km/h (3 Bft) O-NO 61 0 min 0,000 mm 0,0 UV-I 0 W/m 3,5 C 1,4 C 19,3 km/h (3 Bft) 98,11 %
25.03.2017 02:34 5,9 C 83 % 1027,7 hPa 0,0 l/m 13,1 km/h (3 Bft) O 83 0 min 0,000 mm 0,0 UV-I 0 W/m 3,2 C 1,2 C 19,3 km/h (3 Bft) 100,00 %
25.03.2017 02:36 5,9 C 83 % 1027,7 hPa 0,0 l/m 12,4 km/h (3 Bft) O-NO 65 0 min 0,000 mm 0,0 UV-I 0 W/m 3,2 C 1,6 C 17,7 km/h (3 Bft) 100,00 %
25.03.2017 02:38 5,9 C 84 % 1027,7 hPa 0,0 l/m 13,7 km/h (3 Bft) NO 55 0 min 0,000 mm 0,0 UV-I 0 W/m 3,4 C 0,8 C 17,7 km/h (3 Bft) 100,00 %
25.03.2017 02:40 5,9 C 84 % 1027,6 hPa 0,0 l/m 14,8 km/h (3 Bft) O-NO 57 0 min 0,000 mm 0,0 UV-I 0 W/m 3,4 C 0,3 C 20,9 km/h (4 Bft) 98,21 %
25.03.2017 02:42 5,8 C 83 % 1027,6 hPa 0,0 l/m 16,2 km/h (3 Bft) NO 51 0 min 0,000 mm 0,0 UV-I 0 W/m 3,1 C -0,5 C 22,5 km/h (4 Bft) 100,00 %
25.03.2017 02:44 5,8 C 83 % 1027,6 hPa 0,0 l/m 15,8 km/h (3 Bft) NO 54 0 min 0,000 mm 0,0 UV-I 0 W/m 3,1 C -0,3 C 22,5 km/h (4 Bft) 97,37 %
25.03.2017 02:46 5,8 C 83 % 1027,6 hPa 0,0 l/m 13,3 km/h (3 Bft) O-NO 58 0 min 0,000 mm 0,0 UV-I 0 W/m 3,1 C 0,9 C 17,7 km/h (3 Bft) 100,00 %
25.03.2017 02:48 5,8 C 83 % 1027,6 hPa 0,0 l/m 11,8 km/h (2 Bft) O-NO 61 0 min 0,000 mm 0,0 UV-I 0 W/m 3,1 C 1,8 C 19,3 km/h (3 Bft) 100,00 %
25.03.2017 02:50 5,8 C 83 % 1027,5 hPa 0,0 l/m 16,8 km/h (3 Bft) O-NO 62 0 min 0,000 mm 0,0 UV-I 0 W/m 3,1 C -0,8 C 22,5 km/h (4 Bft) 100,00 %
25.03.2017 02:52 5,8 C 83 % 1027,5 hPa 0,0 l/m 14,9 km/h (3 Bft) NO 49 0 min 0,000 mm 0,0 UV-I 0 W/m 3,1 C 0,1 C 20,9 km/h (4 Bft) 100,00 %
25.03.2017 02:54 5,7 C 83 % 1027,5 hPa 0,0 l/m 12,2 km/h (2 Bft) NO 52 0 min 0,000 mm 0,0 UV-I 0 W/m 3,0 C 1,4 C 16,1 km/h (3 Bft) 100,00 %
25.03.2017 02:56 5,7 C 83 % 1027,5 hPa 0,0 l/m 12,4 km/h (3 Bft) O 82 0 min 0,000 mm 0,0 UV-I 0 W/m 3,0 C 1,3 C 17,7 km/h (3 Bft) 98,51 %
25.03.2017 02:58 5,7 C 83 % 1027,5 hPa 0,0 l/m 16,1 km/h (3 Bft) O-NO 65 0 min 0,000 mm 0,0 UV-I 0 W/m 3,0 C -0,6 C 22,5 km/h (4 Bft) 100,00 %
25.03.2017 03:00 5,7 C 83 % 1027,5 hPa 0,0 l/m 13,6 km/h (3 Bft) O-NO 59 0 min 0,025 mm 0,0 UV-I 0 W/m 3,0 C 0,7 C 19,3 km/h (3 Bft) 100,00 %
25.03.2017 03:02 5,6 C 83 % 1027,5 hPa 0,0 l/m 16,3 km/h (3 Bft) O-NO 69 0 min 0,000 mm 0,0 UV-I 0 W/m 2,9 C -0,8 C 24,1 km/h (4 Bft) 100,00 %
25.03.2017 03:04 5,6 C 83 % 1027,5 hPa 0,0 l/m 15,2 km/h (3 Bft) NO 50 0 min 0,000 mm 0,0 UV-I 0 W/m 2,9 C -0,3 C 22,5 km/h (4 Bft) 100,00 %
25.03.2017 03:06 5,6 C 83 % 1027,5 hPa 0,0 l/m 13,2 km/h (3 Bft) NO 53 0 min 0,000 mm 0,0 UV-I 0 W/m 2,9 C 0,8 C 17,7 km/h (3 Bft) 100,00 %
25.03.2017 03:08 5,6 C 83 % 1027,5 hPa 0,0 l/m 12,8 km/h (3 Bft) O-NO 66 0 min 0,000 mm 0,0 UV-I 0 W/m 2,9 C 1,0 C 16,1 km/h (3 Bft) 100,00 %
25.03.2017 03:10 5,6 C 83 % 1027,5 hPa 0,0 l/m 11,3 km/h (2 Bft) O-NO 61 0 min 0,000 mm 0,0 UV-I 0 W/m 2,9 C 1,9 C 16,1 km/h (3 Bft) 98,11 %
25.03.2017 03:12 5,5 C 83 % 1027,6 hPa 0,0 l/m 12,0 km/h (2 Bft) O-NO 63 0 min 0,000 mm 0,0 UV-I 0 W/m 2,8 C 1,3 C 16,1 km/h (3 Bft) 96,00 %
25.03.2017 03:14 5,5 C 83 % 1027,6 hPa 0,0 l/m 12,1 km/h (2 Bft) NO 53 0 min 0,000 mm 0,0 UV-I 0 W/m 2,8 C 1,3 C 17,7 km/h (3 Bft) 97,37 %
25.03.2017 03:16 5,5 C 83 % 1027,6 hPa 0,0 l/m 11,4 km/h (2 Bft) NO 51 0 min 0,000 mm 0,0 UV-I 0 W/m 2,8 C 1,7 C 16,1 km/h (3 Bft) 97,73 %
25.03.2017 03:18 5,5 C 83 % 1027,7 hPa 0,0 l/m 9,9 km/h (2 Bft) O-NO 71 0 min 0,000 mm 0,0 UV-I 0 W/m 2,8 C 2,7 C 14,5 km/h (3 Bft) 97,87 %
25.03.2017 03:20 5,4 C 83 % 1027,6 hPa 0,0 l/m 10,5 km/h (2 Bft) O-NO 64 0 min 0,000 mm 0,0 UV-I 0 W/m 2,7 C 2,2 C 16,1 km/h (3 Bft) 96,23 %
25.03.2017 03:22 5,4 C 83 % 1027,6 hPa 0,0 l/m 12,3 km/h (3 Bft) O-NO 65 0 min 0,000 mm 0,0 UV-I 0 W/m 2,7 C 1,0 C 17,7 km/h (3 Bft) 97,87 %
25.03.2017 03:24 5,4 C 83 % 1027,6 hPa 0,0 l/m 11,1 km/h (2 Bft) O-NO 59 0 min 0,000 mm 0,0 UV-I 0 W/m 2,7 C 1,8 C 16,1 km/h (3 Bft) 97,56 %
25.03.2017 03:26 5,4 C 83 % 1027,6 hPa 0,0 l/m 10,9 km/h (2 Bft) O-NO 59 0 min 0,000 mm 0,0 UV-I 0 W/m 2,7 C 1,9 C 17,7 km/h (3 Bft) 96,23 %
25.03.2017 03:28 5,4 C 83 % 1027,6 hPa 0,0 l/m 10,9 km/h (2 Bft) NO 50 0 min 0,000 mm 0,0 UV-I 0 W/m 2,7 C 1,9 C 16,1 km/h (3 Bft) 94,29 %
25.03.2017 03:30 5,4 C 83 % 1027,6 hPa 0,0 l/m 11,6 km/h (2 Bft) O-NO 63 0 min 0,000 mm 0,0 UV-I 0 W/m 2,7 C 1,5 C 17,7 km/h (3 Bft) 96,77 %
25.03.2017 03:32 5,3 C 83 % 1027,6 hPa 0,0 l/m 12,5 km/h (3 Bft) NO 49 0 min 0,000 mm 0,0 UV-I 0 W/m 2,7 C 0,8 C 16,1 km/h (3 Bft) 97,56 %
25.03.2017 03:34 5,3 C 83 % 1027,5 hPa 0,0 l/m 9,5 km/h (2 Bft) O-NO 61 0 min 0,000 mm 0,0 UV-I 0 W/m 2,7 C 2,8 C 16,1 km/h (3 Bft) 96,23 %
25.03.2017 03:36 5,3 C 84 % 1027,5 hPa 0,0 l/m 11,3 km/h (2 Bft) NO 53 0 min 0,000 mm 0,0 UV-I 0 W/m 2,8 C 1,5 C 19,3 km/h (3 Bft) 97,37 %
25.03.2017 03:38 5,3 C 84 % 1027,5 hPa 0,0 l/m 11,6 km/h (2 Bft) O-NO 65 0 min 0,000 mm 0,0 UV-I 0 W/m 2,8 C 1,3 C 17,7 km/h (3 Bft) 100,00 %
25.03.2017 03:40 5,3 C 84 % 1027,5 hPa 0,0 l/m 12,6 km/h (3 Bft) O-NO 57 0 min 0,000 mm 0,0 UV-I 0 W/m 2,8 C 0,7 C 16,1 km/h (3 Bft) 94,00 %
25.03.2017 03:42 5,3 C 84 % 1027,5 hPa 0,0 l/m 14,0 km/h (3 Bft) O-NO 75 0 min 0,000 mm 0,0 UV-I 0 W/m 2,8 C -0,0 C 19,3 km/h (3 Bft) 97,56 %
25.03.2017 03:44 5,3 C 84 % 1027,6 hPa 0,0 l/m 12,8 km/h (3 Bft) NO 47 0 min 0,000 mm 0,0 UV-I 0 W/m 2,8 C 0,6 C 16,1 km/h (3 Bft) 95,24 %
25.03.2017 03:46 5,3 C 84 % 1027,6 hPa 0,0 l/m 11,9 km/h (2 Bft) O-NO 71 0 min 0,000 mm 0,0 UV-I 0 W/m 2,8 C 1,2 C 20,9 km/h (4 Bft) 98,11 %
25.03.2017 03:48 5,3 C 84 % 1027,5 hPa 0,0 l/m 9,4 km/h (2 Bft) O-NO 63 0 min 0,000 mm 0,0 UV-I 0 W/m 2,8 C 2,8 C 17,7 km/h (3 Bft) 97,87 %
25.03.2017 03:50 5,2 C 84 % 1027,5 hPa 0,0 l/m 11,1 km/h (2 Bft) O-NO 67 0 min 0,000 mm 0,0 UV-I 0 W/m 2,7 C 1,6 C 19,3 km/h (3 Bft) 97,37 %
25.03.2017 03:52 5,3 C 84 % 1027,5 hPa 0,0 l/m 11,4 km/h (2 Bft) O-NO 58 0 min 0,000 mm 0,0 UV-I 0 W/m 2,8 C 1,5 C 16,1 km/h (3 Bft) 100,00 %
25.03.2017 03:54 5,2 C 84 % 1027,5 hPa 0,0 l/m 12,2 km/h (2 Bft) NO 53 0 min 0,000 mm 0,0 UV-I 0 W/m 2,7 C 0,9 C 17,7 km/h (3 Bft) 100,00 %
25.03.2017 03:56 5,2 C 84 % 1027,5 hPa 0,0 l/m 14,5 km/h (3 Bft) O 80 0 min 0,000 mm 0,0 UV-I 0 W/m 2,7 C -0,4 C 19,3 km/h (3 Bft) 100,00 %
25.03.2017 03:58 5,2 C 84 % 1027,5 hPa 0,0 l/m 12,5 km/h (3 Bft) O-NO 63 0 min 0,000 mm 0,0 UV-I 0 W/m 2,7 C 0,7 C 20,9 km/h (4 Bft) 100,00 %
25.03.2017 04:00 5,2 C 84 % 1027,5 hPa 0,0 l/m 14,2 km/h (3 Bft) O-NO 73 0 min 0,026 mm 0,0 UV-I 0 W/m 2,7 C -0,3 C 20,9 km/h (4 Bft) 97,14 %
25.03.2017 04:02 5,2 C 84 % 1027,5 hPa 0,0 l/m 8,1 km/h (2 Bft) O-NO 60 0 min 0,000 mm 0,0 UV-I 0 W/m 2,7 C 3,7 C 9,7 km/h (2 Bft) 100,00 %
25.03.2017 04:04 5,2 C 84 % 1027,4 hPa 0,0 l/m 12,0 km/h (2 Bft) O-NO 58 0 min 0,000 mm 0,0 UV-I 0 W/m 2,7 C 1,0 C 19,3 km/h (3 Bft) 100,00 %
25.03.2017 04:06 5,2 C 84 % 1027,4 hPa 0,0 l/m 13,3 km/h (3 Bft) NO 54 0 min 0,000 mm 0,0 UV-I 0 W/m 2,7 C 0,2 C 17,7 km/h (3 Bft) 100,00 %
25.03.2017 04:08 5,2 C 84 % 1027,5 hPa 0,0 l/m 12,5 km/h (3 Bft) O-NO 61 0 min 0,000 mm 0,0 UV-I 0 W/m 2,7 C 0,7 C 17,7 km/h (3 Bft) 100,00 %
25.03.2017 04:10 5,2 C 84 % 1027,5 hPa 0,0 l/m 11,4 km/h (2 Bft) O-NO 57 0 min 0,000 mm 0,0 UV-I 0 W/m 2,7 C 1,4 C 16,1 km/h (3 Bft) 100,00 %
25.03.2017 04:12 5,2 C 84 % 1027,5 hPa 0,0 l/m 9,9 km/h (2 Bft) NO 51 0 min 0,000 mm 0,0 UV-I 0 W/m 2,7 C 2,4 C 14,5 km/h (3 Bft) 98,00 %
25.03.2017 04:14 5,2 C 84 % 1027,5 hPa 0,0 l/m 11,7 km/h (2 Bft) O-NO 65 0 min 0,000 mm 0,0 UV-I 0 W/m 2,7 C 1,2 C 17,7 km/h (3 Bft) 97,87 %
25.03.2017 04:16 5,1 C 84 % 1027,4 hPa 0,0 l/m 12,8 km/h (3 Bft) O-NO 59 0 min 0,000 mm 0,0 UV-I 0 W/m 2,6 C 0,4 C 16,1 km/h (3 Bft) 98,11 %
25.03.2017 04:18 5,1 C 84 % 1027,3 hPa 0,0 l/m 13,4 km/h (3 Bft) NO 44 0 min 0,000 mm 0,0 UV-I 0 W/m 2,6 C 0,1 C 17,7 km/h (3 Bft) 94,74 %
25.03.2017 04:20 5,1 C 84 % 1027,2 hPa 0,0 l/m 12,8 km/h (3 Bft) O-NO 64 0 min 0,000 mm 0,0 UV-I 0 W/m 2,6 C 0,4 C 16,1 km/h (3 Bft) 100,00 %
25.03.2017 04:22 5,0 C 84 % 1027,2 hPa 0,0 l/m 11,7 km/h (2 Bft) O-NO 60 0 min 0,000 mm 0,0 UV-I 0 W/m 2,5 C 0,9 C 16,1 km/h (3 Bft) 100,00 %
25.03.2017 04:24 4,9 C 84 % 1027,2 hPa 0,0 l/m 14,1 km/h (3 Bft) O-NO 64 0 min 0,000 mm 0,0 UV-I 0 W/m 2,4 C -0,6 C 19,3 km/h (3 Bft) 100,00 %
25.03.2017 04:26 4,9 C 84 % 1027,2 hPa 0,0 l/m 10,7 km/h (2 Bft) O-NO 76 0 min 0,000 mm 0,0 UV-I 0 W/m 2,4 C 1,5 C 16,1 km/h (3 Bft) 98,11 %
25.03.2017 04:28 4,8 C 85 % 1027,2 hPa 0,0 l/m 11,5 km/h (2 Bft) NO 55 0 min 0,000 mm 0,0 UV-I 0 W/m 2,5 C 0,8 C 16,1 km/h (3 Bft) 100,00 %
25.03.2017 04:30 4,8 C 85 % 1027,3 hPa 0,0 l/m 10,9 km/h (2 Bft) NO 51 0 min 0,000 mm 0,0 UV-I 0 W/m 2,5 C 1,2 C 17,7 km/h (3 Bft) 100,00 %
25.03.2017 04:33 4,6 C 85 % 1027,2 hPa 0,0 l/m 7,2 km/h (2 Bft) NO 34 0 min 0,000 mm 0,0 UV-I 0 W/m 2,3 C 3,9 C 14,5 km/h (3 Bft) 96,34 %
25.03.2017 04:34 4,6 C 85 % 1027,2 hPa 0,0 l/m 10,5 km/h (2 Bft) O-NO 70 0 min 0,000 mm 0,0 UV-I 0 W/m 2,3 C 1,3 C 14,5 km/h (3 Bft) 100,00 %
25.03.2017 04:36 4,6 C 85 % 1027,2 hPa 0,0 l/m 8,0 km/h (2 Bft) O-NO 67 0 min 0,000 mm 0,0 UV-I 0 W/m 2,3 C 3,2 C 14,5 km/h (3 Bft) 100,00 %
25.03.2017 04:38 4,6 C 86 % 1027,2 hPa 0,0 l/m 7,5 km/h (2 Bft) NO 51 0 min 0,000 mm 0,0 UV-I 0 W/m 2,5 C 3,6 C 11,3 km/h (2 Bft) 100,00 %
25.03.2017 04:40 4,5 C 86 % 1027,3 hPa 0,0 l/m 7,3 km/h (2 Bft) O-NO 63 0 min 0,000 mm 0,0 UV-I 0 W/m 2,4 C 3,7 C 9,7 km/h (2 Bft) 97,87 %
25.03.2017 04:42 4,4 C 86 % 1027,2 hPa 0,0 l/m 6,0 km/h (2 Bft) O-NO 58 0 min 0,000 mm 0,0 UV-I 0 W/m 2,3 C 4,4 C 11,3 km/h (2 Bft) 97,56 %
25.03.2017 04:44 4,3 C 86 % 1027,2 hPa 0,0 l/m 8,9 km/h (2 Bft) NO 46 0 min 0,000 mm 0,0 UV-I 0 W/m 2,2 C 2,1 C 12,9 km/h (3 Bft) 98,11 %
25.03.2017 04:46 4,3 C 86 % 1027,1 hPa 0,0 l/m 9,4 km/h (2 Bft) O-NO 67 0 min 0,000 mm 0,0 UV-I 0 W/m 2,2 C 1,7 C 14,5 km/h (3 Bft) 97,73 %
25.03.2017 04:48 4,3 C 86 % 1027,1 hPa 0,0 l/m 9,5 km/h (2 Bft) NO 48 0 min 0,000 mm 0,0 UV-I 0 W/m 2,2 C 1,7 C 12,9 km/h (3 Bft) 100,00 %
25.03.2017 04:50 4,2 C 86 % 1027,1 hPa 0,0 l/m 9,2 km/h (2 Bft) O-NO 69 0 min 0,000 mm 0,0 UV-I 0 W/m 2,1 C 1,8 C 12,9 km/h (3 Bft) 100,00 %
25.03.2017 04:52 4,2 C 86 % 1027,1 hPa 0,0 l/m 7,5 km/h (2 Bft) NO 56 0 min 0,000 mm 0,0 UV-I 0 W/m 2,1 C 3,2 C 9,7 km/h (2 Bft) 100,00 %
25.03.2017 04:54 4,2 C 87 % 1027,0 hPa 0,0 l/m 6,6 km/h (2 Bft) NO 49 0 min 0,000 mm 0,0 UV-I 0 W/m 2,2 C 4,0 C 11,3 km/h (2 Bft) 100,00 %
25.03.2017 04:56 4,1 C 87 % 1027,0 hPa 0,0 l/m 6,5 km/h (2 Bft) O-NO 63 0 min 0,000 mm 0,0 UV-I 0 W/m 2,1 C 4,0 C 9,7 km/h (2 Bft) 100,00 %
25.03.2017 04:58 4,1 C 87 % 1027,0 hPa 0,0 l/m 4,9 km/h (1 Bft) O-NO 58 0 min 0,000 mm 0,0 UV-I 0 W/m 2,1 C 4,1 C 6,4 km/h (2 Bft) 100,00 %
25.03.2017 05:00 4,0 C 87 % 1027,1 hPa 0,0 l/m 4,3 km/h (1 Bft) O-NO 57 0 min 0,025 mm 0,0 UV-I 0 W/m 2,0 C 4,0 C 6,4 km/h (2 Bft) 100,00 %
25.03.2017 05:02 3,9 C 87 % 1027,1 hPa 0,0 l/m 5,5 km/h (1 Bft) O-NO 69 0 min 0,000 mm 0,0 UV-I 0 W/m 1,9 C 3,9 C 8,0 km/h (2 Bft) 100,00 %
25.03.2017 05:04 3,8 C 87 % 1027,1 hPa 0,0 l/m 6,4 km/h (2 Bft) O-NO 71 0 min 0,000 mm 0,0 UV-I 0 W/m 1,8 C 3,8 C 9,7 km/h (2 Bft) 100,00 %
25.03.2017 05:06 3,8 C 88 % 1027,1 hPa 0,0 l/m 8,5 km/h (2 Bft) NO 52 0 min 0,000 mm 0,0 UV-I 0 W/m 2,0 C 1,9 C 11,3 km/h (2 Bft) 100,00 %
25.03.2017 05:08 3,8 C 88 % 1027,0 hPa 0,0 l/m 7,8 km/h (2 Bft) O-NO 60 0 min 0,000 mm 0,0 UV-I 0 W/m 2,0 C 2,5 C 11,3 km/h (2 Bft) 100,00 %
25.03.2017 05:10 3,8 C 88 % 1027,0 hPa 0,0 l/m 6,9 km/h (2 Bft) NO 51 0 min 0,000 mm 0,0 UV-I 0 W/m 2,0 C 3,3 C 11,3 km/h (2 Bft) 98,00 %
25.03.2017 05:12 3,7 C 88 % 1027,0 hPa 0,0 l/m 7,7 km/h (2 Bft) NO 53 0 min 0,000 mm 0,0 UV-I 0 W/m 1,9 C 2,5 C 9,7 km/h (2 Bft) 100,00 %
25.03.2017 05:14 3,7 C 88 % 1027,0 hPa 0,0 l/m 7,6 km/h (2 Bft) NO 46 0 min 0,000 mm 0,0 UV-I 0 W/m 1,9 C 2,6 C 9,7 km/h (2 Bft) 97,37 %
25.03.2017 05:16 3,7 C 88 % 1027,0 hPa 0,0 l/m 7,4 km/h (2 Bft) O-NO 66 0 min 0,000 mm 0,0 UV-I 0 W/m 1,9 C 2,8 C 11,3 km/h (2 Bft) 94,34 %
25.03.2017 05:18 3,6 C 88 % 1027,0 hPa 0,0 l/m 5,7 km/h (1 Bft) O-NO 65 0 min 0,000 mm 0,0 UV-I 0 W/m 1,8 C 3,6 C 8,0 km/h (2 Bft) 92,00 %
25.03.2017 05:20 3,4 C 88 % 1027,0 hPa 0,0 l/m 6,3 km/h (2 Bft) NO 55 0 min 0,000 mm 0,0 UV-I 0 W/m 1,6 C 3,4 C 9,7 km/h (2 Bft) 95,12 %
25.03.2017 05:22 3,4 C 88 % 1027,0 hPa 0,0 l/m 5,9 km/h (2 Bft) O-NO 60 0 min 0,000 mm 0,0 UV-I 0 W/m 1,6 C 3,4 C 8,0 km/h (2 Bft) 95,12 %
25.03.2017 05:24 3,3 C 89 % 1027,0 hPa 0,0 l/m 6,0 km/h (2 Bft) NO 56 0 min 0,000 mm 0,0 UV-I 0 W/m 1,7 C 3,3 C 8,0 km/h (2 Bft) 96,00 %
25.03.2017 05:26 3,3 C 89 % 1026,9 hPa 0,0 l/m 6,5 km/h (2 Bft) O-NO 59 0 min 0,000 mm 0,0 UV-I 0 W/m 1,7 C 3,2 C 9,7 km/h (2 Bft) 94,00 %
25.03.2017 05:28 3,3 C 89 % 1026,9 hPa 0,0 l/m 5,8 km/h (2 Bft) O-NO 65 0 min 0,000 mm 0,0 UV-I 0 W/m 1,7 C 3,3 C 8,0 km/h (2 Bft) 94,74 %
25.03.2017 05:30 3,3 C 89 % 1026,8 hPa 0,0 l/m 6,5 km/h (2 Bft) O-NO 57 0 min 0,000 mm 0,0 UV-I 0 W/m 1,7 C 3,2 C 8,0 km/h (2 Bft) 94,64 %
25.03.2017 05:32 3,2 C 89 % 1026,8 hPa 0,0 l/m 6,1 km/h (2 Bft) O-NO 63 0 min 0,000 mm 0,0 UV-I 0 W/m 1,6 C 3,2 C 8,0 km/h (2 Bft) 96,00 %
25.03.2017 05:34 3,1 C 89 % 1026,8 hPa 0,0 l/m 5,7 km/h (1 Bft) O-NO 64 0 min 0,000 mm 0,0 UV-I 0 W/m 1,5 C 3,1 C 8,0 km/h (2 Bft) 96,30 %
25.03.2017 05:36 3,1 C 90 % 1026,8 hPa 0,0 l/m 6,0 km/h (2 Bft) O-NO 60 0 min 0,000 mm 0,0 UV-I 0 W/m 1,6 C 3,1 C 8,0 km/h (2 Bft) 93,75 %
25.03.2017 05:38 3,2 C 90 % 1026,8 hPa 0,0 l/m 6,3 km/h (2 Bft) O-NO 58 0 min 0,000 mm 0,0 UV-I 0 W/m 1,7 C 3,2 C 9,7 km/h (2 Bft) 96,23 %
25.03.2017 05:40 3,2 C 90 % 1026,9 hPa 0,0 l/m 7,0 km/h (2 Bft) NO 53 0 min 0,000 mm 0,0 UV-I 5 W/m 1,7 C 2,6 C 9,7 km/h (2 Bft) 94,87 %
25.03.2017 05:42 3,2 C 90 % 1026,9 hPa 0,0 l/m 7,9 km/h (2 Bft) NO 56 0 min 0,000 mm 0,0 UV-I 0 W/m 1,7 C 1,8 C 12,9 km/h (3 Bft) 94,23 %
25.03.2017 05:44 3,2 C 89 % 1026,8 hPa 0,0 l/m 7,3 km/h (2 Bft) O-SO 103 0 min 0,000 mm 0,0 UV-I 7 W/m 1,6 C 2,4 C 12,9 km/h (3 Bft) 95,24 %
25.03.2017 05:46 3,2 C 89 % 1026,9 hPa 0,0 l/m 9,2 km/h (2 Bft) O-NO 66 0 min 0,000 mm 0,0 UV-I 7 W/m 1,6 C 0,7 C 14,5 km/h (3 Bft) 96,15 %
25.03.2017 05:48 3,3 C 89 % 1026,8 hPa 0,0 l/m 9,7 km/h (2 Bft) O-NO 59 0 min 0,000 mm 0,0 UV-I 7 W/m 1,7 C 0,4 C 12,9 km/h (3 Bft) 97,44 %
25.03.2017 05:50 3,3 C 89 % 1026,8 hPa 0,0 l/m 9,1 km/h (2 Bft) O-NO 64 0 min 0,000 mm 0,0 UV-I 7 W/m 1,7 C 0,9 C 12,9 km/h (3 Bft) 92,45 %
25.03.2017 05:52 3,3 C 89 % 1026,9 hPa 0,0 l/m 9,3 km/h (2 Bft) NO 55 0 min 0,000 mm 0,0 UV-I 7 W/m 1,7 C 0,7 C 12,9 km/h (3 Bft) 100,00 %
25.03.2017 05:54 3,3 C 89 % 1026,9 hPa 0,0 l/m 9,0 km/h (2 Bft) O-NO 65 0 min 0,000 mm 0,0 UV-I 7 W/m 1,7 C 1,0 C 14,5 km/h (3 Bft) 96,00 %
25.03.2017 05:56 3,3 C 89 % 1026,9 hPa 0,0 l/m 8,4 km/h (2 Bft) O-NO 62 0 min 0,000 mm 0,0 UV-I 8 W/m 1,7 C 1,5 C 9,7 km/h (2 Bft) 97,87 %
25.03.2017 05:58 3,3 C 89 % 1026,9 hPa 0,0 l/m 7,5 km/h (2 Bft) NO 53 0 min 0,000 mm 0,0 UV-I 9 W/m 1,7 C 2,3 C 11,3 km/h (2 Bft) 97,73 %
25.03.2017 06:00 3,3 C 89 % 1026,9 hPa 0,0 l/m 7,2 km/h (2 Bft) O-NO 60 0 min 0,000 mm 0,0 UV-I 10 W/m 1,7 C 2,5 C 12,9 km/h (3 Bft) 96,43 %
25.03.2017 06:02 3,2 C 89 % 1027,0 hPa 0,0 l/m 6,2 km/h (2 Bft) O-NO 65 0 min 0,000 mm 0,0 UV-I 12 W/m 1,6 C 3,2 C 9,7 km/h (2 Bft) 94,29 %
25.03.2017 06:04 3,2 C 89 % 1027,0 hPa 0,0 l/m 6,3 km/h (2 Bft) N 360 0 min 0,000 mm 0,0 UV-I 14 W/m 1,6 C 3,2 C 8,0 km/h (2 Bft) 96,43 %
25.03.2017 06:06 3,2 C 89 % 1027,1 hPa 0,0 l/m 6,4 km/h (2 Bft) N-NO 29 0 min 0,000 mm 0,0 UV-I 18 W/m 1,6 C 3,2 C 9,7 km/h (2 Bft) 97,37 %
25.03.2017 06:08 3,2 C 89 % 1027,1 hPa 0,0 l/m 7,4 km/h (2 Bft) O-NO 59 2 min 0,000 mm 0,0 UV-I 21 W/m 1,6 C 2,3 C 11,3 km/h (2 Bft) 95,56 %
25.03.2017 06:10 3,2 C 89 % 1027,1 hPa 0,0 l/m 7,4 km/h (2 Bft) NO 42 2 min 0,000 mm 0,0 UV-I 24 W/m 1,6 C 2,3 C 11,3 km/h (2 Bft) 98,21 %
25.03.2017 06:12 3,2 C 89 % 1027,1 hPa 0,0 l/m 8,0 km/h (2 Bft) O-NO 72 2 min 0,000 mm 0,0 UV-I 29 W/m 1,6 C 1,7 C 12,9 km/h (3 Bft) 96,00 %
25.03.2017 06:14 3,2 C 89 % 1027,1 hPa 0,0 l/m 7,6 km/h (2 Bft) NO 43 2 min 0,000 mm 0,0 UV-I 35 W/m 1,6 C 2,1 C 14,5 km/h (3 Bft) 94,74 %
25.03.2017 06:16 3,2 C 89 % 1027,1 hPa 0,0 l/m 8,6 km/h (2 Bft) O-NO 59 2 min 0,000 mm 0,0 UV-I 40 W/m 1,6 C 1,2 C 12,9 km/h (3 Bft) 92,86 %
25.03.2017 06:18 3,2 C 89 % 1027,1 hPa 0,0 l/m 8,4 km/h (2 Bft) NO 54 2 min 0,000 mm 0,0 UV-I 45 W/m 1,6 C 1,4 C 12,9 km/h (3 Bft) 100,00 %
25.03.2017 06:20 3,2 C 89 % 1027,1 hPa 0,0 l/m 9,4 km/h (2 Bft) O-NO 65 2 min 0,000 mm 0,0 UV-I 49 W/m 1,6 C 0,5 C 16,1 km/h (3 Bft) 98,00 %
25.03.2017 06:22 3,2 C 89 % 1027,1 hPa 0,0 l/m 9,6 km/h (2 Bft) O-NO 73 2 min 0,000 mm 0,0 UV-I 51 W/m 1,6 C 0,4 C 14,5 km/h (3 Bft) 97,44 %
25.03.2017 06:24 3,3 C 89 % 1027,1 hPa 0,0 l/m 8,3 km/h (2 Bft) O-NO 61 2 min 0,000 mm 0,0 UV-I 54 W/m 1,7 C 1,6 C 12,9 km/h (3 Bft) 100,00 %
25.03.2017 06:26 3,3 C 89 % 1027,1 hPa 0,0 l/m 9,1 km/h (2 Bft) O-NO 71 2 min 0,000 mm 0,0 UV-I 58 W/m 1,7 C 0,9 C 12,9 km/h (3 Bft) 98,00 %
25.03.2017 06:28 3,2 C 89 % 1027,1 hPa 0,0 l/m 7,2 km/h (2 Bft) N-NO 33 2 min 0,000 mm 0,0 UV-I 66 W/m 1,6 C 2,4 C 11,3 km/h (2 Bft) 98,00 %
25.03.2017 06:30 3,2 C 89 % 1027,1 hPa 0,0 l/m 10,0 km/h (2 Bft) O-NO 63 2 min 0,000 mm 0,0 UV-I 70 W/m 1,6 C 0,1 C 16,1 km/h (3 Bft) 100,00 %
25.03.2017 06:32 3,3 C 89 % 1027,1 hPa 0,0 l/m 8,1 km/h (2 Bft) NO 51 2 min 0,000 mm 0,0 UV-I 75 W/m 1,7 C 1,7 C 12,9 km/h (3 Bft) 98,11 %
25.03.2017 06:34 3,3 C 89 % 1027,1 hPa 0,0 l/m 7,3 km/h (2 Bft) O-NO 59 2 min 0,000 mm 0,0 UV-I 80 W/m 1,7 C 2,5 C 9,7 km/h (2 Bft) 100,00 %
25.03.2017 06:36 3,3 C 89 % 1027,2 hPa 0,0 l/m 10,2 km/h (2 Bft) O-NO 61 2 min 0,000 mm 0,0 UV-I 88 W/m 1,7 C 0,0 C 16,1 km/h (3 Bft) 97,73 %
25.03.2017 06:38 3,4 C 89 % 1027,2 hPa 0,0 l/m 11,9 km/h (2 Bft) O-NO 64 2 min 0,000 mm 0,0 UV-I 95 W/m 1,8 C -1,0 C 17,7 km/h (3 Bft) 97,87 %
25.03.2017 06:40 3,4 C 89 % 1027,2 hPa 0,0 l/m 10,5 km/h (2 Bft) O-NO 65 2 min 0,000 mm 0,0 UV-I 99 W/m 1,8 C -0,1 C 16,1 km/h (3 Bft) 97,87 %
25.03.2017 06:42 3,4 C 89 % 1027,2 hPa 0,0 l/m 10,4 km/h (2 Bft) O-NO 62 2 min 0,000 mm 0,0 UV-I 102 W/m 1,8 C 0,0 C 17,7 km/h (3 Bft) 98,00 %
25.03.2017 06:44 3,5 C 89 % 1027,3 hPa 0,0 l/m 12,3 km/h (3 Bft) O-NO 60 2 min 0,000 mm 0,0 UV-I 106 W/m 1,9 C -1,2 C 17,7 km/h (3 Bft) 100,00 %
25.03.2017 06:46 3,6 C 89 % 1027,3 hPa 0,0 l/m 8,9 km/h (2 Bft) O-NO 65 2 min 0,000 mm 0,0 UV-I 111 W/m 2,0 C 1,4 C 14,5 km/h (3 Bft) 100,00 %
25.03.2017 06:48 3,6 C 89 % 1027,2 hPa 0,0 l/m 8,9 km/h (2 Bft) O-NO 64 2 min 0,000 mm 0,0 UV-I 115 W/m 2,0 C 1,4 C 14,5 km/h (3 Bft) 96,23 %
25.03.2017 06:50 3,6 C 89 % 1027,1 hPa 0,0 l/m 10,4 km/h (2 Bft) NO 51 2 min 0,000 mm 0,0 UV-I 120 W/m 2,0 C 0,2 C 14,5 km/h (3 Bft) 100,00 %
25.03.2017 06:52 3,6 C 88 % 1027,1 hPa 0,0 l/m 9,8 km/h (2 Bft) NO 56 2 min 0,000 mm 0,0 UV-I 127 W/m 1,8 C 0,7 C 12,9 km/h (3 Bft) 100,00 %
25.03.2017 06:54 3,7 C 88 % 1027,1 hPa 0,0 l/m 7,4 km/h (2 Bft) O-NO 66 2 min 0,000 mm 0,0 UV-I 133 W/m 1,9 C 2,8 C 9,7 km/h (2 Bft) 100,00 %
25.03.2017 06:56 3,7 C 89 % 1027,1 hPa 0,0 l/m 8,0 km/h (2 Bft) O-NO 69 2 min 0,000 mm 0,0 UV-I 138 W/m 2,1 C 2,2 C 12,9 km/h (3 Bft) 100,00 %
25.03.2017 06:58 3,7 C 89 % 1027,1 hPa 0,0 l/m 8,4 km/h (2 Bft) NO 41 2 min 0,000 mm 0,0 UV-I 144 W/m 2,1 C 1,9 C 17,7 km/h (3 Bft) 97,62 %
25.03.2017 07:00 3,8 C 89 % 1027,1 hPa 0,0 l/m 9,1 km/h (2 Bft) O-NO 61 2 min 0,000 mm 0,0 UV-I 153 W/m 2,2 C 1,4 C 16,1 km/h (3 Bft) 97,73 %
25.03.2017 07:02 3,8 C 88 % 1027,1 hPa 0,0 l/m 6,8 km/h (2 Bft) NO 45 2 min 0,025 mm 0,0 UV-I 161 W/m 2,0 C 3,4 C 9,7 km/h (2 Bft) 100,00 %
25.03.2017 07:04 3,8 C 88 % 1027,1 hPa 0,0 l/m 8,2 km/h (2 Bft) N-NO 31 2 min 0,000 mm 0,0 UV-I 167 W/m 2,0 C 2,2 C 17,7 km/h (3 Bft) 100,00 %
25.03.2017 07:06 3,9 C 88 % 1027,1 hPa 0,0 l/m 10,2 km/h (2 Bft) O-NO 67 2 min 0,000 mm 0,0 UV-I 177 W/m 2,1 C 0,7 C 16,1 km/h (3 Bft) 96,23 %
25.03.2017 07:08 3,9 C 88 % 1027,1 hPa 0,0 l/m 9,9 km/h (2 Bft) O-NO 63 2 min 0,000 mm 0,0 UV-I 176 W/m 2,1 C 0,9 C 16,1 km/h (3 Bft) 94,00 %
25.03.2017 07:10 4,0 C 88 % 1027,1 hPa 0,0 l/m 11,5 km/h (2 Bft) O-NO 63 2 min 0,000 mm 0,0 UV-I 193 W/m 2,2 C -0,1 C 17,7 km/h (3 Bft) 94,29 %
25.03.2017 07:12 4,1 C 87 % 1027,1 hPa 0,0 l/m 11,5 km/h (2 Bft) O-NO 72 2 min 0,000 mm 0,0 UV-I 194 W/m 2,1 C 0,0 C 19,3 km/h (3 Bft) 97,56 %
25.03.2017 07:14 4,1 C 87 % 1027,0 hPa 0,0 l/m 13,6 km/h (3 Bft) NO 47 2 min 0,000 mm 0,0 UV-I 199 W/m 2,1 C -1,2 C 19,3 km/h (3 Bft) 98,31 %
25.03.2017 07:16 4,1 C 87 % 1027,1 hPa 0,0 l/m 13,0 km/h (3 Bft) N-NO 22 2 min 0,000 mm 0,0 UV-I 193 W/m 2,1 C -0,9 C 20,9 km/h (4 Bft) 98,11 %
25.03.2017 07:18 4,2 C 87 % 1027,1 hPa 0,0 l/m 16,3 km/h (3 Bft) O-NO 58 2 min 0,000 mm 0,0 UV-I 193 W/m 2,2 C -2,6 C 22,5 km/h (4 Bft) 100,00 %
25.03.2017 07:20 4,2 C 87 % 1027,1 hPa 0,0 l/m 14,4 km/h (3 Bft) NO 46 2 min 0,000 mm 0,0 UV-I 189 W/m 2,2 C -1,6 C 19,3 km/h (3 Bft) 94,00 %
25.03.2017 07:22 4,2 C 86 % 1027,1 hPa 0,0 l/m 12,4 km/h (3 Bft) O-NO 63 2 min 0,000 mm 0,0 UV-I 190 W/m 2,1 C -0,4 C 19,3 km/h (3 Bft) 97,37 %
25.03.2017 07:24 4,3 C 86 % 1027,1 hPa 0,0 l/m 13,4 km/h (3 Bft) O-NO 60 2 min 0,000 mm 0,0 UV-I 196 W/m 2,2 C -0,9 C 19,3 km/h (3 Bft) 95,74 %
25.03.2017 07:26 4,3 C 86 % 1027,2 hPa 0,0 l/m 15,8 km/h (3 Bft) O-NO 76 2 min 0,000 mm 0,0 UV-I 211 W/m 2,2 C -2,2 C 20,9 km/h (4 Bft) 98,00 %
25.03.2017 07:28 4,4 C 86 % 1027,2 hPa 0,0 l/m 14,6 km/h (3 Bft) O-NO 63 2 min 0,000 mm 0,0 UV-I 226 W/m 2,3 C -1,4 C 24,1 km/h (4 Bft) 96,00 %
25.03.2017 07:30 4,4 C 85 % 1027,2 hPa 0,0 l/m 16,5 km/h (3 Bft) O-NO 67 2 min 0,000 mm 0,0 UV-I 225 W/m 2,1 C -2,4 C 22,5 km/h (4 Bft) 95,12 %
25.03.2017 07:32 4,4 C 85 % 1027,2 hPa 0,0 l/m 17,2 km/h (3 Bft) O-NO 65 2 min 0,000 mm 0,0 UV-I 213 W/m 2,1 C -2,7 C 24,1 km/h (4 Bft) 97,73 %
25.03.2017 07:34 4,4 C 85 % 1027,1 hPa 0,0 l/m 18,7 km/h (3 Bft) O-NO 63 2 min 0,000 mm 0,0 UV-I 227 W/m 2,1 C -3,4 C 25,7 km/h (4 Bft) 96,43 %
25.03.2017 07:36 4,4 C 85 % 1027,1 hPa 0,0 l/m 18,2 km/h (3 Bft) NO 43 2 min 0,000 mm 0,0 UV-I 239 W/m 2,1 C -3,2 C 22,5 km/h (4 Bft) 92,68 %
25.03.2017 07:38 4,4 C 85 % 1027,1 hPa 0,0 l/m 16,8 km/h (3 Bft) NO 42 2 min 0,000 mm 0,0 UV-I 246 W/m 2,1 C -2,5 C 25,7 km/h (4 Bft) 96,23 %
25.03.2017 07:40 4,5 C 85 % 1027,1 hPa 0,0 l/m 18,2 km/h (3 Bft) O-NO 73 2 min 0,000 mm 0,0 UV-I 264 W/m 2,2 C -3,1 C 22,5 km/h (4 Bft) 95,74 %
25.03.2017 07:42 4,6 C 85 % 1027,2 hPa 0,0 l/m 18,3 km/h (3 Bft) O-NO 72 2 min 0,000 mm 0,0 UV-I 267 W/m 2,3 C -3,0 C 25,7 km/h (4 Bft) 97,73 %
25.03.2017 07:44 4,7 C 85 % 1027,2 hPa 0,0 l/m 15,5 km/h (3 Bft) O-NO 65 2 min 0,000 mm 0,0 UV-I 264 W/m 2,4 C -1,5 C 20,9 km/h (4 Bft) 95,56 %
25.03.2017 07:46 4,7 C 85 % 1027,2 hPa 0,0 l/m 13,2 km/h (3 Bft) NO 54 2 min 0,000 mm 0,0 UV-I 265 W/m 2,4 C -0,3 C 16,1 km/h (3 Bft) 97,73 %
25.03.2017 07:48 4,7 C 84 % 1027,2 hPa 0,0 l/m 16,8 km/h (3 Bft) NO 47 2 min 0,000 mm 0,0 UV-I 282 W/m 2,2 C -2,2 C 22,5 km/h (4 Bft) 95,45 %
25.03.2017 07:50 4,8 C 84 % 1027,2 hPa 0,0 l/m 14,0 km/h (3 Bft) NO 47 2 min 0,000 mm 0,0 UV-I 286 W/m 2,3 C -0,6 C 24,1 km/h (4 Bft) 96,43 %
25.03.2017 07:52 4,8 C 84 % 1027,2 hPa 0,0 l/m 15,9 km/h (3 Bft) NO 47 2 min 0,000 mm 0,0 UV-I 289 W/m 2,3 C -1,6 C 22,5 km/h (4 Bft) 98,00 %
25.03.2017 07:54 4,9 C 84 % 1027,2 hPa 0,0 l/m 19,1 km/h (3 Bft) NO 45 2 min 0,000 mm 0,0 UV-I 293 W/m 2,4 C -2,9 C 22,5 km/h (4 Bft) 100,00 %
25.03.2017 07:56 4,9 C 83 % 1027,2 hPa 0,0 l/m 18,6 km/h (3 Bft) O-NO 62 2 min 0,000 mm 0,0 UV-I 296 W/m 2,3 C -2,7 C 24,1 km/h (4 Bft) 95,77 %
25.03.2017 07:58 4,9 C 84 % 1027,2 hPa 0,0 l/m 12,6 km/h (3 Bft) NO 53 2 min 0,000 mm 0,1 UV-I 303 W/m 2,4 C 0,3 C 19,3 km/h (3 Bft) 100,00 %
25.03.2017 08:00 5,1 C 84 % 1027,2 hPa 0,0 l/m 13,1 km/h (3 Bft) O-NO 57 2 min 0,102 mm 0,5 UV-I 309 W/m 2,6 C 0,2 C 19,3 km/h (3 Bft) 96,61 %
25.03.2017 08:02 5,2 C 83 % 1027,2 hPa 0,0 l/m 15,0 km/h (3 Bft) O-NO 65 2 min 0,000 mm 0,5 UV-I 312 W/m 2,6 C -0,7 C 19,3 km/h (3 Bft) 97,56 %
25.03.2017 08:04 5,2 C 82 % 1027,2 hPa 0,0 l/m 18,3 km/h (3 Bft) NO 46 2 min 0,000 mm 0,5 UV-I 307 W/m 2,4 C -2,2 C 25,7 km/h (4 Bft) 97,73 %
25.03.2017 08:06 5,3 C 82 % 1027,3 hPa 0,0 l/m 18,9 km/h (3 Bft) O 79 2 min 0,000 mm 0,5 UV-I 322 W/m 2,5 C -2,3 C 29,0 km/h (5 Bft) 100,00 %
25.03.2017 08:08 5,3 C 81 % 1027,3 hPa 0,0 l/m 20,2 km/h (4 Bft) NO 52 2 min 0,000 mm 0,5 UV-I 333 W/m 2,3 C -2,9 C 25,7 km/h (4 Bft) 100,00 %
25.03.2017 08:10 5,3 C 81 % 1027,4 hPa 0,0 l/m 21,1 km/h (4 Bft) NO 39 2 min 0,000 mm 0,5 UV-I 327 W/m 2,3 C -3,2 C 27,4 km/h (4 Bft) 100,00 %
25.03.2017 08:12 5,3 C 81 % 1027,4 hPa 0,0 l/m 22,1 km/h (4 Bft) O-NO 58 2 min 0,000 mm 0,6 UV-I 333 W/m 2,3 C -3,6 C 30,6 km/h (5 Bft) 100,00 %
25.03.2017 08:14 5,3 C 81 % 1027,4 hPa 0,0 l/m 20,6 km/h (4 Bft) O-NO 76 2 min 0,000 mm 0,6 UV-I 345 W/m 2,3 C -3,0 C 27,4 km/h (4 Bft) 100,00 %
25.03.2017 08:16 5,3 C 81 % 1027,4 hPa 0,0 l/m 18,7 km/h (3 Bft) O-NO 61 2 min 0,000 mm 0,6 UV-I 352 W/m 2,3 C -2,3 C 27,4 km/h (4 Bft) 100,00 %
25.03.2017 08:18 5,4 C 81 % 1027,4 hPa 0,0 l/m 18,8 km/h (3 Bft) O-NO 73 2 min 0,000 mm 0,6 UV-I 355 W/m 2,4 C -2,2 C 25,7 km/h (4 Bft) 100,00 %
25.03.2017 08:20 5,5 C 81 % 1027,4 hPa 0,0 l/m 18,4 km/h (3 Bft) NO 51 2 min 0,000 mm 0,6 UV-I 361 W/m 2,5 C -1,9 C 24,1 km/h (4 Bft) 97,22 %
25.03.2017 08:22 5,6 C 81 % 1027,3 hPa 0,0 l/m 19,8 km/h (3 Bft) NO 52 2 min 0,000 mm 0,6 UV-I 366 W/m 2,6 C -2,3 C 32,2 km/h (5 Bft) 98,11 %
25.03.2017 08:24 5,6 C 81 % 1027,3 hPa 0,0 l/m 22,8 km/h (4 Bft) NO 43 2 min 0,000 mm 0,7 UV-I 371 W/m 2,6 C -3,4 C 30,6 km/h (5 Bft) 100,00 %
25.03.2017 08:26 5,7 C 80 % 1027,3 hPa 0,0 l/m 22,6 km/h (4 Bft) NO 52 2 min 0,000 mm 0,7 UV-I 368 W/m 2,5 C -3,2 C 30,6 km/h (5 Bft) 100,00 %
25.03.2017 08:28 5,7 C 80 % 1027,2 hPa 0,0 l/m 21,5 km/h (4 Bft) O-NO 71 2 min 0,000 mm 0,7 UV-I 373 W/m 2,5 C -2,8 C 29,0 km/h (5 Bft) 97,56 %
25.03.2017 08:30 5,8 C 80 % 1027,1 hPa 0,0 l/m 15,4 km/h (3 Bft) O-NO 66 2 min 0,000 mm 0,7 UV-I 385 W/m 2,6 C -0,2 C 19,3 km/h (3 Bft) 100,00 %
25.03.2017 08:32 5,9 C 81 % 1027,2 hPa 0,0 l/m 17,3 km/h (3 Bft) O-NO 59 2 min 0,000 mm 0,7 UV-I 384 W/m 2,9 C -0,9 C 24,1 km/h (4 Bft) 100,00 %
25.03.2017 08:34 6,0 C 80 % 1027,1 hPa 0,0 l/m 20,7 km/h (4 Bft) O-NO 70 2 min 0,000 mm 0,8 UV-I 395 W/m 2,8 C -2,1 C 30,6 km/h (5 Bft) 93,62 %
25.03.2017 08:36 6,1 C 79 % 1027,1 hPa 0,0 l/m 25,4 km/h (4 Bft) NO 52 2 min 0,000 mm 0,8 UV-I 407 W/m 2,7 C -3,6 C 32,2 km/h (5 Bft) 96,00 %
25.03.2017 08:38 6,1 C 78 % 1027,1 hPa 0,0 l/m 25,8 km/h (4 Bft) NO 53 2 min 0,000 mm 0,8 UV-I 414 W/m 2,6 C -3,7 C 38,6 km/h (5 Bft) 100,00 %
25.03.2017 08:40 6,1 C 79 % 1027,1 hPa 0,0 l/m 20,1 km/h (4 Bft) NO 46 2 min 0,000 mm 0,8 UV-I 426 W/m 2,7 C -1,8 C 30,6 km/h (5 Bft) 96,00 %
25.03.2017 08:42 6,2 C 79 % 1027,0 hPa 0,0 l/m 19,4 km/h (3 Bft) O-NO 66 2 min 0,000 mm 0,9 UV-I 431 W/m 2,8 C -1,4 C 27,4 km/h (4 Bft) 100,00 %
25.03.2017 08:44 6,2 C 78 % 1026,9 hPa 0,0 l/m 20,7 km/h (4 Bft) NO 44 2 min 0,000 mm 0,9 UV-I 435 W/m 2,7 C -1,9 C 30,6 km/h (5 Bft) 100,00 %
25.03.2017 08:46 6,3 C 79 % 1026,9 hPa 0,0 l/m 21,3 km/h (4 Bft) NO 50 2 min 0,000 mm 0,9 UV-I 435 W/m 2,9 C -2,0 C 29,0 km/h (5 Bft) 97,87 %
25.03.2017 08:48 6,4 C 78 % 1026,9 hPa 0,0 l/m 18,7 km/h (3 Bft) O-NO 58 2 min 0,000 mm 0,9 UV-I 421 W/m 2,8 C -0,9 C 29,0 km/h (5 Bft) 97,37 %
25.03.2017 08:50 6,4 C 78 % 1026,9 hPa 0,0 l/m 24,8 km/h (4 Bft) O-NO 67 2 min 0,000 mm 0,9 UV-I 434 W/m 2,8 C -3,0 C 32,2 km/h (5 Bft) 100,00 %
25.03.2017 08:52 6,4 C 77 % 1026,9 hPa 0,0 l/m 21,6 km/h (4 Bft) NO 52 2 min 0,000 mm 0,9 UV-I 447 W/m 2,7 C -1,9 C 32,2 km/h (5 Bft) 98,00 %
25.03.2017 08:54 6,5 C 77 % 1026,9 hPa 0,0 l/m 20,9 km/h (4 Bft) O-NO 67 2 min 0,000 mm 1,0 UV-I 453 W/m 2,8 C -1,6 C 27,4 km/h (4 Bft) 95,45 %
25.03.2017 08:56 6,5 C 77 % 1026,8 hPa 0,0 l/m 21,7 km/h (4 Bft) O-NO 76 2 min 0,000 mm 1,0 UV-I 454 W/m 2,8 C -1,8 C 27,4 km/h (4 Bft) 95,45 %
25.03.2017 08:58 6,6 C 77 % 1026,9 hPa 0,0 l/m 21,2 km/h (4 Bft) O-NO 62 2 min 0,000 mm 1,0 UV-I 464 W/m 2,9 C -1,5 C 29,0 km/h (5 Bft) 98,11 %
25.03.2017 09:00 6,7 C 78 % 1026,9 hPa 0,0 l/m 19,8 km/h (3 Bft) O-NO 69 2 min 0,203 mm 1,0 UV-I 472 W/m 3,1 C -0,9 C 30,6 km/h (5 Bft) 98,00 %
25.03.2017 09:02 6,8 C 76 % 1026,9 hPa 0,0 l/m 24,5 km/h (4 Bft) NO 49 2 min 0,000 mm 1,1 UV-I 474 W/m 2,9 C -2,4 C 33,8 km/h (5 Bft) 93,62 %
25.03.2017 09:04 6,8 C 76 % 1026,9 hPa 0,0 l/m 25,6 km/h (4 Bft) O 90 2 min 0,000 mm 1,1 UV-I 480 W/m 2,9 C -2,7 C 37,0 km/h (5 Bft) 100,00 %
25.03.2017 09:06 6,9 C 76 % 1026,9 hPa 0,0 l/m 23,2 km/h (4 Bft) NO 54 2 min 0,000 mm 1,1 UV-I 487 W/m 3,0 C -1,8 C 32,2 km/h (5 Bft) 92,31 %
25.03.2017 09:08 6,9 C 75 % 1026,9 hPa 0,0 l/m 25,4 km/h (4 Bft) O-NO 70 2 min 0,000 mm 1,1 UV-I 483 W/m 2,8 C -2,5 C 35,4 km/h (5 Bft) 96,72 %
25.03.2017 09:10 7,0 C 75 % 1026,9 hPa 0,0 l/m 23,4 km/h (4 Bft) NO 52 2 min 0,000 mm 1,1 UV-I 494 W/m 2,9 C -1,7 C 30,6 km/h (5 Bft) 97,62 %
25.03.2017 09:13 7,2 C 76 % 1026,9 hPa 0,0 l/m 21,3 km/h (4 Bft) NO 48 3 min 0,000 mm 1,2 UV-I 508 W/m 3,3 C -0,8 C 29,0 km/h (5 Bft) 92,86 %
25.03.2017 09:14 7,2 C 75 % 1026,9 hPa 0,0 l/m 28,8 km/h (4 Bft) NO 46 1 min 0,000 mm 1,2 UV-I 498 W/m 3,1 C -3,0 C 33,8 km/h (5 Bft) 96,30 %
25.03.2017 09:16 7,2 C 74 % 1026,8 hPa 0,0 l/m 23,1 km/h (4 Bft) NO 56 2 min 0,000 mm 1,2 UV-I 501 W/m 2,9 C -1,4 C 30,6 km/h (5 Bft) 94,29 %
25.03.2017 09:18 7,2 C 74 % 1026,9 hPa 0,0 l/m 28,3 km/h (4 Bft) O 79 2 min 0,000 mm 1,2 UV-I 501 W/m 2,9 C -2,9 C 41,8 km/h (6 Bft) 92,45 %
25.03.2017 09:20 7,2 C 73 % 1027,0 hPa 0,0 l/m 28,6 km/h (4 Bft) O-NO 67 2 min 0,000 mm 1,3 UV-I 518 W/m 2,7 C -2,9 C 35,4 km/h (5 Bft) 90,91 %
25.03.2017 09:22 7,2 C 73 % 1027,0 hPa 0,0 l/m 27,0 km/h (4 Bft) O-NO 72 2 min 0,000 mm 1,3 UV-I 516 W/m 2,7 C -2,5 C 37,0 km/h (5 Bft) 90,57 %
25.03.2017 09:24 7,2 C 72 % 1027,0 hPa 0,0 l/m 24,9 km/h (4 Bft) O-NO 64 2 min 0,000 mm 1,3 UV-I 517 W/m 2,5 C -1,9 C 35,4 km/h (5 Bft) 95,45 %
25.03.2017 09:26 7,3 C 74 % 1027,0 hPa 0,0 l/m 25,4 km/h (4 Bft) O-NO 71 2 min 0,000 mm 1,3 UV-I 523 W/m 3,0 C -1,9 C 40,2 km/h (6 Bft) 93,18 %
25.03.2017 09:28 7,3 C 73 % 1026,9 hPa 0,0 l/m 26,2 km/h (4 Bft) NO 55 2 min 0,000 mm 1,3 UV-I 526 W/m 2,8 C -2,2 C 35,4 km/h (5 Bft) 88,00 %
25.03.2017 09:30 7,4 C 74 % 1026,8 hPa 0,0 l/m 19,5 km/h (3 Bft) O-NO 63 2 min 0,000 mm 1,4 UV-I 534 W/m 3,1 C 0,1 C 29,0 km/h (5 Bft) 94,34 %
25.03.2017 09:32 7,5 C 74 % 1026,8 hPa 0,0 l/m 24,6 km/h (4 Bft) NO 55 2 min 0,000 mm 1,4 UV-I 534 W/m 3,2 C -1,4 C 33,8 km/h (5 Bft) 92,11 %
25.03.2017 09:34 7,6 C 73 % 1026,8 hPa 0,0 l/m 20,1 km/h (4 Bft) O 83 2 min 0,000 mm 1,4 UV-I 538 W/m 3,1 C 0,2 C 29,0 km/h (5 Bft) 94,34 %
25.03.2017 09:36 7,6 C 73 % 1026,8 hPa 0,0 l/m 20,8 km/h (4 Bft) NO 54 2 min 0,000 mm 1,4 UV-I 530 W/m 3,1 C -0,1 C 27,4 km/h (4 Bft) 93,18 %
25.03.2017 09:39 7,7 C 71 % 1026,8 hPa 0,0 l/m 27,7 km/h (4 Bft) O-NO 62 3 min 0,000 mm 1,4 UV-I 530 W/m 2,8 C -2,0 C 40,2 km/h (6 Bft) 95,59 %
25.03.2017 09:40 7,7 C 71 % 1026,8 hPa 0,0 l/m 29,3 km/h (5 Bft) NO 48 1 min 0,000 mm 1,4 UV-I 546 W/m 2,8 C -2,4 C 35,4 km/h (5 Bft) 96,15 %
25.03.2017 09:42 7,6 C 70 % 1026,9 hPa 0,0 l/m 29,2 km/h (5 Bft) O-NO 68 2 min 0,000 mm 1,5 UV-I 543 W/m 2,5 C -2,5 C 40,2 km/h (6 Bft) 94,00 %
25.03.2017 09:44 7,6 C 72 % 1026,8 hPa 0,0 l/m 25,1 km/h (4 Bft) O-NO 76 2 min 0,000 mm 1,5 UV-I 544 W/m 2,9 C -1,4 C 33,8 km/h (5 Bft) 95,24 %
25.03.2017 09:46 7,6 C 71 % 1026,8 hPa 0,0 l/m 28,2 km/h (4 Bft) O-NO 65 2 min 0,000 mm 1,5 UV-I 560 W/m 2,7 C -2,3 C 38,6 km/h (5 Bft) 96,00 %
25.03.2017 09:48 7,6 C 71 % 1026,9 hPa 0,0 l/m 26,1 km/h (4 Bft) O-NO 69 2 min 0,000 mm 1,5 UV-I 559 W/m 2,7 C -1,7 C 35,4 km/h (5 Bft) 85,71 %
25.03.2017 09:50 7,6 C 72 % 1026,9 hPa 0,0 l/m 25,7 km/h (4 Bft) NO 39 2 min 0,000 mm 1,6 UV-I 572 W/m 2,9 C -1,6 C 37,0 km/h (5 Bft) 95,56 %
25.03.2017 09:52 7,6 C 72 % 1026,9 hPa 0,0 l/m 22,7 km/h (4 Bft) O-NO 72 2 min 0,000 mm 1,6 UV-I 573 W/m 2,9 C -0,7 C 30,6 km/h (5 Bft) 98,00 %
25.03.2017 09:54 7,7 C 73 % 1026,8 hPa 0,0 l/m 23,0 km/h (4 Bft) O-NO 76 2 min 0,000 mm 1,6 UV-I 582 W/m 3,2 C -0,7 C 29,0 km/h (5 Bft) 95,12 %
25.03.2017 09:56 7,7 C 73 % 1026,8 hPa 0,0 l/m 19,4 km/h (3 Bft) NO 48 2 min 0,000 mm 1,6 UV-I 588 W/m 3,2 C 0,5 C 29,0 km/h (5 Bft) 94,34 %
25.03.2017 09:58 7,8 C 72 % 1026,8 hPa 0,0 l/m 25,3 km/h (4 Bft) O-NO 74 2 min 0,000 mm 1,7 UV-I 589 W/m 3,1 C -1,2 C 33,8 km/h (5 Bft) 97,87 %
25.03.2017 10:00 7,8 C 72 % 1026,8 hPa 0,0 l/m 23,4 km/h (4 Bft) O-NO 58 2 min 0,280 mm 1,7 UV-I 596 W/m 3,1 C -0,7 C 32,2 km/h (5 Bft) 91,49 %
25.03.2017 10:02 7,9 C 72 % 1026,9 hPa 0,0 l/m 23,3 km/h (4 Bft) O-NO 77 2 min 0,000 mm 1,7 UV-I 603 W/m 3,2 C -0,5 C 30,6 km/h (5 Bft) 81,25 %
25.03.2017 10:04 7,9 C 71 % 1026,8 hPa 0,0 l/m 26,3 km/h (4 Bft) O-NO 76 2 min 0,000 mm 1,7 UV-I 608 W/m 3,0 C -1,4 C 37,0 km/h (5 Bft) 92,96 %
25.03.2017 10:06 7,9 C 70 % 1026,8 hPa 0,0 l/m 25,6 km/h (4 Bft) O-NO 69 2 min 0,000 mm 1,7 UV-I 605 W/m 2,8 C -1,2 C 32,2 km/h (5 Bft) 98,00 %
25.03.2017 10:08 7,9 C 70 % 1026,8 hPa 0,0 l/m 28,6 km/h (4 Bft) NO 46 2 min 0,000 mm 1,8 UV-I 610 W/m 2,8 C -2,0 C 35,4 km/h (5 Bft) 95,45 %
25.03.2017 10:10 7,9 C 71 % 1026,8 hPa 0,0 l/m 25,9 km/h (4 Bft) O-NO 57 2 min 0,000 mm 1,8 UV-I 613 W/m 3,0 C -1,3 C 35,4 km/h (5 Bft) 88,64 %
25.03.2017 10:12 7,9 C 71 % 1026,8 hPa 0,0 l/m 24,0 km/h (4 Bft) O-NO 58 2 min 0,000 mm 1,8 UV-I 619 W/m 3,0 C -0,7 C 33,8 km/h (5 Bft) 94,64 %
25.03.2017 10:14 7,9 C 71 % 1026,8 hPa 0,0 l/m 23,4 km/h (4 Bft) N-NO 29 2 min 0,000 mm 1,8 UV-I 628 W/m 3,0 C -0,5 C 32,2 km/h (5 Bft) 97,56 %
25.03.2017 10:16 8,1 C 71 % 1026,7 hPa 0,0 l/m 23,1 km/h (4 Bft) O 79 2 min 0,000 mm 1,9 UV-I 638 W/m 3,2 C -0,2 C 30,6 km/h (5 Bft) 95,74 %
25.03.2017 10:18 8,2 C 71 % 1026,7 hPa 0,0 l/m 21,8 km/h (4 Bft) O-NO 61 2 min 0,000 mm 1,9 UV-I 641 W/m 3,3 C 0,4 C 32,2 km/h (5 Bft) 91,49 %
25.03.2017 10:20 8,2 C 71 % 1026,7 hPa 0,0 l/m 20,7 km/h (4 Bft) O 83 2 min 0,000 mm 1,9 UV-I 642 W/m 3,3 C 0,7 C 27,4 km/h (4 Bft) 95,45 %
25.03.2017 10:22 8,3 C 71 % 1026,7 hPa 0,0 l/m 22,1 km/h (4 Bft) O-NO 60 2 min 0,000 mm 1,9 UV-I 647 W/m 3,4 C 0,4 C 33,8 km/h (5 Bft) 92,45 %
25.03.2017 10:24 8,3 C 70 % 1026,7 hPa 0,0 l/m 24,3 km/h (4 Bft) O-NO 78 2 min 0,000 mm 2,0 UV-I 651 W/m 3,2 C -0,3 C 33,8 km/h (5 Bft) 88,10 %
25.03.2017 10:26 8,4 C 72 % 1026,6 hPa 0,0 l/m 21,3 km/h (4 Bft) O-NO 64 2 min 0,000 mm 2,0 UV-I 652 W/m 3,7 C 0,8 C 27,4 km/h (4 Bft) 94,74 %
25.03.2017 10:28 8,4 C 69 % 1026,5 hPa 0,0 l/m 26,6 km/h (4 Bft) O 89 2 min 0,000 mm 2,0 UV-I 657 W/m 3,0 C -0,8 C 35,4 km/h (5 Bft) 98,36 %
25.03.2017 10:30 8,4 C 69 % 1026,6 hPa 0,0 l/m 25,6 km/h (4 Bft) O-NO 69 2 min 0,000 mm 2,0 UV-I 655 W/m 3,0 C -0,5 C 35,4 km/h (5 Bft) 97,44 %
25.03.2017 10:32 8,4 C 67 % 1026,5 hPa 0,0 l/m 29,1 km/h (5 Bft) O-NO 59 2 min 0,000 mm 2,0 UV-I 660 W/m 2,6 C -1,4 C 38,6 km/h (5 Bft) 98,00 %
25.03.2017 10:34 8,4 C 68 % 1026,5 hPa 0,0 l/m 25,1 km/h (4 Bft) NO 53 2 min 0,000 mm 2,1 UV-I 665 W/m 2,8 C -0,4 C 32,2 km/h (5 Bft) 97,56 %
25.03.2017 10:36 8,4 C 70 % 1026,5 hPa 0,0 l/m 24,3 km/h (4 Bft) O-NO 62 2 min 0,000 mm 2,1 UV-I 659 W/m 3,3 C -0,1 C 32,2 km/h (5 Bft) 94,64 %
25.03.2017 10:38 8,4 C 70 % 1026,5 hPa 0,0 l/m 19,2 km/h (3 Bft) O-NO 66 2 min 0,000 mm 2,1 UV-I 667 W/m 3,3 C 1,5 C 25,7 km/h (4 Bft) 94,74 %
25.03.2017 10:40 8,6 C 71 % 1026,4 hPa 0,0 l/m 24,1 km/h (4 Bft) O-NO 67 2 min 0,000 mm 2,1 UV-I 669 W/m 3,6 C 0,2 C 35,4 km/h (5 Bft) 98,21 %
25.03.2017 10:42 8,6 C 68 % 1026,4 hPa 0,0 l/m 24,4 km/h (4 Bft) O-NO 77 2 min 0,000 mm 2,1 UV-I 675 W/m 3,0 C 0,1 C 37,0 km/h (5 Bft) 95,12 %
25.03.2017 10:44 8,7 C 70 % 1026,4 hPa 0,0 l/m 23,0 km/h (4 Bft) O 80 2 min 0,000 mm 2,1 UV-I 676 W/m 3,5 C 0,6 C 33,8 km/h (5 Bft) 93,62 %
25.03.2017 10:46 8,8 C 69 % 1026,4 hPa 0,0 l/m 23,5 km/h (4 Bft) O 80 2 min 0,000 mm 2,2 UV-I 676 W/m 3,4 C 0,6 C 37,0 km/h (5 Bft) 96,00 %
25.03.2017 10:48 8,9 C 69 % 1026,4 hPa 0,0 l/m 21,7 km/h (4 Bft) O-NO 77 2 min 0,000 mm 2,2 UV-I 678 W/m 3,5 C 1,3 C 32,2 km/h (5 Bft) 90,24 %
25.03.2017 10:50 8,9 C 68 % 1026,4 hPa 0,0 l/m 22,3 km/h (4 Bft) O-NO 65 2 min 0,000 mm 2,2 UV-I 681 W/m 3,3 C 1,1 C 30,6 km/h (5 Bft) 90,00 %
25.03.2017 10:52 8,9 C 69 % 1026,4 hPa 0,0 l/m 24,8 km/h (4 Bft) O-NO 76 2 min 0,000 mm 2,2 UV-I 684 W/m 3,5 C 0,4 C 30,6 km/h (5 Bft) 92,45 %
25.03.2017 10:54 8,9 C 67 % 1026,3 hPa 0,0 l/m 22,7 km/h (4 Bft) O-NO 69 2 min 0,000 mm 2,2 UV-I 687 W/m 3,1 C 1,0 C 30,6 km/h (5 Bft) 86,84 %
25.03.2017 10:56 8,9 C 67 % 1026,3 hPa 0,0 l/m 26,2 km/h (4 Bft) O-NO 63 2 min 0,000 mm 2,2 UV-I 694 W/m 3,1 C 0,0 C 30,6 km/h (5 Bft) 88,00 %
25.03.2017 10:59 8,9 C 68 % 1026,3 hPa 0,0 l/m 20,6 km/h (4 Bft) NO 42 3 min 0,000 mm 2,3 UV-I 703 W/m 3,3 C 1,7 C 27,4 km/h (4 Bft) 95,77 %
25.03.2017 11:00 8,9 C 69 % 1026,3 hPa 0,0 l/m 17,6 km/h (3 Bft) O 82 1 min 0,000 mm 2,3 UV-I 704 W/m 3,5 C 2,7 C 24,1 km/h (4 Bft) 92,31 %
25.03.2017 11:02 9,0 C 68 % 1026,2 hPa 0,0 l/m 21,1 km/h (4 Bft) O 97 2 min 0,355 mm 2,3 UV-I 705 W/m 3,4 C 1,6 C 35,4 km/h (5 Bft) 90,48 %
25.03.2017 11:04 9,2 C 67 % 1026,2 hPa 0,0 l/m 20,3 km/h (4 Bft) O-NO 63 2 min 0,000 mm 2,3 UV-I 709 W/m 3,4 C 2,2 C 35,4 km/h (5 Bft) 90,38 %
25.03.2017 11:06 9,2 C 66 % 1026,2 hPa 0,0 l/m 25,5 km/h (4 Bft) O-NO 69 2 min 0,000 mm 2,3 UV-I 715 W/m 3,2 C 0,6 C 38,6 km/h (5 Bft) 94,87 %
25.03.2017 11:08 9,2 C 67 % 1026,2 hPa 0,0 l/m 20,9 km/h (4 Bft) NO 43 2 min 0,000 mm 2,3 UV-I 717 W/m 3,4 C 2,0 C 30,6 km/h (5 Bft) 95,45 %
25.03.2017 11:10 9,2 C 67 % 1026,2 hPa 0,0 l/m 25,1 km/h (4 Bft) O-NO 59 2 min 0,000 mm 2,4 UV-I 718 W/m 3,4 C 0,7 C 33,8 km/h (5 Bft) 92,86 %
25.03.2017 11:12 9,2 C 66 % 1026,2 hPa 0,0 l/m 21,6 km/h (4 Bft) O-NO 67 2 min 0,000 mm 2,4 UV-I 717 W/m 3,2 C 1,7 C 30,6 km/h (5 Bft) 94,00 %
25.03.2017 11:14 9,3 C 67 % 1026,1 hPa 0,0 l/m 26,0 km/h (4 Bft) O 84 2 min 0,000 mm 2,4 UV-I 720 W/m 3,5 C 0,6 C 35,4 km/h (5 Bft) 93,18 %
25.03.2017 11:16 9,3 C 66 % 1026,0 hPa 0,0 l/m 20,8 km/h (4 Bft) O-NO 65 2 min 0,000 mm 2,4 UV-I 727 W/m 3,3 C 2,1 C 29,0 km/h (5 Bft) 92,68 %
25.03.2017 11:18 9,4 C 67 % 1026,0 hPa 0,0 l/m 21,8 km/h (4 Bft) NO 50 2 min 0,000 mm 2,4 UV-I 722 W/m 3,6 C 1,9 C 32,2 km/h (5 Bft) 92,45 %
25.03.2017 11:20 9,4 C 65 % 1026,0 hPa 0,0 l/m 23,2 km/h (4 Bft) NO 47 2 min 0,000 mm 2,4 UV-I 727 W/m 3,2 C 1,5 C 30,6 km/h (5 Bft) 98,00 %
25.03.2017 11:22 9,4 C 66 % 1026,0 hPa 0,0 l/m 21,2 km/h (4 Bft) NO 38 2 min 0,000 mm 2,4 UV-I 728 W/m 3,4 C 2,1 C 27,4 km/h (4 Bft) 90,91 %
25.03.2017 11:24 9,4 C 66 % 1025,9 hPa 0,0 l/m 19,2 km/h (3 Bft) O-SO 103 2 min 0,000 mm 2,5 UV-I 730 W/m 3,4 C 2,8 C 29,0 km/h (5 Bft) 94,00 %
25.03.2017 11:26 9,5 C 65 % 1025,8 hPa 0,0 l/m 22,2 km/h (4 Bft) O-NO 67 2 min 0,000 mm 2,5 UV-I 735 W/m 3,3 C 1,9 C 32,2 km/h (5 Bft) 97,22 %
25.03.2017 11:28 9,6 C 66 % 1025,8 hPa 0,0 l/m 18,9 km/h (3 Bft) O-NO 59 2 min 0,000 mm 2,5 UV-I 737 W/m 3,6 C 3,1 C 27,4 km/h (4 Bft) 96,23 %
25.03.2017 11:30 9,7 C 65 % 1025,7 hPa 0,0 l/m 22,4 km/h (4 Bft) O 94 2 min 0,000 mm 2,5 UV-I 737 W/m 3,4 C 2,2 C 30,6 km/h (5 Bft) 88,64 %
25.03.2017 11:32 9,8 C 66 % 1025,7 hPa 0,0 l/m 16,0 km/h (3 Bft) NO 52 2 min 0,000 mm 2,5 UV-I 738 W/m 3,8 C 4,5 C 24,1 km/h (4 Bft) 94,00 %
25.03.2017 11:34 9,9 C 66 % 1025,7 hPa 0,0 l/m 24,3 km/h (4 Bft) O-NO 60 2 min 0,000 mm 2,5 UV-I 737 W/m 3,9 C 1,9 C 32,2 km/h (5 Bft) 97,14 %
25.03.2017 11:36 9,8 C 64 % 1025,7 hPa 0,0 l/m 17,3 km/h (3 Bft) O-NO 63 2 min 0,000 mm 2,5 UV-I 740 W/m 3,3 C 4,0 C 24,1 km/h (4 Bft) 93,33 %
25.03.2017 11:38 9,9 C 66 % 1025,8 hPa 0,0 l/m 17,4 km/h (3 Bft) O-NO 67 2 min 0,000 mm 2,5 UV-I 744 W/m 3,9 C 4,1 C 25,7 km/h (4 Bft) 94,55 %
25.03.2017 11:40 10,1 C 64 % 1025,7 hPa 0,0 l/m 18,2 km/h (3 Bft) NO 48 2 min 0,000 mm 2,5 UV-I 744 W/m 3,6 C 4,0 C 24,1 km/h (4 Bft) 90,57 %
25.03.2017 11:42 10,0 C 64 % 1025,7 hPa 0,0 l/m 22,5 km/h (4 Bft) O-NO 58 2 min 0,000 mm 2,5 UV-I 742 W/m 3,5 C 2,5 C 30,6 km/h (5 Bft) 92,00 %
25.03.2017 11:44 9,9 C 63 % 1025,7 hPa 0,0 l/m 17,5 km/h (3 Bft) O 92 2 min 0,000 mm 2,5 UV-I 743 W/m 3,2 C 4,0 C 24,1 km/h (4 Bft) 100,00 %
25.03.2017 11:46 10,0 C 64 % 1025,6 hPa 0,0 l/m 21,1 km/h (4 Bft) O-SO 103 2 min 0,000 mm 2,5 UV-I 747 W/m 3,5 C 2,9 C 29,0 km/h (5 Bft) 94,00 %
25.03.2017 11:48 10,0 C 64 % 1025,6 hPa 0,0 l/m 23,2 km/h (4 Bft) O-NO 69 2 min 0,000 mm 2,5 UV-I 748 W/m 3,5 C 2,3 C 29,0 km/h (5 Bft) 93,22 %
25.03.2017 11:50 10,0 C 64 % 1025,7 hPa 0,0 l/m 16,6 km/h (3 Bft) O-NO 71 2 min 0,000 mm 2,6 UV-I 745 W/m 3,5 C 4,5 C 24,1 km/h (4 Bft) 97,56 %
25.03.2017 11:52 10,1 C 63 % 1025,6 hPa 0,0 l/m 20,8 km/h (4 Bft) O-NO 70 2 min 0,000 mm 2,6 UV-I 743 W/m 3,4 C 3,2 C 29,0 km/h (5 Bft) 92,00 %
25.03.2017 11:54 10,1 C 62 % 1025,6 hPa 0,0 l/m 20,0 km/h (4 Bft) O 84 2 min 0,000 mm 2,6 UV-I 749 W/m 3,2 C 3,4 C 30,6 km/h (5 Bft) 100,00 %
25.03.2017 11:56 10,2 C 63 % 1025,6 hPa 0,0 l/m 23,8 km/h (4 Bft) NO 56 2 min 0,000 mm 2,6 UV-I 743 W/m 3,5 C 2,4 C 30,6 km/h (5 Bft) 96,23 %
25.03.2017 11:58 10,2 C 63 % 1025,6 hPa 0,0 l/m 20,6 km/h (4 Bft) O-NO 63 2 min 0,000 mm 2,5 UV-I 733 W/m 3,5 C 3,4 C 30,6 km/h (5 Bft) 100,00 %
25.03.2017 12:00 10,3 C 65 % 1025,5 hPa 0,0 l/m 19,9 km/h (4 Bft) O-NO 66 2 min 0,000 mm 2,5 UV-I 737 W/m 4,0 C 3,7 C 24,1 km/h (4 Bft) 95,74 %
25.03.2017 12:02 10,4 C 67 % 1025,4 hPa 0,0 l/m 16,9 km/h (3 Bft) NO 42 2 min 0,407 mm 2,6 UV-I 746 W/m 4,5 C 4,9 C 20,9 km/h (4 Bft) 100,00 %
25.03.2017 12:04 10,7 C 64 % 1025,4 hPa 0,0 l/m 16,3 km/h (3 Bft) O-NO 74 2 min 0,000 mm 2,6 UV-I 745 W/m 4,2 C 5,5 C 20,9 km/h (4 Bft) 100,00 %
25.03.2017 12:06 10,7 C 62 % 1025,4 hPa 0,0 l/m 22,3 km/h (4 Bft) O-NO 65 2 min 0,000 mm 2,5 UV-I 715 W/m 3,7 C 3,5 C 29,0 km/h (5 Bft) 100,00 %
25.03.2017 12:08 10,5 C 62 % 1025,4 hPa 0,0 l/m 14,6 km/h (3 Bft) O-NO 71 2 min 0,000 mm 2,6 UV-I 735 W/m 3,5 C 5,9 C 20,9 km/h (4 Bft) 100,00 %
25.03.2017 12:10 10,7 C 67 % 1025,3 hPa 0,0 l/m 14,5 km/h (3 Bft) NO 39 2 min 0,000 mm 2,6 UV-I 739 W/m 4,8 C 6,2 C 19,3 km/h (3 Bft) 100,00 %
25.03.2017 12:12 10,9 C 64 % 1025,3 hPa 0,0 l/m 20,4 km/h (4 Bft) O-NO 65 2 min 0,000 mm 2,6 UV-I 738 W/m 4,4 C 4,3 C 27,4 km/h (4 Bft) 100,00 %
25.03.2017 12:14 10,8 C 59 % 1025,3 hPa 0,0 l/m 21,9 km/h (4 Bft) O 86 2 min 0,000 mm 2,5 UV-I 735 W/m 3,1 C 3,7 C 27,4 km/h (4 Bft) 98,00 %
25.03.2017 12:16 10,8 C 64 % 1025,3 hPa 0,0 l/m 17,4 km/h (3 Bft) NO 46 2 min 0,000 mm 2,5 UV-I 732 W/m 4,3 C 5,2 C 25,7 km/h (4 Bft) 100,00 %
25.03.2017 12:18 10,8 C 61 % 1025,2 hPa 0,0 l/m 18,0 km/h (3 Bft) O 86 2 min 0,000 mm 2,6 UV-I 734 W/m 3,6 C 5,0 C 24,1 km/h (4 Bft) 100,00 %
25.03.2017 12:20 10,9 C 64 % 1025,2 hPa 0,0 l/m 16,9 km/h (3 Bft) NO 56 2 min 0,000 mm 2,6 UV-I 734 W/m 4,4 C 5,5 C 22,5 km/h (4 Bft) 97,62 %
25.03.2017 12:22 11,0 C 62 % 1025,1 hPa 0,0 l/m 23,5 km/h (4 Bft) O-NO 63 2 min 0,000 mm 2,6 UV-I 736 W/m 4,0 C 3,6 C 30,6 km/h (5 Bft) 98,08 %
25.03.2017 12:24 10,9 C 60 % 1025,2 hPa 0,0 l/m 19,8 km/h (3 Bft) NO 46 2 min 0,000 mm 2,5 UV-I 728 W/m 3,4 C 4,5 C 27,4 km/h (4 Bft) 92,86 %
25.03.2017 12:26 10,9 C 62 % 1025,1 hPa 0,0 l/m 20,4 km/h (4 Bft) O-NO 74 2 min 0,000 mm 2,5 UV-I 723 W/m 3,9 C 4,3 C 27,4 km/h (4 Bft) 92,45 %
25.03.2017 12:28 10,9 C 63 % 1025,1 hPa 0,0 l/m 18,0 km/h (3 Bft) NO 56 2 min 0,000 mm 2,5 UV-I 717 W/m 4,1 C 5,1 C 25,7 km/h (4 Bft) 92,11 %
25.03.2017 12:30 10,9 C 61 % 1025,1 hPa 0,0 l/m 19,8 km/h (3 Bft) O-NO 76 2 min 0,000 mm 2,5 UV-I 722 W/m 3,7 C 4,5 C 30,6 km/h (5 Bft) 93,62 %
25.03.2017 12:32 11,1 C 64 % 1025,1 hPa 0,0 l/m 18,0 km/h (3 Bft) NO 55 2 min 0,000 mm 2,5 UV-I 732 W/m 4,6 C 5,4 C 24,1 km/h (4 Bft) 96,00 %
25.03.2017 12:34 11,2 C 66 % 1025,0 hPa 0,0 l/m 18,8 km/h (3 Bft) NO 41 2 min 0,000 mm 2,5 UV-I 721 W/m 5,1 C 5,2 C 24,1 km/h (4 Bft) 92,45 %
25.03.2017 12:36 11,4 C 65 % 1025,0 hPa 0,0 l/m 20,9 km/h (4 Bft) N-NO 32 2 min 0,000 mm 2,5 UV-I 714 W/m 5,1 C 4,8 C 29,0 km/h (5 Bft) 94,74 %
25.03.2017 12:38 11,4 C 61 % 1025,0 hPa 0,0 l/m 19,9 km/h (4 Bft) O-NO 60 2 min 0,000 mm 2,5 UV-I 714 W/m 4,2 C 5,1 C 25,7 km/h (4 Bft) 95,45 %
25.03.2017 12:40 11,3 C 60 % 1024,9 hPa 0,0 l/m 19,4 km/h (3 Bft) O-NO 68 2 min 0,000 mm 2,5 UV-I 716 W/m 3,8 C 5,2 C 25,7 km/h (4 Bft) 94,00 %
25.03.2017 12:42 11,3 C 60 % 1024,9 hPa 0,0 l/m 18,2 km/h (3 Bft) O-NO 57 2 min 0,000 mm 2,5 UV-I 720 W/m 3,8 C 5,5 C 25,7 km/h (4 Bft) 96,00 %
25.03.2017 12:44 11,3 C 61 % 1024,9 hPa 0,0 l/m 14,4 km/h (3 Bft) O-SO 109 2 min 0,000 mm 2,5 UV-I 717 W/m 4,1 C 7,0 C 19,3 km/h (3 Bft) 97,37 %
25.03.2017 12:46 11,2 C 61 % 1024,8 hPa 0,0 l/m 12,7 km/h (3 Bft) N-NO 23 2 min 0,000 mm 2,5 UV-I 717 W/m 4,0 C 7,6 C 20,9 km/h (4 Bft) 96,61 %
25.03.2017 12:48 11,4 C 64 % 1024,7 hPa 0,0 l/m 16,6 km/h (3 Bft) NO 44 2 min 0,000 mm 2,5 UV-I 722 W/m 4,8 C 6,2 C 22,5 km/h (4 Bft) 98,11 %
25.03.2017 12:50 11,6 C 61 % 1024,7 hPa 0,0 l/m 17,0 km/h (3 Bft) O-NO 76 2 min 0,000 mm 2,5 UV-I 727 W/m 4,3 C 6,3 C 20,9 km/h (4 Bft) 97,56 %
25.03.2017 12:52 11,6 C 61 % 1024,7 hPa 0,0 l/m 18,5 km/h (3 Bft) O-NO 69 2 min 0,000 mm 2,5 UV-I 727 W/m 4,3 C 5,8 C 24,1 km/h (4 Bft) 95,45 %
25.03.2017 12:54 11,6 C 59 % 1024,6 hPa 0,0 l/m 19,7 km/h (3 Bft) O-NO 72 2 min 0,000 mm 2,5 UV-I 722 W/m 3,9 C 5,4 C 27,4 km/h (4 Bft) 96,00 %
25.03.2017 12:56 11,6 C 59 % 1024,6 hPa 0,0 l/m 19,6 km/h (3 Bft) O-NO 63 2 min 0,000 mm 2,4 UV-I 717 W/m 3,9 C 5,5 C 29,0 km/h (5 Bft) 100,00 %
25.03.2017 12:58 11,5 C 58 % 1024,6 hPa 0,0 l/m 20,2 km/h (4 Bft) O 80 2 min 0,000 mm 2,4 UV-I 699 W/m 3,5 C 5,2 C 29,0 km/h (5 Bft) 95,56 %
25.03.2017 13:00 11,5 C 60 % 1024,6 hPa 0,0 l/m 17,3 km/h (3 Bft) NO 53 2 min 0,406 mm 2,4 UV-I 710 W/m 4,0 C 6,1 C 24,1 km/h (4 Bft) 96,55 %
25.03.2017 13:02 11,6 C 60 % 1024,5 hPa 0,0 l/m 16,5 km/h (3 Bft) O-NO 63 2 min 0,000 mm 2,4 UV-I 724 W/m 4,1 C 6,5 C 24,1 km/h (4 Bft) 97,44 %
25.03.2017 13:04 11,6 C 58 % 1024,4 hPa 0,0 l/m 20,1 km/h (4 Bft) O 80 2 min 0,000 mm 2,4 UV-I 724 W/m 3,6 C 5,3 C 27,4 km/h (4 Bft) 94,00 %
25.03.2017 13:06 11,7 C 58 % 1024,3 hPa 0,0 l/m 19,0 km/h (3 Bft) O-NO 63 2 min 0,000 mm 2,4 UV-I 714 W/m 3,7 C 5,8 C 30,6 km/h (5 Bft) 95,12 %
25.03.2017 13:08 11,7 C 58 % 1024,3 hPa 0,0 l/m 20,4 km/h (4 Bft) O-NO 57 2 min 0,000 mm 2,4 UV-I 720 W/m 3,7 C 5,4 C 27,4 km/h (4 Bft) 100,00 %
25.03.2017 13:10 11,7 C 58 % 1024,3 hPa 0,0 l/m 17,5 km/h (3 Bft) NO 40 2 min 0,000 mm 2,4 UV-I 722 W/m 3,7 C 6,3 C 25,7 km/h (4 Bft) 97,56 %
25.03.2017 13:12 11,8 C 59 % 1024,3 hPa 0,0 l/m 19,4 km/h (3 Bft) O-NO 62 2 min 0,000 mm 2,4 UV-I 717 W/m 4,1 C 5,8 C 30,6 km/h (5 Bft) 98,00 %
25.03.2017 13:14 11,8 C 55 % 1024,3 hPa 0,0 l/m 19,4 km/h (3 Bft) O-NO 70 2 min 0,000 mm 2,4 UV-I 715 W/m 3,1 C 5,8 C 27,4 km/h (4 Bft) 92,11 %
25.03.2017 13:16 11,8 C 56 % 1024,2 hPa 0,0 l/m 19,1 km/h (3 Bft) O-NO 61 2 min 0,000 mm 2,4 UV-I 718 W/m 3,3 C 5,9 C 27,4 km/h (4 Bft) 96,61 %
25.03.2017 13:18 11,9 C 55 % 1024,2 hPa 0,0 l/m 19,7 km/h (3 Bft) O-NO 61 2 min 0,000 mm 2,3 UV-I 711 W/m 3,2 C 5,8 C 25,7 km/h (4 Bft) 92,68 %
25.03.2017 13:20 11,9 C 56 % 1024,2 hPa 0,0 l/m 19,4 km/h (3 Bft) O-NO 60 2 min 0,000 mm 2,3 UV-I 712 W/m 3,4 C 5,9 C 27,4 km/h (4 Bft) 97,73 %
25.03.2017 13:22 11,9 C 57 % 1024,1 hPa 0,0 l/m 16,5 km/h (3 Bft) NO 43 2 min 0,000 mm 2,3 UV-I 707 W/m 3,7 C 6,9 C 25,7 km/h (4 Bft) 94,34 %
25.03.2017 13:24 12,0 C 58 % 1024,1 hPa 0,0 l/m 15,1 km/h (3 Bft) O-NO 61 2 min 0,000 mm 2,3 UV-I 703 W/m 4,0 C 7,5 C 24,1 km/h (4 Bft) 95,74 %
25.03.2017 13:26 12,2 C 61 % 1024,0 hPa 0,0 l/m 20,2 km/h (4 Bft) NO 42 2 min 0,000 mm 2,3 UV-I 703 W/m 4,9 C 6,1 C 25,7 km/h (4 Bft) 96,00 %
25.03.2017 13:28 12,3 C 57 % 1024,0 hPa 0,0 l/m 19,6 km/h (3 Bft) O 92 2 min 0,000 mm 2,3 UV-I 704 W/m 4,0 C 6,4 C 22,5 km/h (4 Bft) 100,00 %
25.03.2017 13:30 12,3 C 55 % 1023,9 hPa 0,0 l/m 18,2 km/h (3 Bft) O-NO 67 2 min 0,000 mm 2,3 UV-I 708 W/m 3,5 C 6,8 C 30,6 km/h (5 Bft) 100,00 %
25.03.2017 13:32 12,3 C 55 % 1023,9 hPa 0,0 l/m 22,3 km/h (4 Bft) O-NO 71 2 min 0,000 mm 2,3 UV-I 706 W/m 3,5 C 5,6 C 30,6 km/h (5 Bft) 97,56 %
25.03.2017 13:34 12,2 C 54 % 1023,9 hPa 0,0 l/m 18,9 km/h (3 Bft) NO 53 2 min 0,000 mm 2,3 UV-I 697 W/m 3,2 C 6,5 C 25,7 km/h (4 Bft) 96,00 %
25.03.2017 13:36 12,2 C 54 % 1023,9 hPa 0,0 l/m 18,7 km/h (3 Bft) NO 42 2 min 0,000 mm 2,2 UV-I 692 W/m 3,2 C 6,5 C 27,4 km/h (4 Bft) 98,00 %
25.03.2017 13:38 12,2 C 54 % 1023,8 hPa 0,0 l/m 18,4 km/h (3 Bft) O-NO 71 2 min 0,000 mm 2,2 UV-I 684 W/m 3,2 C 6,6 C 29,0 km/h (5 Bft) 92,86 %
25.03.2017 13:40 12,2 C 53 % 1023,8 hPa 0,0 l/m 25,3 km/h (4 Bft) NO 49 2 min 0,000 mm 2,2 UV-I 676 W/m 2,9 C 4,7 C 32,2 km/h (5 Bft) 95,92 %
25.03.2017 13:42 12,1 C 53 % 1023,8 hPa 0,0 l/m 20,2 km/h (4 Bft) O-NO 70 2 min 0,000 mm 2,2 UV-I 674 W/m 2,8 C 5,9 C 25,7 km/h (4 Bft) 97,44 %
25.03.2017 13:44 12,2 C 59 % 1023,8 hPa 0,0 l/m 15,6 km/h (3 Bft) NO 38 2 min 0,000 mm 2,2 UV-I 674 W/m 4,4 C 7,6 C 25,7 km/h (4 Bft) 97,56 %
25.03.2017 13:46 12,3 C 54 % 1023,7 hPa 0,0 l/m 16,0 km/h (3 Bft) O 79 2 min 0,000 mm 2,1 UV-I 670 W/m 3,3 C 7,6 C 22,5 km/h (4 Bft) 96,77 %
25.03.2017 13:48 12,4 C 57 % 1023,7 hPa 0,0 l/m 13,2 km/h (3 Bft) O-NO 65 2 min 0,000 mm 2,1 UV-I 664 W/m 4,1 C 8,8 C 19,3 km/h (3 Bft) 100,00 %
25.03.2017 13:50 12,5 C 60 % 1023,6 hPa 0,0 l/m 14,0 km/h (3 Bft) O 86 2 min 0,000 mm 2,1 UV-I 668 W/m 5,0 C 8,5 C 24,1 km/h (4 Bft) 97,73 %
25.03.2017 13:52 12,6 C 51 % 1023,6 hPa 0,0 l/m 21,1 km/h (4 Bft) NO 43 2 min 0,000 mm 2,1 UV-I 666 W/m 2,7 C 6,3 C 27,4 km/h (4 Bft) 91,49 %
25.03.2017 13:54 12,4 C 50 % 1023,6 hPa 0,0 l/m 19,8 km/h (3 Bft) O-NO 68 2 min 0,000 mm 2,1 UV-I 662 W/m 2,3 C 6,4 C 27,4 km/h (4 Bft) 94,00 %
25.03.2017 13:56 12,4 C 52 % 1023,5 hPa 0,0 l/m 18,2 km/h (3 Bft) N-NO 28 2 min 0,000 mm 2,1 UV-I 657 W/m 2,8 C 6,9 C 25,7 km/h (4 Bft) 100,00 %
25.03.2017 13:58 12,6 C 53 % 1023,5 hPa 0,0 l/m 16,7 km/h (3 Bft) NO 50 2 min 0,000 mm 2,0 UV-I 651 W/m 3,3 C 7,7 C 25,7 km/h (4 Bft) 100,00 %
25.03.2017 14:00 12,6 C 53 % 1023,4 hPa 0,0 l/m 15,2 km/h (3 Bft) O-NO 65 2 min 0,000 mm 2,0 UV-I 651 W/m 3,3 C 8,2 C 20,9 km/h (4 Bft) 95,12 %
25.03.2017 14:03 12,6 C 52 % 1023,3 hPa 0,0 l/m 17,9 km/h (3 Bft) O-NO 67 3 min 0,432 mm 2,0 UV-I 639 W/m 3,0 C 7,3 C 29,0 km/h (5 Bft) 96,20 %
25.03.2017 14:04 12,6 C 51 % 1023,3 hPa 0,0 l/m 18,5 km/h (3 Bft) O 81 1 min 0,000 mm 2,0 UV-I 641 W/m 2,7 C 7,1 C 20,9 km/h (4 Bft) 91,67 %
25.03.2017 14:06 12,6 C 49 % 1023,3 hPa 0,0 l/m 19,3 km/h (3 Bft) NO 48 2 min 0,000 mm 1,9 UV-I 635 W/m 2,2 C 6,9 C 25,7 km/h (4 Bft) 98,11 %
25.03.2017 14:08 12,6 C 49 % 1023,2 hPa 0,0 l/m 15,4 km/h (3 Bft) NO 43 2 min 0,000 mm 1,9 UV-I 625 W/m 2,2 C 8,1 C 22,5 km/h (4 Bft) 95,45 %
25.03.2017 14:10 12,6 C 51 % 1023,1 hPa 0,0 l/m 16,2 km/h (3 Bft) O 89 2 min 0,000 mm 1,9 UV-I 620 W/m 2,7 C 7,9 C 24,1 km/h (4 Bft) 97,56 %
25.03.2017 14:12 12,7 C 49 % 1023,0 hPa 0,0 l/m 20,8 km/h (4 Bft) O-NO 63 2 min 0,000 mm 1,9 UV-I 608 W/m 2,3 C 6,5 C 27,4 km/h (4 Bft) 98,00 %
25.03.2017 14:14 12,6 C 49 % 1023,0 hPa 0,0 l/m 19,9 km/h (4 Bft) NO 44 2 min 0,000 mm 1,8 UV-I 597 W/m 2,2 C 6,7 C 27,4 km/h (4 Bft) 98,00 %
25.03.2017 14:16 12,6 C 49 % 1023,0 hPa 0,0 l/m 16,5 km/h (3 Bft) O 84 2 min 0,000 mm 1,8 UV-I 594 W/m 2,2 C 7,7 C 24,1 km/h (4 Bft) 92,00 %
25.03.2017 14:18 12,7 C 48 % 1022,9 hPa 0,0 l/m 18,3 km/h (3 Bft) O 90 2 min 0,000 mm 1,8 UV-I 591 W/m 2,0 C 7,3 C 25,7 km/h (4 Bft) 94,87 %
25.03.2017 14:20 12,8 C 48 % 1022,9 hPa 0,0 l/m 19,3 km/h (3 Bft) O 88 2 min 0,000 mm 1,8 UV-I 593 W/m 2,1 C 7,1 C 24,1 km/h (4 Bft) 89,09 %
25.03.2017 14:22 12,8 C 47 % 1022,8 hPa 0,0 l/m 19,1 km/h (3 Bft) NO 55 2 min 0,000 mm 1,7 UV-I 587 W/m 1,8 C 7,2 C 24,1 km/h (4 Bft) 95,83 %
25.03.2017 14:24 12,8 C 46 % 1022,9 hPa 0,0 l/m 19,3 km/h (3 Bft) O-NO 61 2 min 0,000 mm 1,7 UV-I 593 W/m 1,5 C 7,1 C 25,7 km/h (4 Bft) 93,02 %
25.03.2017 14:26 12,8 C 46 % 1022,9 hPa 0,0 l/m 19,6 km/h (3 Bft) O-NO 66 2 min 0,000 mm 1,7 UV-I 585 W/m 1,5 C 7,0 C 25,7 km/h (4 Bft) 95,74 %
25.03.2017 14:28 12,8 C 45 % 1022,8 hPa 0,0 l/m 21,3 km/h (4 Bft) NO 47 2 min 0,000 mm 1,7 UV-I 578 W/m 1,2 C 6,5 C 29,0 km/h (5 Bft) 98,11 %
25.03.2017 14:30 12,8 C 44 % 1022,9 hPa 0,0 l/m 22,4 km/h (4 Bft) NO 46 2 min 0,000 mm 1,7 UV-I 575 W/m 0,9 C 6,3 C 30,6 km/h (5 Bft) 95,12 %
25.03.2017 14:32 12,8 C 43 % 1022,8 hPa 0,0 l/m 19,0 km/h (3 Bft) O 88 2 min 0,000 mm 1,6 UV-I 573 W/m 0,5 C 7,2 C 25,7 km/h (4 Bft) 98,11 %
25.03.2017 14:34 12,8 C 42 % 1022,8 hPa 0,0 l/m 18,2 km/h (3 Bft) O-NO 63 2 min 0,000 mm 1,6 UV-I 568 W/m 0,2 C 7,4 C 24,1 km/h (4 Bft) 97,37 %
25.03.2017 14:36 12,8 C 48 % 1022,8 hPa 0,0 l/m 17,7 km/h (3 Bft) NO 38 2 min 0,000 mm 1,6 UV-I 563 W/m 2,1 C 7,6 C 25,7 km/h (4 Bft) 100,00 %
25.03.2017 14:38 12,9 C 47 % 1022,7 hPa 0,0 l/m 16,2 km/h (3 Bft) NO 55 2 min 0,000 mm 1,6 UV-I 555 W/m 1,9 C 8,2 C 25,7 km/h (4 Bft) 92,68 %
25.03.2017 14:40 12,9 C 46 % 1022,6 hPa 0,0 l/m 16,1 km/h (3 Bft) O-NO 65 2 min 0,000 mm 1,5 UV-I 552 W/m 1,6 C 8,3 C 22,5 km/h (4 Bft) 100,00 %
25.03.2017 14:42 13,1 C 45 % 1022,7 hPa 0,0 l/m 18,2 km/h (3 Bft) O-NO 64 2 min 0,000 mm 1,5 UV-I 549 W/m 1,4 C 7,8 C 27,4 km/h (4 Bft) 98,00 %
25.03.2017 14:44 13,0 C 44 % 1022,7 hPa 0,0 l/m 20,9 km/h (4 Bft) O-NO 57 2 min 0,000 mm 1,5 UV-I 551 W/m 1,0 C 6,9 C 27,4 km/h (4 Bft) 97,37 %
25.03.2017 14:46 12,9 C 43 % 1022,7 hPa 0,0 l/m 18,1 km/h (3 Bft) O-NO 63 2 min 0,000 mm 1,5 UV-I 542 W/m 0,6 C 7,6 C 27,4 km/h (4 Bft) 98,11 %
25.03.2017 14:48 12,9 C 46 % 1022,6 hPa 0,0 l/m 15,6 km/h (3 Bft) NO 51 2 min 0,000 mm 1,5 UV-I 538 W/m 1,6 C 8,4 C 22,5 km/h (4 Bft) 96,30 %
25.03.2017 14:50 13,1 C 46 % 1022,6 hPa 0,0 l/m 18,2 km/h (3 Bft) NO 45 2 min 0,000 mm 1,4 UV-I 528 W/m 1,7 C 7,8 C 25,7 km/h (4 Bft) 100,00 %
25.03.2017 14:52 13,0 C 44 % 1022,6 hPa 0,0 l/m 18,7 km/h (3 Bft) O-NO 61 2 min 0,000 mm 1,4 UV-I 529 W/m 1,0 C 7,5 C 24,1 km/h (4 Bft) 100,00 %
25.03.2017 14:54 12,9 C 44 % 1022,6 hPa 0,0 l/m 18,4 km/h (3 Bft) O 82 2 min 0,000 mm 1,4 UV-I 528 W/m 1,0 C 7,5 C 27,4 km/h (4 Bft) 96,00 %
25.03.2017 14:56 12,9 C 44 % 1022,6 hPa 0,0 l/m 18,3 km/h (3 Bft) O-NO 71 2 min 0,000 mm 1,4 UV-I 528 W/m 1,0 C 7,5 C 29,0 km/h (5 Bft) 100,00 %
25.03.2017 14:58 12,9 C 44 % 1022,6 hPa 0,0 l/m 18,7 km/h (3 Bft) O-NO 63 2 min 0,000 mm 1,3 UV-I 519 W/m 1,0 C 7,4 C 27,4 km/h (4 Bft) 97,62 %
25.03.2017 15:00 12,9 C 43 % 1022,5 hPa 0,0 l/m 17,3 km/h (3 Bft) NO 37 2 min 0,381 mm 1,3 UV-I 514 W/m 0,6 C 7,9 C 27,4 km/h (4 Bft) 100,00 %
25.03.2017 15:02 13,0 C 48 % 1022,5 hPa 0,0 l/m 17,6 km/h (3 Bft) O-NO 61 2 min 0,000 mm 1,3 UV-I 508 W/m 2,3 C 7,9 C 22,5 km/h (4 Bft) 94,64 %
25.03.2017 15:04 13,1 C 46 % 1022,4 hPa 0,0 l/m 14,5 km/h (3 Bft) N-NO 28 2 min 0,000 mm 1,3 UV-I 511 W/m 1,7 C 9,1 C 19,3 km/h (3 Bft) 97,56 %
25.03.2017 15:06 13,2 C 44 % 1022,5 hPa 0,0 l/m 16,2 km/h (3 Bft) O 82 2 min 0,000 mm 1,3 UV-I 509 W/m 1,2 C 8,6 C 22,5 km/h (4 Bft) 100,00 %
25.03.2017 15:08 13,2 C 48 % 1022,5 hPa 0,0 l/m 13,9 km/h (3 Bft) NO 38 2 min 0,000 mm 1,2 UV-I 502 W/m 2,4 C 9,4 C 19,3 km/h (3 Bft) 100,00 %
25.03.2017 15:10 13,3 C 46 % 1022,5 hPa 0,0 l/m 13,5 km/h (3 Bft) NO 49 2 min 0,000 mm 1,2 UV-I 494 W/m 1,9 C 9,7 C 17,7 km/h (3 Bft) 95,74 %
25.03.2017 15:12 13,3 C 45 % 1022,5 hPa 0,0 l/m 16,2 km/h (3 Bft) NO 47 2 min 0,000 mm 1,2 UV-I 491 W/m 1,6 C 8,7 C 20,9 km/h (4 Bft) 100,00 %
25.03.2017 15:14 13,3 C 45 % 1022,4 hPa 0,0 l/m 12,8 km/h (3 Bft) NO 34 2 min 0,000 mm 1,2 UV-I 488 W/m 1,6 C 10,0 C 19,3 km/h (3 Bft) 98,00 %
25.03.2017 15:16 13,3 C 45 % 1022,3 hPa 0,0 l/m 10,9 km/h (2 Bft) O-NO 78 2 min 0,000 mm 1,1 UV-I 483 W/m 1,6 C 10,8 C 19,3 km/h (3 Bft) 98,21 %
25.03.2017 15:18 13,3 C 44 % 1022,3 hPa 0,0 l/m 20,8 km/h (4 Bft) O 90 2 min 0,000 mm 1,1 UV-I 475 W/m 1,3 C 7,3 C 25,7 km/h (4 Bft) 100,00 %
25.03.2017 15:20 13,3 C 44 % 1022,3 hPa 0,0 l/m 16,5 km/h (3 Bft) O-NO 61 2 min 0,000 mm 1,1 UV-I 471 W/m 1,3 C 8,6 C 22,5 km/h (4 Bft) 100,00 %
25.03.2017 15:22 13,3 C 45 % 1022,3 hPa 0,0 l/m 19,1 km/h (3 Bft) O-NO 66 2 min 0,000 mm 1,1 UV-I 468 W/m 1,6 C 7,8 C 24,1 km/h (4 Bft) 96,30 %
25.03.2017 15:24 13,2 C 42 % 1022,2 hPa 0,0 l/m 18,3 km/h (3 Bft) NO 55 2 min 0,000 mm 1,1 UV-I 463 W/m 0,6 C 7,9 C 22,5 km/h (4 Bft) 97,26 %
25.03.2017 15:26 13,2 C 44 % 1022,1 hPa 0,0 l/m 13,9 km/h (3 Bft) NO 40 2 min 0,000 mm 1,0 UV-I 458 W/m 1,2 C 9,4 C 20,9 km/h (4 Bft) 100,00 %
25.03.2017 15:28 13,2 C 44 % 1022,1 hPa 0,0 l/m 13,8 km/h (3 Bft) O-NO 65 2 min 0,000 mm 1,0 UV-I 451 W/m 1,2 C 9,5 C 19,3 km/h (3 Bft) 100,00 %
25.03.2017 15:30 13,3 C 44 % 1022,1 hPa 0,0 l/m 15,8 km/h (3 Bft) O 96 2 min 0,000 mm 1,0 UV-I 446 W/m 1,3 C 8,9 C 19,3 km/h (3 Bft) 97,73 %
25.03.2017 15:33 13,3 C 43 % 1022,1 hPa 0,0 l/m 20,8 km/h (4 Bft) O-NO 65 3 min 0,000 mm 0,9 UV-I 429 W/m 1,0 C 7,3 C 29,0 km/h (5 Bft) 100,00 %
25.03.2017 15:34 13,2 C 43 % 1022,1 hPa 0,0 l/m 18,2 km/h (3 Bft) O-NO 71 1 min 0,000 mm 0,9 UV-I 436 W/m 0,9 C 7,9 C 24,1 km/h (4 Bft) 96,56 %
25.03.2017 15:36 13,2 C 43 % 1022,0 hPa 0,0 l/m 12,4 km/h (3 Bft) O-NO 69 2 min 0,000 mm 0,9 UV-I 430 W/m 0,9 C 10,0 C 17,7 km/h (3 Bft) 98,57 %
25.03.2017 15:38 13,3 C 44 % 1021,9 hPa 0,0 l/m 17,2 km/h (3 Bft) O-NO 78 2 min 0,000 mm 0,9 UV-I 425 W/m 1,3 C 8,4 C 25,7 km/h (4 Bft) 100,00 %
25.03.2017 15:40 13,3 C 44 % 1021,9 hPa 0,0 l/m 15,7 km/h (3 Bft) O-NO 71 2 min 0,000 mm 0,9 UV-I 415 W/m 1,3 C 8,9 C 19,3 km/h (3 Bft) 98,11 %
25.03.2017 15:42 13,3 C 42 % 1021,9 hPa 0,0 l/m 18,6 km/h (3 Bft) O 88 2 min 0,000 mm 0,9 UV-I 411 W/m 0,7 C 8,0 C 27,4 km/h (4 Bft) 100,00 %
25.03.2017 15:44 13,3 C 43 % 1021,9 hPa 0,0 l/m 17,8 km/h (3 Bft) O-NO 61 2 min 0,000 mm 0,8 UV-I 402 W/m 1,0 C 8,2 C 22,5 km/h (4 Bft) 96,23 %
25.03.2017 15:46 13,3 C 44 % 1021,9 hPa 0,0 l/m 14,5 km/h (3 Bft) NO 54 2 min 0,000 mm 0,8 UV-I 393 W/m 1,3 C 9,3 C 19,3 km/h (3 Bft) 100,00 %
25.03.2017 15:48 13,4 C 43 % 1021,8 hPa 0,0 l/m 15,6 km/h (3 Bft) O 84 2 min 0,000 mm 0,8 UV-I 387 W/m 1,1 C 9,0 C 19,3 km/h (3 Bft) 97,56 %
25.03.2017 15:50 13,3 C 42 % 1021,8 hPa 0,0 l/m 15,5 km/h (3 Bft) O-NO 63 2 min 0,000 mm 0,8 UV-I 381 W/m 0,7 C 9,0 C 22,5 km/h (4 Bft) 100,00 %
25.03.2017 15:52 13,3 C 44 % 1021,8 hPa 0,0 l/m 12,1 km/h (2 Bft) O 84 2 min 0,000 mm 0,7 UV-I 379 W/m 1,3 C 10,3 C 20,9 km/h (4 Bft) 98,00 %
25.03.2017 15:54 13,3 C 43 % 1021,8 hPa 0,0 l/m 13,1 km/h (3 Bft) NO 46 2 min 0,000 mm 0,7 UV-I 371 W/m 1,0 C 9,9 C 17,7 km/h (3 Bft) 94,74 %
25.03.2017 15:56 13,3 C 42 % 1021,8 hPa 0,0 l/m 13,0 km/h (3 Bft) O-NO 66 2 min 0,000 mm 0,7 UV-I 366 W/m 0,7 C 9,9 C 17,7 km/h (3 Bft) 94,64 %
25.03.2017 15:58 13,3 C 42 % 1021,8 hPa 0,0 l/m 17,6 km/h (3 Bft) NO 53 2 min 0,000 mm 0,7 UV-I 363 W/m 0,7 C 8,3 C 22,5 km/h (4 Bft) 100,00 %
25.03.2017 16:00 13,3 C 42 % 1021,7 hPa 0,0 l/m 16,8 km/h (3 Bft) O-NO 68 2 min 0,000 mm 0,7 UV-I 360 W/m 0,7 C 8,5 C 20,9 km/h (4 Bft) 95,12 %
25.03.2017 16:02 13,2 C 42 % 1021,7 hPa 0,0 l/m 16,0 km/h (3 Bft) NO 43 2 min 0,330 mm 0,7 UV-I 356 W/m 0,6 C 8,7 C 22,5 km/h (4 Bft) 94,83 %
25.03.2017 16:04 13,2 C 41 % 1021,6 hPa 0,0 l/m 15,5 km/h (3 Bft) NO 51 2 min 0,000 mm 0,6 UV-I 351 W/m 0,2 C 8,8 C 20,9 km/h (4 Bft) 97,87 %
25.03.2017 16:06 13,2 C 40 % 1021,5 hPa 0,0 l/m 16,7 km/h (3 Bft) O-NO 62 2 min 0,000 mm 0,6 UV-I 342 W/m -0,1 C 8,4 C 22,5 km/h (4 Bft) 97,87 %
25.03.2017 16:08 13,2 C 41 % 1021,5 hPa 0,0 l/m 16,9 km/h (3 Bft) NO 55 2 min 0,000 mm 0,6 UV-I 339 W/m 0,2 C 8,4 C 22,5 km/h (4 Bft) 95,45 %
25.03.2017 16:10 13,2 C 41 % 1021,5 hPa 0,0 l/m 12,5 km/h (3 Bft) O-NO 57 2 min 0,000 mm 0,6 UV-I 333 W/m 0,2 C 10,0 C 20,9 km/h (4 Bft) 90,91 %
25.03.2017 16:12 13,2 C 40 % 1021,5 hPa 0,0 l/m 13,7 km/h (3 Bft) O-NO 66 2 min 0,000 mm 0,6 UV-I 331 W/m -0,1 C 9,5 C 17,7 km/h (3 Bft) 94,87 %
25.03.2017 16:14 13,2 C 43 % 1021,5 hPa 0,0 l/m 14,1 km/h (3 Bft) O-NO 69 2 min 0,000 mm 0,6 UV-I 329 W/m 0,9 C 9,3 C 19,3 km/h (3 Bft) 97,56 %
25.03.2017 16:16 13,3 C 43 % 1021,4 hPa 0,0 l/m 16,9 km/h (3 Bft) O-NO 76 2 min 0,000 mm 0,5 UV-I 325 W/m 1,0 C 8,5 C 22,5 km/h (4 Bft) 97,87 %
25.03.2017 16:18 13,2 C 41 % 1021,4 hPa 0,0 l/m 15,6 km/h (3 Bft) NO 55 2 min 0,000 mm 0,5 UV-I 322 W/m 0,2 C 8,8 C 22,5 km/h (4 Bft) 93,55 %
25.03.2017 16:20 13,2 C 42 % 1021,4 hPa 0,0 l/m 14,3 km/h (3 Bft) O-NO 69 2 min 0,000 mm 0,5 UV-I 324 W/m 0,6 C 9,3 C 22,5 km/h (4 Bft) 97,87 %
25.03.2017 16:22 13,2 C 42 % 1021,3 hPa 0,0 l/m 16,5 km/h (3 Bft) O-NO 67 2 min 0,000 mm 0,5 UV-I 325 W/m 0,6 C 8,5 C 24,1 km/h (4 Bft) 93,33 %
25.03.2017 16:24 13,2 C 43 % 1021,3 hPa 0,0 l/m 15,8 km/h (3 Bft) O-NO 61 2 min 0,000 mm 0,5 UV-I 320 W/m 0,9 C 8,7 C 20,9 km/h (4 Bft) 92,45 %
25.03.2017 16:26 13,2 C 42 % 1021,2 hPa 0,0 l/m 15,2 km/h (3 Bft) O-NO 74 2 min 0,000 mm 0,5 UV-I 318 W/m 0,6 C 8,9 C 19,3 km/h (3 Bft) 88,64 %
25.03.2017 16:28 13,2 C 43 % 1021,3 hPa 0,0 l/m 12,6 km/h (3 Bft) O 80 2 min 0,000 mm 0,5 UV-I 316 W/m 0,9 C 9,9 C 20,9 km/h (4 Bft) 94,74 %
25.03.2017 16:30 13,3 C 42 % 1021,3 hPa 0,0 l/m 15,4 km/h (3 Bft) O-NO 69 2 min 0,000 mm 0,1 UV-I 308 W/m 0,7 C 9,0 C 19,3 km/h (3 Bft) 96,55 %
25.03.2017 16:32 13,3 C 43 % 1021,3 hPa 0,0 l/m 14,0 km/h (3 Bft) O-NO 63 2 min 0,000 mm 0,0 UV-I 289 W/m 1,0 C 9,5 C 17,7 km/h (3 Bft) 100,00 %
25.03.2017 16:34 13,3 C 43 % 1021,2 hPa 0,0 l/m 13,8 km/h (3 Bft) O 87 2 min 0,000 mm 0,0 UV-I 276 W/m 1,0 C 9,6 C 17,7 km/h (3 Bft) 90,24 %
25.03.2017 16:36 13,3 C 43 % 1021,2 hPa 0,0 l/m 14,3 km/h (3 Bft) NO 49 2 min 0,000 mm 0,0 UV-I 257 W/m 1,0 C 9,4 C 19,3 km/h (3 Bft) 93,62 %
25.03.2017 16:38 13,3 C 44 % 1021,2 hPa 0,0 l/m 13,7 km/h (3 Bft) O-NO 57 2 min 0,000 mm 0,0 UV-I 224 W/m 1,3 C 9,6 C 17,7 km/h (3 Bft) 100,00 %
25.03.2017 16:40 13,2 C 42 % 1021,2 hPa 0,0 l/m 11,5 km/h (2 Bft) O 86 2 min 0,000 mm 0,0 UV-I 219 W/m 0,6 C 10,4 C 19,3 km/h (3 Bft) 97,56 %
25.03.2017 16:42 13,1 C 43 % 1021,2 hPa 0,0 l/m 15,2 km/h (3 Bft) O-NO 72 2 min 0,000 mm 0,0 UV-I 209 W/m 0,8 C 8,8 C 20,9 km/h (4 Bft) 94,34 %
25.03.2017 16:44 13,0 C 43 % 1021,2 hPa 0,0 l/m 15,0 km/h (3 Bft) O-NO 69 2 min 0,000 mm 0,0 UV-I 198 W/m 0,7 C 8,8 C 19,3 km/h (3 Bft) 97,56 %
25.03.2017 16:46 12,9 C 43 % 1021,2 hPa 0,0 l/m 12,7 km/h (3 Bft) O-NO 63 2 min 0,000 mm 0,0 UV-I 183 W/m 0,6 C 9,6 C 17,7 km/h (3 Bft) 100,00 %
25.03.2017 16:48 12,8 C 45 % 1021,2 hPa 0,0 l/m 11,7 km/h (2 Bft) O-NO 78 2 min 0,000 mm 0,0 UV-I 177 W/m 1,2 C 9,9 C 16,1 km/h (3 Bft) 96,43 %
25.03.2017 16:50 12,8 C 43 % 1021,1 hPa 0,0 l/m 15,3 km/h (3 Bft) O 84 2 min 0,000 mm 0,0 UV-I 172 W/m 0,5 C 8,4 C 22,5 km/h (4 Bft) 94,00 %
25.03.2017 16:52 12,7 C 45 % 1021,1 hPa 0,0 l/m 13,8 km/h (3 Bft) O-NO 64 2 min 0,000 mm 0,0 UV-I 161 W/m 1,1 C 8,9 C 20,9 km/h (4 Bft) 94,74 %
25.03.2017 16:54 12,6 C 44 % 1021,1 hPa 0,0 l/m 12,0 km/h (2 Bft) O 86 2 min 0,000 mm 0,0 UV-I 158 W/m 0,7 C 9,5 C 17,7 km/h (3 Bft) 96,23 %
25.03.2017 16:56 12,6 C 44 % 1021,1 hPa 0,0 l/m 10,4 km/h (2 Bft) O 80 2 min 0,000 mm 0,0 UV-I 150 W/m 0,7 C 10,3 C 19,3 km/h (3 Bft) 94,44 %
25.03.2017 16:58 12,5 C 45 % 1021,1 hPa 0,0 l/m 12,1 km/h (2 Bft) O 84 2 min 0,000 mm 0,0 UV-I 145 W/m 0,9 C 9,3 C 19,3 km/h (3 Bft) 93,22 %
25.03.2017 17:00 12,5 C 46 % 1021,1 hPa 0,0 l/m 12,2 km/h (2 Bft) O-NO 65 2 min 0,000 mm 0,0 UV-I 128 W/m 1,2 C 9,3 C 17,7 km/h (3 Bft) 95,12 %
25.03.2017 17:02 12,4 C 46 % 1021,1 hPa 0,0 l/m 11,8 km/h (2 Bft) O-NO 69 0 min 0,229 mm 0,0 UV-I 120 W/m 1,1 C 9,4 C 19,3 km/h (3 Bft) 98,11 %
25.03.2017 17:04 12,4 C 46 % 1021,1 hPa 0,0 l/m 12,6 km/h (3 Bft) O-NO 78 2 min 0,000 mm 0,0 UV-I 120 W/m 1,1 C 9,0 C 17,7 km/h (3 Bft) 92,11 %
25.03.2017 17:06 12,4 C 49 % 1021,1 hPa 0,0 l/m 10,0 km/h (2 Bft) O-NO 66 2 min 0,000 mm 0,0 UV-I 116 W/m 2,0 C 10,2 C 14,5 km/h (3 Bft) 92,00 %
25.03.2017 17:08 12,3 C 48 % 1021,1 hPa 0,0 l/m 11,1 km/h (2 Bft) O 80 0 min 0,000 mm 0,0 UV-I 106 W/m 1,6 C 9,6 C 16,1 km/h (3 Bft) 95,65 %
25.03.2017 17:10 12,3 C 47 % 1021,0 hPa 0,0 l/m 11,7 km/h (2 Bft) O 94 0 min 0,000 mm 0,0 UV-I 97 W/m 1,3 C 9,3 C 16,1 km/h (3 Bft) 97,73 %
25.03.2017 17:12 12,2 C 47 % 1021,0 hPa 0,0 l/m 9,0 km/h (2 Bft) O-NO 66 0 min 0,000 mm 0,0 UV-I 94 W/m 1,2 C 10,6 C 14,5 km/h (3 Bft) 90,91 %
25.03.2017 17:14 12,2 C 49 % 1021,0 hPa 0,0 l/m 8,3 km/h (2 Bft) O-SO 119 0 min 0,000 mm 0,0 UV-I 91 W/m 1,8 C 11,0 C 12,9 km/h (3 Bft) 98,11 %
25.03.2017 17:16 12,2 C 50 % 1021,0 hPa 0,0 l/m 5,9 km/h (2 Bft) O 93 0 min 0,000 mm 0,0 UV-I 88 W/m 2,1 C 12,2 C 9,7 km/h (2 Bft) 92,45 %
25.03.2017 17:18 12,0 C 49 % 1021,0 hPa 0,0 l/m 8,0 km/h (2 Bft) O 89 0 min 0,000 mm 0,0 UV-I 83 W/m 1,6 C 11,0 C 11,3 km/h (2 Bft) 95,12 %
25.03.2017 17:20 11,9 C 50 % 1021,0 hPa 0,0 l/m 6,0 km/h (2 Bft) O 100 0 min 0,000 mm 0,0 UV-I 79 W/m 1,8 C 11,9 C 11,3 km/h (2 Bft) 92,00 %
25.03.2017 17:22 11,8 C 50 % 1021,0 hPa 0,0 l/m 6,8 km/h (2 Bft) O 95 0 min 0,000 mm 0,0 UV-I 77 W/m 1,7 C 11,5 C 9,7 km/h (2 Bft) 92,11 %
25.03.2017 17:24 11,8 C 51 % 1021,0 hPa 0,0 l/m 7,9 km/h (2 Bft) O-NO 65 0 min 0,000 mm 0,0 UV-I 72 W/m 2,0 C 10,8 C 11,3 km/h (2 Bft) 98,11 %
25.03.2017 17:26 11,8 C 51 % 1021,0 hPa 0,0 l/m 9,2 km/h (2 Bft) O 93 0 min 0,000 mm 0,0 UV-I 68 W/m 2,0 C 10,0 C 12,9 km/h (3 Bft) 96,15 %
25.03.2017 17:28 11,7 C 51 % 1020,9 hPa 0,0 l/m 9,4 km/h (2 Bft) O 86 0 min 0,000 mm 0,0 UV-I 68 W/m 1,9 C 9,8 C 16,1 km/h (3 Bft) 97,01 %
25.03.2017 17:30 11,7 C 51 % 1020,9 hPa 0,0 l/m 11,1 km/h (2 Bft) O-SO 107 0 min 0,000 mm 0,0 UV-I 76 W/m 1,9 C 8,9 C 16,1 km/h (3 Bft) 96,23 %
25.03.2017 17:32 11,6 C 52 % 1020,9 hPa 0,0 l/m 9,0 km/h (2 Bft) O-SO 109 2 min 0,000 mm 0,0 UV-I 78 W/m 2,1 C 9,9 C 12,9 km/h (3 Bft) 97,22 %
25.03.2017 17:34 11,6 C 51 % 1020,9 hPa 0,0 l/m 11,9 km/h (2 Bft) SO 134 2 min 0,000 mm 0,0 UV-I 77 W/m 1,8 C 8,4 C 16,1 km/h (3 Bft) 94,34 %
25.03.2017 17:36 11,6 C 52 % 1020,8 hPa 0,0 l/m 7,0 km/h (2 Bft) O-SO 109 2 min 0,000 mm 0,0 UV-I 76 W/m 2,1 C 11,2 C 11,3 km/h (2 Bft) 93,62 %
25.03.2017 17:38 11,5 C 52 % 1020,8 hPa 0,0 l/m 8,8 km/h (2 Bft) O-NO 77 2 min 0,000 mm 0,0 UV-I 71 W/m 2,0 C 9,9 C 12,9 km/h (3 Bft) 92,73 %
25.03.2017 17:40 11,4 C 52 % 1020,8 hPa 0,0 l/m 7,5 km/h (2 Bft) O 90 2 min 0,000 mm 0,0 UV-I 68 W/m 1,9 C 10,7 C 11,3 km/h (2 Bft) 94,44 %
25.03.2017 17:42 11,4 C 54 % 1020,9 hPa 0,0 l/m 8,1 km/h (2 Bft) O 87 2 min 0,000 mm 0,0 UV-I 67 W/m 2,4 C 10,3 C 14,5 km/h (3 Bft) 94,34 %
25.03.2017 17:44 11,3 C 54 % 1020,8 hPa 0,0 l/m 8,0 km/h (2 Bft) O-NO 70 2 min 0,000 mm 0,0 UV-I 63 W/m 2,3 C 10,2 C 12,9 km/h (3 Bft) 92,68 %
25.03.2017 17:46 11,2 C 54 % 1020,9 hPa 0,0 l/m 8,0 km/h (2 Bft) O 100 2 min 0,000 mm 0,0 UV-I 58 W/m 2,2 C 10,1 C 12,9 km/h (3 Bft) 96,23 %
25.03.2017 17:48 11,2 C 53 % 1020,9 hPa 0,0 l/m 10,0 km/h (2 Bft) O-SO 107 2 min 0,000 mm 0,0 UV-I 57 W/m 2,0 C 8,9 C 16,1 km/h (3 Bft) 97,14 %
25.03.2017 17:50 11,2 C 53 % 1020,9 hPa 0,0 l/m 9,6 km/h (2 Bft) O-SO 103 2 min 0,000 mm 0,0 UV-I 53 W/m 2,0 C 9,1 C 14,5 km/h (3 Bft) 89,83 %
25.03.2017 17:52 11,2 C 53 % 1020,9 hPa 0,0 l/m 10,0 km/h (2 Bft) O-NO 74 2 min 0,000 mm 0,0 UV-I 50 W/m 2,0 C 8,9 C 16,1 km/h (3 Bft) 95,45 %
25.03.2017 17:54 11,1 C 54 % 1020,8 hPa 0,0 l/m 7,0 km/h (2 Bft) O 79 2 min 0,000 mm 0,0 UV-I 45 W/m 2,2 C 10,7 C 9,7 km/h (2 Bft) 96,00 %
25.03.2017 17:56 11,0 C 53 % 1020,8 hPa 0,0 l/m 10,4 km/h (2 Bft) O 96 2 min 0,000 mm 0,0 UV-I 40 W/m 1,8 C 8,5 C 14,5 km/h (3 Bft) 95,12 %
25.03.2017 17:58 11,0 C 53 % 1020,8 hPa 0,0 l/m 7,5 km/h (2 Bft) O-NO 67 2 min 0,000 mm 0,0 UV-I 38 W/m 1,8 C 10,2 C 14,5 km/h (3 Bft) 94,00 %
25.03.2017 18:00 10,9 C 53 % 1020,8 hPa 0,0 l/m 9,0 km/h (2 Bft) O 85 2 min 0,000 mm 0,0 UV-I 35 W/m 1,7 C 9,2 C 12,9 km/h (3 Bft) 93,62 %
25.03.2017 18:02 10,9 C 53 % 1020,8 hPa 0,0 l/m 9,5 km/h (2 Bft) O 90 2 min 0,101 mm 0,0 UV-I 33 W/m 1,7 C 8,9 C 14,5 km/h (3 Bft) 93,18 %
25.03.2017 18:04 10,8 C 53 % 1020,8 hPa 0,0 l/m 7,4 km/h (2 Bft) O-NO 77 2 min 0,000 mm 0,0 UV-I 31 W/m 1,6 C 10,1 C 12,9 km/h (3 Bft) 89,36 %
25.03.2017 18:06 10,8 C 53 % 1020,8 hPa 0,0 l/m 8,8 km/h (2 Bft) O 82 2 min 0,000 mm 0,0 UV-I 28 W/m 1,6 C 9,2 C 12,9 km/h (3 Bft) 95,74 %
25.03.2017 18:08 10,7 C 54 % 1020,9 hPa 0,0 l/m 6,0 km/h (2 Bft) O 84 2 min 0,000 mm 0,0 UV-I 26 W/m 1,8 C 10,7 C 12,9 km/h (3 Bft) 95,45 %
25.03.2017 18:10 10,6 C 55 % 1020,9 hPa 0,0 l/m 6,2 km/h (2 Bft) O 85 2 min 0,000 mm 0,0 UV-I 24 W/m 1,9 C 10,6 C 8,0 km/h (2 Bft) 94,00 %
25.03.2017 18:12 10,5 C 55 % 1020,9 hPa 0,0 l/m 6,6 km/h (2 Bft) O-NO 78 2 min 0,000 mm 0,0 UV-I 20 W/m 1,8 C 10,4 C 9,7 km/h (2 Bft) 83,33 %
25.03.2017 18:14 10,4 C 56 % 1020,8 hPa 0,0 l/m 6,0 km/h (2 Bft) O-NO 62 0 min 0,000 mm 0,0 UV-I 18 W/m 2,0 C 10,4 C 8,0 km/h (2 Bft) 88,46 %
25.03.2017 18:16 10,3 C 55 % 1020,8 hPa 0,0 l/m 6,3 km/h (2 Bft) O-NO 74 0 min 0,000 mm 0,0 UV-I 15 W/m 1,7 C 10,3 C 8,0 km/h (2 Bft) 96,00 %
25.03.2017 18:18 10,2 C 56 % 1020,8 hPa 0,0 l/m 6,2 km/h (2 Bft) O-NO 69 0 min 0,000 mm 0,0 UV-I 13 W/m 1,8 C 10,2 C 9,7 km/h (2 Bft) 93,75 %
25.03.2017 18:20 10,2 C 56 % 1020,9 hPa 0,0 l/m 5,9 km/h (2 Bft) O-NO 65 0 min 0,000 mm 0,0 UV-I 11 W/m 1,8 C 10,2 C 8,0 km/h (2 Bft) 92,68 %
25.03.2017 18:22 10,1 C 57 % 1020,9 hPa 0,0 l/m 5,8 km/h (2 Bft) O-NO 70 0 min 0,000 mm 0,0 UV-I 9 W/m 2,0 C 10,1 C 8,0 km/h (2 Bft) 94,34 %
25.03.2017 18:24 10,1 C 57 % 1020,9 hPa 0,0 l/m 6,2 km/h (2 Bft) O-NO 76 0 min 0,000 mm 0,0 UV-I 8 W/m 2,0 C 10,1 C 8,0 km/h (2 Bft) 90,24 %
25.03.2017 18:26 10,0 C 57 % 1020,8 hPa 0,0 l/m 6,3 km/h (2 Bft) O-NO 77 0 min 0,000 mm 0,0 UV-I 7 W/m 1,9 C 10,0 C 11,3 km/h (2 Bft) 94,34 %
25.03.2017 18:28 9,9 C 57 % 1020,8 hPa 0,0 l/m 6,1 km/h (2 Bft) O 79 0 min 0,000 mm 0,0 UV-I 7 W/m 1,8 C 9,9 C 8,0 km/h (2 Bft) 92,68 %
25.03.2017 18:30 9,8 C 57 % 1020,8 hPa 0,0 l/m 6,7 km/h (2 Bft) NO 55 0 min 0,000 mm 0,0 UV-I 7 W/m 1,7 C 9,6 C 8,0 km/h (2 Bft) 94,00 %
25.03.2017 18:32 9,8 C 57 % 1020,9 hPa 0,0 l/m 6,1 km/h (2 Bft) O-NO 72 0 min 0,000 mm 0,0 UV-I 7 W/m 1,7 C 9,8 C 11,3 km/h (2 Bft) 93,62 %
25.03.2017 18:34 9,7 C 57 % 1020,8 hPa 0,0 l/m 5,2 km/h (1 Bft) O-NO 74 0 min 0,000 mm 0,0 UV-I 7 W/m 1,6 C 9,7 C 8,0 km/h (2 Bft) 96,30 %
25.03.2017 18:36 9,7 C 59 % 1020,8 hPa 0,0 l/m 4,6 km/h (1 Bft) O-NO 57 0 min 0,000 mm 0,0 UV-I 7 W/m 2,1 C 9,7 C 6,4 km/h (2 Bft) 97,06 %
25.03.2017 18:38 9,6 C 59 % 1020,8 hPa 0,0 l/m 4,8 km/h (1 Bft) O-NO 74 0 min 0,000 mm 0,0 UV-I 0 W/m 2,0 C 9,6 C 6,4 km/h (2 Bft) 97,56 %
25.03.2017 18:40 9,4 C 59 % 1020,8 hPa 0,0 l/m 4,3 km/h (1 Bft) O-NO 70 0 min 0,000 mm 0,0 UV-I 5 W/m 1,8 C 9,4 C 6,4 km/h (2 Bft) 88,00 %
25.03.2017 18:42 9,3 C 60 % 1020,8 hPa 0,0 l/m 5,4 km/h (1 Bft) O-NO 67 0 min 0,000 mm 0,0 UV-I 5 W/m 1,9 C 9,3 C 6,4 km/h (2 Bft) 98,00 %
25.03.2017 18:44 9,3 C 60 % 1020,8 hPa 0,0 l/m 4,6 km/h (1 Bft) O-NO 67 0 min 0,000 mm 0,0 UV-I 0 W/m 1,9 C 9,3 C 6,4 km/h (2 Bft) 94,74 %
25.03.2017 18:46 9,2 C 60 % 1020,8 hPa 0,0 l/m 4,2 km/h (1 Bft) O-NO 67 0 min 0,000 mm 0,0 UV-I 0 W/m 1,8 C 9,2 C 6,4 km/h (2 Bft) 98,11 %
25.03.2017 18:48 9,1 C 61 % 1020,8 hPa 0,0 l/m 4,2 km/h (1 Bft) O-NO 63 0 min 0,000 mm 0,0 UV-I 0 W/m 2,0 C 9,1 C 4,8 km/h (1 Bft) 100,00 %
25.03.2017 18:50 9,0 C 61 % 1020,8 hPa 0,0 l/m 3,8 km/h (1 Bft) O-NO 65 0 min 0,000 mm 0,0 UV-I 0 W/m 1,9 C 9,0 C 6,4 km/h (2 Bft) 97,62 %
25.03.2017 18:52 8,9 C 61 % 1020,8 hPa 0,0 l/m 5,1 km/h (1 Bft) O-NO 75 0 min 0,000 mm 0,0 UV-I 0 W/m 1,8 C 8,9 C 8,0 km/h (2 Bft) 97,87 %
25.03.2017 18:54 8,9 C 61 % 1020,8 hPa 0,0 l/m 6,0 km/h (2 Bft) O-NO 75 0 min 0,000 mm 0,0 UV-I 0 W/m 1,8 C 8,9 C 8,0 km/h (2 Bft) 100,00 %
25.03.2017 18:56 8,8 C 60 % 1020,8 hPa 0,0 l/m 6,4 km/h (2 Bft) O-NO 64 0 min 0,000 mm 0,0 UV-I 0 W/m 1,5 C 8,8 C 11,3 km/h (2 Bft) 98,51 %
25.03.2017 18:58 8,8 C 60 % 1020,7 hPa 0,0 l/m 5,8 km/h (2 Bft) O 84 0 min 0,000 mm 0,0 UV-I 0 W/m 1,5 C 8,8 C 11,3 km/h (2 Bft) 97,62 %
25.03.2017 19:00 8,8 C 59 % 1020,7 hPa 0,0 l/m 7,1 km/h (2 Bft) O 97 0 min 0,000 mm 0,0 UV-I 0 W/m 1,2 C 8,3 C 11,3 km/h (2 Bft) 95,74 %
25.03.2017 19:02 8,9 C 58 % 1020,7 hPa 0,0 l/m 6,0 km/h (2 Bft) O 96 0 min 0,026 mm 0,0 UV-I 0 W/m 1,1 C 8,9 C 8,0 km/h (2 Bft) 95,45 %
25.03.2017 19:04 8,9 C 58 % 1020,7 hPa 0,0 l/m 5,7 km/h (1 Bft) O-NO 69 0 min 0,000 mm 0,0 UV-I 0 W/m 1,1 C 8,9 C 8,0 km/h (2 Bft) 94,34 %
25.03.2017 19:06 9,0 C 58 % 1020,7 hPa 0,0 l/m 5,7 km/h (1 Bft) O 80 0 min 0,000 mm 0,0 UV-I 0 W/m 1,2 C 9,0 C 9,7 km/h (2 Bft) 100,00 %
25.03.2017 19:08 8,9 C 58 % 1020,7 hPa 0,0 l/m 5,0 km/h (1 Bft) O 80 0 min 0,000 mm 0,0 UV-I 0 W/m 1,1 C 8,9 C 8,0 km/h (2 Bft) 97,87 %
25.03.2017 19:10 8,9 C 58 % 1020,6 hPa 0,0 l/m 7,8 km/h (2 Bft) O 90 0 min 0,000 mm 0,0 UV-I 0 W/m 1,1 C 7,8 C 12,9 km/h (3 Bft) 95,74 %
25.03.2017 19:12 8,9 C 58 % 1020,6 hPa 0,0 l/m 6,9 km/h (2 Bft) O 98 0 min 0,000 mm 0,0 UV-I 0 W/m 1,1 C 8,5 C 11,3 km/h (2 Bft) 96,23 %
25.03.2017 19:14 8,9 C 57 % 1020,6 hPa 0,0 l/m 6,7 km/h (2 Bft) O-NO 70 0 min 0,000 mm 0,0 UV-I 0 W/m 0,9 C 8,7 C 11,3 km/h (2 Bft) 100,00 %
25.03.2017 19:16 8,9 C 57 % 1020,6 hPa 0,0 l/m 7,8 km/h (2 Bft) O 81 0 min 0,000 mm 0,0 UV-I 0 W/m 0,9 C 7,8 C 11,3 km/h (2 Bft) 88,00 %
25.03.2017 19:18 8,9 C 57 % 1020,6 hPa 0,0 l/m 7,3 km/h (2 Bft) O 80 0 min 0,000 mm 0,0 UV-I 0 W/m 0,9 C 8,2 C 11,3 km/h (2 Bft) 95,74 %
25.03.2017 19:20 8,9 C 57 % 1020,6 hPa 0,0 l/m 6,2 km/h (2 Bft) O-NO 74 0 min 0,000 mm 0,0 UV-I 0 W/m 0,9 C 8,9 C 11,3 km/h (2 Bft) 100,00 %
25.03.2017 19:22 8,9 C 57 % 1020,6 hPa 0,0 l/m 7,9 km/h (2 Bft) O 82 0 min 0,000 mm 0,0 UV-I 0 W/m 0,9 C 7,8 C 12,9 km/h (3 Bft) 100,00 %
25.03.2017 19:24 8,9 C 57 % 1020,6 hPa 0,0 l/m 6,8 km/h (2 Bft) O 81 0 min 0,000 mm 0,0 UV-I 0 W/m 0,9 C 8,6 C 11,3 km/h (2 Bft) 95,74 %
25.03.2017 19:26 8,8 C 57 % 1020,5 hPa 0,0 l/m 6,2 km/h (2 Bft) O 87 0 min 0,000 mm 0,0 UV-I 0 W/m 0,8 C 8,8 C 12,9 km/h (3 Bft) 96,43 %
25.03.2017 19:28 8,8 C 57 % 1020,6 hPa 0,0 l/m 7,5 km/h (2 Bft) O-NO 78 0 min 0,000 mm 0,0 UV-I 0 W/m 0,8 C 8,0 C 12,9 km/h (3 Bft) 100,00 %
25.03.2017 19:30 8,7 C 58 % 1020,5 hPa 0,0 l/m 6,0 km/h (2 Bft) O 82 0 min 0,000 mm 0,0 UV-I 0 W/m 0,9 C 8,7 C 9,7 km/h (2 Bft) 94,00 %
25.03.2017 19:32 8,7 C 57 % 1020,5 hPa 0,0 l/m 6,8 km/h (2 Bft) O 80 0 min 0,000 mm 0,0 UV-I 0 W/m 0,7 C 8,4 C 12,9 km/h (3 Bft) 92,00 %
25.03.2017 19:34 8,7 C 57 % 1020,5 hPa 0,0 l/m 6,6 km/h (2 Bft) O-NO 71 0 min 0,000 mm 0,0 UV-I 0 W/m 0,7 C 8,6 C 9,7 km/h (2 Bft) 97,22 %
25.03.2017 19:36 8,6 C 58 % 1020,5 hPa 0,0 l/m 5,7 km/h (1 Bft) O 85 0 min 0,000 mm 0,0 UV-I 0 W/m 0,8 C 8,6 C 11,3 km/h (2 Bft) 96,23 %
25.03.2017 19:38 8,7 C 57 % 1020,5 hPa 0,0 l/m 6,7 km/h (2 Bft) O 80 0 min 0,000 mm 0,0 UV-I 0 W/m 0,7 C 8,5 C 11,3 km/h (2 Bft) 98,00 %
25.03.2017 19:40 8,7 C 57 % 1020,5 hPa 0,0 l/m 7,1 km/h (2 Bft) O-NO 73 0 min 0,000 mm 0,0 UV-I 0 W/m 0,7 C 8,2 C 8,0 km/h (2 Bft) 100,00 %
25.03.2017 19:42 8,7 C 57 % 1020,5 hPa 0,0 l/m 7,3 km/h (2 Bft) O-NO 65 0 min 0,000 mm 0,0 UV-I 0 W/m 0,7 C 8,0 C 11,3 km/h (2 Bft) 94,74 %
25.03.2017 19:44 8,7 C 57 % 1020,5 hPa 0,0 l/m 7,0 km/h (2 Bft) O 80 0 min 0,000 mm 0,0 UV-I 0 W/m 0,7 C 8,2 C 8,0 km/h (2 Bft) 100,00 %
25.03.2017 19:46 8,7 C 58 % 1020,5 hPa 0,0 l/m 7,1 km/h (2 Bft) O 80 0 min 0,000 mm 0,0 UV-I 0 W/m 0,9 C 8,2 C 8,0 km/h (2 Bft) 97,73 %
25.03.2017 19:48 8,6 C 58 % 1020,5 hPa 0,0 l/m 6,6 km/h (2 Bft) O 82 0 min 0,000 mm 0,0 UV-I 0 W/m 0,8 C 8,5 C 8,0 km/h (2 Bft) 97,87 %
25.03.2017 19:50 8,6 C 58 % 1020,4 hPa 0,0 l/m 7,6 km/h (2 Bft) O 84 0 min 0,000 mm 0,0 UV-I 0 W/m 0,8 C 7,7 C 11,3 km/h (2 Bft) 94,00 %
25.03.2017 19:52 8,6 C 58 % 1020,4 hPa 0,0 l/m 8,1 km/h (2 Bft) O-NO 75 0 min 0,000 mm 0,0 UV-I 0 W/m 0,8 C 7,3 C 12,9 km/h (3 Bft) 97,56 %
25.03.2017 19:54 8,6 C 58 % 1020,3 hPa 0,0 l/m 7,0 km/h (2 Bft) O-NO 67 0 min 0,000 mm 0,0 UV-I 0 W/m 0,8 C 8,1 C 12,9 km/h (3 Bft) 100,00 %
25.03.2017 19:56 8,6 C 58 % 1020,3 hPa 0,0 l/m 6,7 km/h (2 Bft) O-NO 76 0 min 0,000 mm 0,0 UV-I 0 W/m 0,8 C 8,4 C 8,0 km/h (2 Bft) 94,00 %
25.03.2017 19:58 8,6 C 58 % 1020,3 hPa 0,0 l/m 6,5 km/h (2 Bft) O-NO 69 0 min 0,000 mm 0,0 UV-I 0 W/m 0,8 C 8,5 C 8,0 km/h (2 Bft) 97,37 %
25.03.2017 20:00 8,5 C 58 % 1020,3 hPa 0,0 l/m 6,4 km/h (2 Bft) O-NO 78 0 min 0,000 mm 0,0 UV-I 0 W/m 0,7 C 8,5 C 8,0 km/h (2 Bft) 95,74 %
25.03.2017 20:02 8,5 C 58 % 1020,3 hPa 0,0 l/m 6,3 km/h (2 Bft) O-NO 72 0 min 0,025 mm 0,0 UV-I 0 W/m 0,7 C 8,5 C 8,0 km/h (2 Bft) 98,11 %
25.03.2017 20:04 8,4 C 58 % 1020,3 hPa 0,0 l/m 6,2 km/h (2 Bft) O-NO 74 0 min 0,000 mm 0,0 UV-I 0 W/m 0,6 C 8,4 C 8,0 km/h (2 Bft) 95,74 %
25.03.2017 20:06 8,4 C 58 % 1020,3 hPa 0,0 l/m 5,7 km/h (1 Bft) O-NO 74 0 min 0,000 mm 0,0 UV-I 0 W/m 0,6 C 8,4 C 8,0 km/h (2 Bft) 100,00 %
25.03.2017 20:08 8,4 C 59 % 1020,3 hPa 0,0 l/m 6,3 km/h (2 Bft) O-NO 68 0 min 0,000 mm 0,0 UV-I 0 W/m 0,9 C 8,4 C 8,0 km/h (2 Bft) 100,00 %
25.03.2017 20:10 8,3 C 59 % 1020,3 hPa 0,0 l/m 5,7 km/h (1 Bft) O-NO 67 0 min 0,000 mm 0,0 UV-I 0 W/m 0,8 C 8,3 C 8,0 km/h (2 Bft) 97,56 %
25.03.2017 20:12 8,3 C 59 % 1020,3 hPa 0,0 l/m 6,0 km/h (2 Bft) O-NO 71 0 min 0,000 mm 0,0 UV-I 0 W/m 0,8 C 8,3 C 6,4 km/h (2 Bft) 98,11 %
25.03.2017 20:14 8,2 C 60 % 1020,3 hPa 0,0 l/m 5,7 km/h (1 Bft) O-NO 71 0 min 0,000 mm 0,0 UV-I 0 W/m 0,9 C 8,2 C 6,4 km/h (2 Bft) 95,83 %
25.03.2017 20:16 8,2 C 60 % 1020,3 hPa 0,0 l/m 5,7 km/h (1 Bft) O-NO 71 0 min 0,000 mm 0,0 UV-I 0 W/m 0,9 C 8,2 C 8,0 km/h (2 Bft) 95,38 %
25.03.2017 20:18 8,2 C 60 % 1020,2 hPa 0,0 l/m 5,8 km/h (2 Bft) O-NO 69 0 min 0,000 mm 0,0 UV-I 0 W/m 0,9 C 8,2 C 8,0 km/h (2 Bft) 96,23 %
25.03.2017 20:20 8,1 C 60 % 1020,1 hPa 0,0 l/m 5,7 km/h (1 Bft) O-NO 71 0 min 0,000 mm 0,0 UV-I 0 W/m 0,8 C 8,1 C 6,4 km/h (2 Bft) 97,56 %
25.03.2017 20:22 8,1 C 61 % 1020,2 hPa 0,0 l/m 5,9 km/h (2 Bft) O-NO 68 0 min 0,000 mm 0,0 UV-I 0 W/m 1,0 C 8,1 C 8,0 km/h (2 Bft) 93,62 %
25.03.2017 20:24 8,1 C 61 % 1020,1 hPa 0,0 l/m 6,3 km/h (2 Bft) O-NO 65 0 min 0,000 mm 0,0 UV-I 0 W/m 1,0 C 8,1 C 8,0 km/h (2 Bft) 92,11 %
25.03.2017 20:26 8,0 C 61 % 1020,1 hPa 0,0 l/m 5,8 km/h (2 Bft) O-NO 67 0 min 0,000 mm 0,0 UV-I 0 W/m 0,9 C 8,0 C 8,0 km/h (2 Bft) 91,07 %
25.03.2017 20:28 7,9 C 61 % 1020,2 hPa 0,0 l/m 5,9 km/h (2 Bft) O-NO 74 0 min 0,000 mm 0,0 UV-I 0 W/m 0,9 C 7,9 C 8,0 km/h (2 Bft) 94,00 %
25.03.2017 20:30 7,9 C 62 % 1020,2 hPa 0,0 l/m 6,3 km/h (2 Bft) O-NO 64 0 min 0,000 mm 0,0 UV-I 0 W/m 1,1 C 7,9 C 8,0 km/h (2 Bft) 91,30 %
25.03.2017 20:32 7,9 C 62 % 1020,3 hPa 0,0 l/m 6,1 km/h (2 Bft) O-NO 57 0 min 0,000 mm 0,0 UV-I 0 W/m 1,1 C 7,9 C 8,0 km/h (2 Bft) 93,22 %
25.03.2017 20:34 7,8 C 62 % 1020,2 hPa 0,0 l/m 5,5 km/h (1 Bft) O-NO 57 0 min 0,000 mm 0,0 UV-I 0 W/m 1,0 C 7,8 C 8,0 km/h (2 Bft) 94,34 %
25.03.2017 20:36 7,8 C 62 % 1020,3 hPa 0,0 l/m 5,2 km/h (1 Bft) O-NO 67 0 min 0,000 mm 0,0 UV-I 0 W/m 1,0 C 7,8 C 8,0 km/h (2 Bft) 92,45 %
25.03.2017 20:39 7,7 C 62 % 1020,3 hPa 0,0 l/m 4,8 km/h (1 Bft) O-NO 63 0 min 0,000 mm 0,0 UV-I 0 W/m 0,9 C 7,7 C 6,4 km/h (2 Bft) 96,92 %
25.03.2017 20:40 7,7 C 63 % 1020,3 hPa 0,0 l/m 4,7 km/h (1 Bft) O-NO 63 0 min 0,000 mm 0,0 UV-I 0 W/m 1,1 C 7,7 C 6,4 km/h (2 Bft) 91,30 %
25.03.2017 20:42 7,4 C 65 % 1020,4 hPa 0,0 l/m 2,5 km/h (1 Bft) O-NO 59 0 min 0,000 mm 0,0 UV-I 0 W/m 1,3 C 7,4 C 4,8 km/h (1 Bft) 95,74 %
25.03.2017 20:44 6,8 C 68 % 1020,4 hPa 0,0 l/m 2,0 km/h (1 Bft) N-NO 16 0 min 0,000 mm 0,0 UV-I 0 W/m 1,3 C 6,8 C 6,4 km/h (2 Bft) 98,00 %
25.03.2017 20:46 6,4 C 70 % 1020,4 hPa 0,0 l/m 3,8 km/h (1 Bft) N-NO 19 0 min 0,000 mm 0,0 UV-I 0 W/m 1,3 C 6,4 C 6,4 km/h (2 Bft) 92,68 %
25.03.2017 20:48 6,3 C 70 % 1020,4 hPa 0,0 l/m 4,1 km/h (1 Bft) N-NO 17 0 min 0,000 mm 0,0 UV-I 0 W/m 1,2 C 6,3 C 11,3 km/h (2 Bft) 95,74 %
25.03.2017 20:50 6,3 C 70 % 1020,3 hPa 0,0 l/m 7,3 km/h (2 Bft) N-NO 32 0 min 0,000 mm 0,0 UV-I 0 W/m 1,2 C 5,5 C 9,7 km/h (2 Bft) 92,00 %
25.03.2017 20:52 6,3 C 70 % 1020,3 hPa 0,0 l/m 6,7 km/h (2 Bft) N-NO 30 0 min 0,000 mm 0,0 UV-I 0 W/m 1,2 C 6,1 C 9,7 km/h (2 Bft) 100,00 %
25.03.2017 20:54 6,3 C 70 % 1020,3 hPa 0,0 l/m 5,6 km/h (1 Bft) NO 53 0 min 0,000 mm 0,0 UV-I 0 W/m 1,2 C 6,3 C 8,0 km/h (2 Bft) 96,55 %
25.03.2017 20:56 6,3 C 70 % 1020,3 hPa 0,0 l/m 5,6 km/h (1 Bft) NO 52 0 min 0,000 mm 0,0 UV-I 0 W/m 1,2 C 6,3 C 8,0 km/h (2 Bft) 97,44 %
25.03.2017 20:58 6,3 C 70 % 1020,3 hPa 0,0 l/m 4,6 km/h (1 Bft) NO 46 0 min 0,000 mm 0,0 UV-I 0 W/m 1,2 C 6,3 C 6,4 km/h (2 Bft) 95,74 %
25.03.2017 21:00 6,3 C 70 % 1020,3 hPa 0,0 l/m 5,4 km/h (1 Bft) N-NO 19 0 min 0,000 mm 0,0 UV-I 0 W/m 1,2 C 6,3 C 8,0 km/h (2 Bft) 97,87 %
25.03.2017 21:03 6,1 C 71 % 1020,4 hPa 0,0 l/m 6,4 km/h (2 Bft) NO 34 0 min 0,025 mm 0,0 UV-I 0 W/m 1,2 C 6,1 C 8,0 km/h (2 Bft) 97,47 %
25.03.2017 21:04 6,1 C 71 % 1020,4 hPa 0,0 l/m 5,7 km/h (1 Bft) N-NO 28 0 min 0,000 mm 0,0 UV-I 0 W/m 1,2 C 6,1 C 6,4 km/h (2 Bft) 100,00 %
25.03.2017 21:06 6,1 C 71 % 1020,4 hPa 0,0 l/m 5,8 km/h (2 Bft) NO 36 0 min 0,000 mm 0,0 UV-I 0 W/m 1,2 C 6,1 C 8,0 km/h (2 Bft) 100,00 %
25.03.2017 21:08 6,1 C 71 % 1020,5 hPa 0,0 l/m 5,3 km/h (1 Bft) NO 42 0 min 0,000 mm 0,0 UV-I 0 W/m 1,2 C 6,1 C 6,4 km/h (2 Bft) 97,56 %
25.03.2017 21:10 6,1 C 72 % 1020,4 hPa 0,0 l/m 5,2 km/h (1 Bft) NO 34 0 min 0,000 mm 0,0 UV-I 0 W/m 1,4 C 6,1 C 6,4 km/h (2 Bft) 92,45 %
25.03.2017 21:12 6,0 C 72 % 1020,5 hPa 0,0 l/m 5,2 km/h (1 Bft) NO 38 0 min 0,000 mm 0,0 UV-I 0 W/m 1,3 C 6,0 C 8,0 km/h (2 Bft) 92,68 %
25.03.2017 21:14 5,9 C 72 % 1020,5 hPa 0,0 l/m 6,4 km/h (2 Bft) NO 40 0 min 0,000 mm 0,0 UV-I 0 W/m 1,2 C 5,9 C 8,0 km/h (2 Bft) 94,00 %
25.03.2017 21:16 5,9 C 72 % 1020,6 hPa 0,0 l/m 7,4 km/h (2 Bft) NO 52 0 min 0,000 mm 0,0 UV-I 0 W/m 1,2 C 5,0 C 11,3 km/h (2 Bft) 94,34 %
25.03.2017 21:18 5,9 C 72 % 1020,5 hPa 0,0 l/m 7,9 km/h (2 Bft) N-NO 24 0 min 0,000 mm 0,0 UV-I 0 W/m 1,2 C 4,6 C 11,3 km/h (2 Bft) 94,29 %
25.03.2017 21:20 6,0 C 71 % 1020,5 hPa 0,0 l/m 7,5 km/h (2 Bft) NO 45 0 min 0,000 mm 0,0 UV-I 0 W/m 1,1 C 5,1 C 11,3 km/h (2 Bft) 96,23 %
25.03.2017 21:22 6,2 C 70 % 1020,5 hPa 0,0 l/m 8,6 km/h (2 Bft) NO 40 0 min 0,000 mm 0,0 UV-I 0 W/m 1,1 C 4,4 C 12,9 km/h (3 Bft) 92,68 %
25.03.2017 21:24 6,3 C 70 % 1020,5 hPa 0,0 l/m 6,8 km/h (2 Bft) NO 36 0 min 0,000 mm 0,0 UV-I 0 W/m 1,2 C 6,0 C 11,3 km/h (2 Bft) 92,86 %
25.03.2017 21:26 6,4 C 69 % 1020,6 hPa 0,0 l/m 7,5 km/h (2 Bft) NO 41 0 min 0,000 mm 0,0 UV-I 0 W/m 1,1 C 5,5 C 11,3 km/h (2 Bft) 93,18 %
25.03.2017 21:28 6,5 C 69 % 1020,7 hPa 0,0 l/m 7,0 km/h (2 Bft) N-NO 19 0 min 0,000 mm 0,0 UV-I 0 W/m 1,2 C 6,0 C 12,9 km/h (3 Bft) 95,74 %
25.03.2017 21:30 6,5 C 69 % 1020,8 hPa 0,0 l/m 9,3 km/h (2 Bft) NO 34 0 min 0,000 mm 0,0 UV-I 0 W/m 1,2 C 4,2 C 14,5 km/h (3 Bft) 97,62 %
25.03.2017 21:32 6,5 C 69 % 1020,7 hPa 0,0 l/m 9,3 km/h (2 Bft) N-NO 26 0 min 0,000 mm 0,0 UV-I 0 W/m 1,2 C 4,2 C 12,9 km/h (3 Bft) 96,00 %
25.03.2017 21:34 6,5 C 69 % 1020,7 hPa 0,0 l/m 7,8 km/h (2 Bft) N-NO 23 0 min 0,000 mm 0,0 UV-I 0 W/m 1,2 C 5,3 C 12,9 km/h (3 Bft) 95,45 %
25.03.2017 21:36 6,4 C 69 % 1020,7 hPa 0,0 l/m 7,8 km/h (2 Bft) N-NO 17 0 min 0,000 mm 0,0 UV-I 0 W/m 1,1 C 5,2 C 9,7 km/h (2 Bft) 98,11 %
25.03.2017 21:38 6,5 C 69 % 1020,7 hPa 0,0 l/m 9,9 km/h (2 Bft) N-NO 29 0 min 0,000 mm 0,0 UV-I 0 W/m 1,2 C 3,8 C 14,5 km/h (3 Bft) 95,45 %
25.03.2017 21:40 6,6 C 69 % 1020,8 hPa 0,0 l/m 7,9 km/h (2 Bft) N-NO 17 0 min 0,000 mm 0,0 UV-I 0 W/m 1,3 C 5,4 C 16,1 km/h (3 Bft) 95,45 %
25.03.2017 21:42 6,5 C 70 % 1020,9 hPa 0,0 l/m 9,3 km/h (2 Bft) N-NO 32 0 min 0,000 mm 0,0 UV-I 0 W/m 1,4 C 4,2 C 12,9 km/h (3 Bft) 96,23 %
25.03.2017 21:44 6,5 C 70 % 1020,9 hPa 0,0 l/m 9,8 km/h (2 Bft) N-NO 29 0 min 0,000 mm 0,0 UV-I 0 W/m 1,4 C 3,9 C 14,5 km/h (3 Bft) 95,74 %
25.03.2017 21:46 6,5 C 70 % 1020,9 hPa 0,0 l/m 8,4 km/h (2 Bft) N-NO 30 0 min 0,000 mm 0,0 UV-I 0 W/m 1,4 C 4,9 C 11,3 km/h (2 Bft) 97,37 %
25.03.2017 21:49 6,6 C 69 % 1020,8 hPa 0,0 l/m 9,3 km/h (2 Bft) NO 48 0 min 0,000 mm 0,0 UV-I 0 W/m 1,3 C 4,3 C 14,5 km/h (3 Bft) 96,00 %
25.03.2017 21:50 6,7 C 69 % 1020,8 hPa 0,0 l/m 5,9 km/h (2 Bft) NO 56 0 min 0,000 mm 0,0 UV-I 0 W/m 1,4 C 6,7 C 8,0 km/h (2 Bft) 92,59 %
25.03.2017 21:52 6,8 C 68 % 1020,7 hPa 0,0 l/m 6,6 km/h (2 Bft) O-NO 59 0 min 0,000 mm 0,0 UV-I 0 W/m 1,3 C 6,7 C 9,7 km/h (2 Bft) 94,87 %
25.03.2017 21:54 6,9 C 68 % 1020,6 hPa 0,0 l/m 8,2 km/h (2 Bft) O-NO 76 0 min 0,000 mm 0,0 UV-I 0 W/m 1,4 C 5,4 C 11,3 km/h (2 Bft) 96,00 %
25.03.2017 21:56 6,9 C 68 % 1020,5 hPa 0,0 l/m 6,2 km/h (2 Bft) O-SO 111 0 min 0,000 mm 0,0 UV-I 0 W/m 1,4 C 6,9 C 9,7 km/h (2 Bft) 98,00 %
25.03.2017 21:58 6,6 C 69 % 1020,4 hPa 0,0 l/m 5,4 km/h (1 Bft) O 93 0 min 0,000 mm 0,0 UV-I 0 W/m 1,3 C 6,6 C 8,0 km/h (2 Bft) 95,12 %
25.03.2017 22:00 6,4 C 70 % 1020,3 hPa 0,0 l/m 4,9 km/h (1 Bft) O 80 0 min 0,000 mm 0,0 UV-I 0 W/m 1,3 C 6,4 C 8,0 km/h (2 Bft) 95,74 %
25.03.2017 22:02 6,5 C 69 % 1020,3 hPa 0,0 l/m 6,0 km/h (2 Bft) O 83 0 min 0,026 mm 0,0 UV-I 0 W/m 1,2 C 6,5 C 9,7 km/h (2 Bft) 91,07 %
25.03.2017 22:04 6,6 C 69 % 1020,4 hPa 0,0 l/m 4,8 km/h (1 Bft) O-NO 67 0 min 0,000 mm 0,0 UV-I 0 W/m 1,3 C 6,6 C 6,4 km/h (2 Bft) 97,37 %
25.03.2017 22:06 6,7 C 68 % 1020,4 hPa 0,0 l/m 5,4 km/h (1 Bft) O-NO 58 0 min 0,000 mm 0,0 UV-I 0 W/m 1,2 C 6,7 C 8,0 km/h (2 Bft) 98,00 %
25.03.2017 22:08 6,8 C 68 % 1020,5 hPa 0,0 l/m 3,7 km/h (1 Bft) O-NO 69 0 min 0,000 mm 0,0 UV-I 0 W/m 1,3 C 6,8 C 6,4 km/h (2 Bft) 95,74 %
25.03.2017 22:10 6,8 C 68 % 1020,5 hPa 0,0 l/m 5,1 km/h (1 Bft) O-NO 69 0 min 0,000 mm 0,0 UV-I 0 W/m 1,3 C 6,8 C 6,4 km/h (2 Bft) 96,23 %
25.03.2017 22:12 6,9 C 68 % 1020,5 hPa 0,0 l/m 5,5 km/h (1 Bft) O-NO 58 0 min 0,000 mm 0,0 UV-I 0 W/m 1,4 C 6,9 C 8,0 km/h (2 Bft) 100,00 %
25.03.2017 22:14 6,9 C 68 % 1020,5 hPa 0,0 l/m 5,1 km/h (1 Bft) NO 55 0 min 0,000 mm 0,0 UV-I 0 W/m 1,4 C 6,9 C 6,4 km/h (2 Bft) 96,77 %
25.03.2017 22:16 6,7 C 68 % 1020,5 hPa 0,0 l/m 3,8 km/h (1 Bft) O-NO 65 0 min 0,000 mm 0,0 UV-I 0 W/m 1,2 C 6,7 C 6,4 km/h (2 Bft) 94,00 %
25.03.2017 22:18 6,6 C 69 % 1020,6 hPa 0,0 l/m 4,7 km/h (1 Bft) O-NO 60 0 min 0,000 mm 0,0 UV-I 0 W/m 1,3 C 6,6 C 6,4 km/h (2 Bft) 93,62 %
25.03.2017 22:20 6,6 C 69 % 1020,5 hPa 0,0 l/m 4,8 km/h (1 Bft) O-NO 74 0 min 0,000 mm 0,0 UV-I 0 W/m 1,3 C 6,6 C 8,0 km/h (2 Bft) 100,00 %
25.03.2017 22:22 6,3 C 70 % 1020,4 hPa 0,0 l/m 3,4 km/h (1 Bft) O 83 0 min 0,000 mm 0,0 UV-I 0 W/m 1,2 C 6,3 C 4,8 km/h (1 Bft) 94,00 %
25.03.2017 22:24 6,1 C 71 % 1020,4 hPa 0,0 l/m 4,0 km/h (1 Bft) SO 128 0 min 0,000 mm 0,0 UV-I 0 W/m 1,2 C 6,1 C 8,0 km/h (2 Bft) 95,12 %
25.03.2017 22:26 5,8 C 73 % 1020,5 hPa 0,0 l/m 4,2 km/h (1 Bft) O 84 0 min 0,000 mm 0,0 UV-I 0 W/m 1,3 C 5,8 C 6,4 km/h (2 Bft) 98,00 %
25.03.2017 22:28 5,8 C 72 % 1020,6 hPa 0,0 l/m 3,9 km/h (1 Bft) O-NO 74 0 min 0,000 mm 0,0 UV-I 0 W/m 1,2 C 5,8 C 4,8 km/h (1 Bft) 93,62 %
25.03.2017 22:30 6,0 C 70 % 1020,6 hPa 0,0 l/m 5,6 km/h (1 Bft) NO 56 0 min 0,000 mm 0,0 UV-I 0 W/m 1,0 C 6,0 C 8,0 km/h (2 Bft) 94,34 %
25.03.2017 22:32 6,3 C 69 % 1020,7 hPa 0,0 l/m 5,0 km/h (1 Bft) O-NO 67 0 min 0,000 mm 0,0 UV-I 0 W/m 1,0 C 6,3 C 6,4 km/h (2 Bft) 97,37 %
25.03.2017 22:34 6,3 C 70 % 1020,7 hPa 0,0 l/m 5,5 km/h (1 Bft) O-NO 75 0 min 0,000 mm 0,0 UV-I 0 W/m 1,2 C 6,3 C 8,0 km/h (2 Bft) 98,21 %
25.03.2017 22:36 6,3 C 69 % 1020,7 hPa 0,0 l/m 6,4 km/h (2 Bft) O 92 0 min 0,000 mm 0,0 UV-I 0 W/m 1,0 C 6,3 C 9,7 km/h (2 Bft) 95,45 %
25.03.2017 22:38 6,3 C 69 % 1020,7 hPa 0,0 l/m 5,2 km/h (1 Bft) NO 55 0 min 0,000 mm 0,0 UV-I 0 W/m 1,0 C 6,3 C 8,0 km/h (2 Bft) 95,74 %
25.03.2017 22:40 6,4 C 69 % 1020,8 hPa 0,0 l/m 4,8 km/h (1 Bft) O-NO 76 0 min 0,000 mm 0,0 UV-I 0 W/m 1,1 C 6,4 C 8,0 km/h (2 Bft) 94,00 %
25.03.2017 22:42 6,3 C 69 % 1020,7 hPa 0,0 l/m 6,9 km/h (2 Bft) O 89 0 min 0,000 mm 0,0 UV-I 0 W/m 1,0 C 5,9 C 11,3 km/h (2 Bft) 94,74 %
25.03.2017 22:44 6,2 C 70 % 1020,7 hPa 0,0 l/m 4,7 km/h (1 Bft) O-SO 109 0 min 0,000 mm 0,0 UV-I 0 W/m 1,1 C 6,2 C 6,4 km/h (2 Bft) 94,34 %
25.03.2017 22:46 5,8 C 72 % 1020,7 hPa 0,0 l/m 4,1 km/h (1 Bft) O-SO 109 0 min 0,000 mm 0,0 UV-I 0 W/m 1,2 C 5,8 C 9,7 km/h (2 Bft) 96,00 %
25.03.2017 22:48 5,5 C 73 % 1020,7 hPa 0,0 l/m 4,4 km/h (1 Bft) O-SO 103 0 min 0,000 mm 0,0 UV-I 0 W/m 1,1 C 5,5 C 6,4 km/h (2 Bft) 97,44 %
25.03.2017 22:50 5,2 C 74 % 1020,7 hPa 0,0 l/m 7,2 km/h (2 Bft) O 79 0 min 0,000 mm 0,0 UV-I 0 W/m 1,0 C 4,5 C 9,7 km/h (2 Bft) 94,74 %
25.03.2017 22:52 5,3 C 73 % 1020,7 hPa 0,0 l/m 8,8 km/h (2 Bft) O-NO 74 0 min 0,000 mm 0,0 UV-I 0 W/m 0,9 C 3,3 C 12,9 km/h (3 Bft) 98,21 %
25.03.2017 22:54 5,6 C 72 % 1020,7 hPa 0,0 l/m 7,4 km/h (2 Bft) O 84 0 min 0,000 mm 0,0 UV-I 0 W/m 1,0 C 4,7 C 11,3 km/h (2 Bft) 96,00 %
25.03.2017 22:56 5,8 C 72 % 1020,7 hPa 0,0 l/m 6,2 km/h (2 Bft) O 89 0 min 0,000 mm 0,0 UV-I 0 W/m 1,2 C 5,8 C 11,3 km/h (2 Bft) 96,23 %
25.03.2017 22:58 5,8 C 71 % 1020,7 hPa 0,0 l/m 4,9 km/h (1 Bft) O 90 0 min 0,000 mm 0,0 UV-I 0 W/m 1,0 C 5,8 C 11,3 km/h (2 Bft) 97,37 %
25.03.2017 23:00 5,7 C 72 % 1020,6 hPa 0,0 l/m 5,3 km/h (1 Bft) O-NO 75 0 min 0,000 mm 0,0 UV-I 0 W/m 1,1 C 5,7 C 6,4 km/h (2 Bft) 96,00 %
25.03.2017 23:02 5,5 C 72 % 1020,6 hPa 0,0 l/m 5,6 km/h (1 Bft) O 93 0 min 0,025 mm 0,0 UV-I 0 W/m 0,9 C 5,5 C 9,7 km/h (2 Bft) 97,87 %
25.03.2017 23:04 5,6 C 72 % 1020,7 hPa 0,0 l/m 6,3 km/h (2 Bft) O 90 0 min 0,000 mm 0,0 UV-I 0 W/m 1,0 C 5,6 C 9,7 km/h (2 Bft) 98,11 %
25.03.2017 23:06 5,6 C 72 % 1020,6 hPa 0,0 l/m 6,1 km/h (2 Bft) O-NO 74 0 min 0,000 mm 0,0 UV-I 0 W/m 1,0 C 5,6 C 9,7 km/h (2 Bft) 94,74 %
25.03.2017 23:08 5,6 C 72 % 1020,7 hPa 0,0 l/m 5,6 km/h (1 Bft) O-NO 75 0 min 0,000 mm 0,0 UV-I 0 W/m 1,0 C 5,6 C 9,7 km/h (2 Bft) 96,23 %
25.03.2017 23:10 5,7 C 72 % 1020,7 hPa 0,0 l/m 7,1 km/h (2 Bft) O 92 0 min 0,000 mm 0,0 UV-I 0 W/m 1,1 C 5,1 C 12,9 km/h (3 Bft) 100,00 %
25.03.2017 23:12 5,7 C 71 % 1020,6 hPa 0,0 l/m 6,2 km/h (2 Bft) O 80 0 min 0,000 mm 0,0 UV-I 0 W/m 0,9 C 5,7 C 9,7 km/h (2 Bft) 96,00 %
25.03.2017 23:14 5,8 C 71 % 1020,6 hPa 0,0 l/m 6,7 km/h (2 Bft) O-NO 74 0 min 0,000 mm 0,0 UV-I 0 W/m 1,0 C 5,6 C 11,3 km/h (2 Bft) 100,00 %
25.03.2017 23:16 5,8 C 71 % 1020,6 hPa 0,0 l/m 6,5 km/h (2 Bft) O 80 0 min 0,000 mm 0,0 UV-I 0 W/m 1,0 C 5,7 C 11,3 km/h (2 Bft) 98,21 %
25.03.2017 23:18 5,8 C 71 % 1020,6 hPa 0,0 l/m 5,0 km/h (1 Bft) O 93 0 min 0,000 mm 0,0 UV-I 0 W/m 1,0 C 5,8 C 8,0 km/h (2 Bft) 96,00 %
25.03.2017 23:20 5,7 C 72 % 1020,7 hPa 0,0 l/m 5,1 km/h (1 Bft) O-NO 76 0 min 0,000 mm 0,0 UV-I 0 W/m 1,1 C 5,7 C 8,0 km/h (2 Bft) 92,68 %
25.03.2017 23:22 5,8 C 71 % 1020,7 hPa 0,0 l/m 6,0 km/h (2 Bft) O 80 0 min 0,000 mm 0,0 UV-I 0 W/m 1,0 C 5,8 C 8,0 km/h (2 Bft) 93,18 %
25.03.2017 23:24 5,7 C 72 % 1020,8 hPa 0,0 l/m 6,3 km/h (2 Bft) O 79 0 min 0,000 mm 0,0 UV-I 0 W/m 1,1 C 5,7 C 11,3 km/h (2 Bft) 98,00 %
25.03.2017 23:26 5,7 C 72 % 1020,8 hPa 0,0 l/m 6,2 km/h (2 Bft) O 89 0 min 0,000 mm 0,0 UV-I 0 W/m 1,1 C 5,7 C 8,0 km/h (2 Bft) 96,23 %
25.03.2017 23:28 5,4 C 73 % 1020,8 hPa 0,0 l/m 7,2 km/h (2 Bft) O-NO 78 0 min 0,000 mm 0,0 UV-I 0 W/m 1,0 C 4,7 C 12,9 km/h (3 Bft) 97,44 %
25.03.2017 23:30 5,4 C 73 % 1020,7 hPa 0,0 l/m 4,8 km/h (1 Bft) O-NO 65 0 min 0,000 mm 0,0 UV-I 0 W/m 1,0 C 5,4 C 8,0 km/h (2 Bft) 98,08 %
25.03.2017 23:32 5,3 C 73 % 1020,7 hPa 0,0 l/m 6,3 km/h (2 Bft) O 84 0 min 0,000 mm 0,0 UV-I 0 W/m 0,9 C 5,3 C 12,9 km/h (3 Bft) 100,00 %
25.03.2017 23:34 5,2 C 74 % 1020,7 hPa 0,0 l/m 4,9 km/h (1 Bft) O 89 0 min 0,000 mm 0,0 UV-I 0 W/m 1,0 C 5,2 C 9,7 km/h (2 Bft) 98,11 %
25.03.2017 23:36 5,2 C 74 % 1020,7 hPa 0,0 l/m 4,7 km/h (1 Bft) O 96 0 min 0,000 mm 0,0 UV-I 0 W/m 1,0 C 5,2 C 8,0 km/h (2 Bft) 97,37 %
25.03.2017 23:38 5,2 C 74 % 1020,7 hPa 0,0 l/m 3,9 km/h (1 Bft) O 96 0 min 0,000 mm 0,0 UV-I 0 W/m 1,0 C 5,2 C 6,4 km/h (2 Bft) 98,11 %
25.03.2017 23:40 5,2 C 74 % 1020,6 hPa 0,0 l/m 5,2 km/h (1 Bft) O-NO 77 0 min 0,000 mm 0,0 UV-I 0 W/m 1,0 C 5,2 C 11,3 km/h (2 Bft) 90,57 %
25.03.2017 23:42 5,2 C 74 % 1020,7 hPa 0,0 l/m 6,5 km/h (2 Bft) O 88 0 min 0,000 mm 0,0 UV-I 0 W/m 1,0 C 5,1 C 9,7 km/h (2 Bft) 100,00 %
25.03.2017 23:44 5,4 C 73 % 1020,6 hPa 0,0 l/m 6,2 km/h (2 Bft) O-NO 78 0 min 0,000 mm 0,0 UV-I 0 W/m 1,0 C 5,4 C 11,3 km/h (2 Bft) 98,00 %
25.03.2017 23:46 5,5 C 73 % 1020,6 hPa 0,0 l/m 4,9 km/h (1 Bft) O-NO 77 0 min 0,000 mm 0,0 UV-I 0 W/m 1,1 C 5,5 C 11,3 km/h (2 Bft) 96,00 %
25.03.2017 23:48 5,5 C 73 % 1020,6 hPa 0,0 l/m 7,9 km/h (2 Bft) O-SO 107 0 min 0,000 mm 0,0 UV-I 0 W/m 1,1 C 4,2 C 12,9 km/h (3 Bft) 100,00 %
25.03.2017 23:50 5,4 C 73 % 1020,6 hPa 0,0 l/m 4,9 km/h (1 Bft) O-SO 105 0 min 0,000 mm 0,0 UV-I 0 W/m 1,0 C 5,4 C 6,4 km/h (2 Bft) 98,11 %
25.03.2017 23:52 5,3 C 74 % 1020,5 hPa 0,0 l/m 5,0 km/h (1 Bft) O 94 0 min 0,000 mm 0,0 UV-I 0 W/m 1,0 C 5,3 C 8,0 km/h (2 Bft) 100,00 %
25.03.2017 23:54 5,2 C 74 % 1020,5 hPa 0,0 l/m 6,8 km/h (2 Bft) O-SO 117 0 min 0,000 mm 0,0 UV-I 0 W/m 1,0 C 4,9 C 12,9 km/h (3 Bft) 97,87 %
25.03.2017 23:56 5,2 C 74 % 1020,5 hPa 0,0 l/m 10,2 km/h (2 Bft) O 96 0 min 0,000 mm 0,0 UV-I 0 W/m 1,0 C 2,2 C 14,5 km/h (3 Bft) 100,00 %
25.03.2017 23:58 5,2 C 74 % 1020,5 hPa 0,0 l/m 9,2 km/h (2 Bft) O 88 0 min 0,000 mm 0,0 UV-I 0 W/m 1,0 C 2,9 C 14,5 km/h (3 Bft) 98,00 %
_ Min-Zeit 05:34 16:06 20:20 - 20:44 - - - - - - 16:06 08:38 18:48 10:02
Minimum _ 3,1 C 40 % 1020,1 hPa - 2,0 km/h (1 Bft) - - - - - - -0,1 C -3,7 C 4,8 km/h (1 Bft) 81,25 %
_ Max-Zeit 15:18 05:36 00:00 00:00 09:40 - - 09:13 14:03 11:50 11:54 12:34 17:16 09:18 00:00
Maximum _ 13,4 C 90 % 1028,2 hPa 0,0 l/m 29,3 km/h
NO (5 Bft)
- - 3 min 0,432 mm 2,6 UV-I 749 W/m 5,1 C 12,2 C 41,8 km/h
O-NO (6 Bft)
100,00 %
Durchschnitt _ 7,9 C 69 % 1024,4 hPa #0,0 l/m 13,0 km/h (3 Bft) O-NO - #11:40 h #3,505 mm 1,7 UV-I 415 W/m 2,3 C 4,2 C 18,6 km/h (3 Bft) 96,56 %